[[{"header":{"parameterUnit":"m.s-1","parameterCategory":1,"la1":30.6,"la2":28.766,"lo1":-90.7593,"lo2":-88.6598,"dx":0.0162,"dy":0.0183,"nx":116,"ny":114,"refTime":"2022-12-20T00:00:00:Z","depth":0,"parameterNumber":2,"parameterNumberName":"U-component_of_WINDS"},"data":[0.0,0.0,0.0,0.0,0.0,0.0,0.0,0.0,0.0,0.0,0.0,0.0,0.0,0.0,0.0,0.0,0.0,0.0,0.0,0.0,0.0,0.0,0.0,0.0,0.0,0.0,0.0,0.0,0.0,0.0,0.0,0.0,0.0,0.0,0.0,0.0,0.0,0.0,0.0,0.0,0.0,0.0,0.0,0.0,0.0,0.0,0.0,0.0,0.0,0.0,0.0,0.0,0.0,0.0,0.0,0.0,0.0,0.0,0.0,0.0,0.0,0.0,0.0,0.0,0.0,0.0,0.0,0.0,0.0,0.0,0.0,0.0,0.0,0.0,0.0,0.0,0.0,0.0,0.0,0.0,0.0,0.0,0.0,0.0,0.0,0.0,0.0,0.0,0.0,0.0,0.0,0.0,0.0,0.0,0.0,0.0,0.0,0.0,0.0,0.0,0.0,0.0,0.0,0.0,0.0,0.0,0.0,0.0,0.0,0.0,0.0,0.0,0.0,0.0,0.0,0.0,0.0,0.0,0.0,0.0,0.0,0.0,0.0,0.0,0.0,0.0,0.0,0.0,0.0,0.0,0.0,0.0,0.0,0.0,0.0,0.0,0.0,0.0,0.0,0.0,0.0,0.0,0.0,0.0,0.0,0.0,0.0,0.0,0.0,0.0,0.0,0.0,0.0,0.0,0.0,0.0,0.0,0.0,0.0,0.0,0.0,0.0,0.0,0.0,0.0,0.0,0.0,0.0,0.0,0.0,0.0,0.0,0.0,0.0,0.0,0.0,0.0,0.0,0.0,0.0,0.0,0.0,0.0,0.0,0.0,0.0,0.0,0.0,0.0,0.0,0.0,0.0,0.0,0.0,0.0,0.0,0.0,0.0,0.0,0.0,0.0,0.0,0.0,0.0,0.0,0.0,0.0,0.0,0.0,0.0,0.0,0.0,0.0,0.0,0.0,0.0,0.0,0.0,0.0,0.0,0.0,0.0,0.0,0.0,0.0,0.0,0.0,0.0,0.0,0.0,0.0,0.0,0.0,0.0,0.0,0.0,0.0,0.0,0.0,0.0,0.0,0.0,0.0,0.0,0.0,0.0,0.0,0.0,0.0,0.0,0.0,0.0,0.0,0.0,0.0,0.0,0.0,0.0,0.0,0.0,0.0,0.0,0.0,0.0,0.0,0.0,0.0,0.0,0.0,0.0,0.0,0.0,0.0,0.0,0.0,0.0,0.0,0.0,0.0,0.0,0.0,0.0,0.0,0.0,0.0,0.0,0.0,0.0,0.0,0.0,0.0,0.0,0.0,0.0,0.0,0.0,0.0,0.0,0.0,0.0,0.0,0.0,0.0,0.0,0.0,0.0,0.0,0.0,0.0,0.0,0.0,0.0,0.0,0.0,0.0,0.0,0.0,0.0,0.0,0.0,0.0,0.0,0.0,0.0,0.0,0.0,0.0,0.0,0.0,0.0,0.0,0.0,0.0,0.0,0.0,0.0,0.0,0.0,0.0,0.0,0.0,0.0,0.0,0.0,0.0,0.0,0.0,0.0,0.0,0.0,0.0,0.0,0.0,0.0,0.0,0.0,0.0,0.0,0.0,0.0,0.0,0.0,0.0,0.0,0.0,0.0,0.0,0.0,0.0,0.0,0.0,0.0,0.0,0.0,0.0,0.0,0.0,0.0,0.0,0.0,0.0,0.0,0.0,0.0,0.0,0.0,0.0,0.0,0.0,0.0,0.0,0.0,0.0,0.0,0.0,0.0,0.0,0.0,0.0,0.0,0.0,0.0,0.0,0.0,0.0,0.0,0.0,0.0,0.0,0.0,0.0,0.0,0.0,0.0,0.0,0.0,0.0,0.0,0.0,0.0,0.0,0.0,0.0,0.0,0.0,0.0,0.0,0.0,0.0,0.0,0.0,0.0,0.0,0.0,0.0,0.0,0.0,0.0,0.0,0.0,0.0,0.0,0.0,0.0,0.0,0.0,0.0,0.0,0.0,0.0,0.0,0.0,0.0,0.0,0.0,0.0,0.0,0.0,0.0,0.0,0.0,0.0,0.0,0.0,0.0,0.0,0.0,0.0,0.0,0.0,0.0,0.0,0.0,0.0,0.0,0.0,0.0,0.0,0.0,0.0,0.0,0.0,0.0,0.0,0.0,0.0,0.0,0.0,0.0,0.0,0.0,0.0,0.0,0.0,0.0,0.0,0.0,0.0,0.0,0.0,0.0,0.0,0.0,0.0,0.0,0.0,0.0,0.0,0.0,0.0,0.0,0.0,0.0,0.0,0.0,0.0,0.0,0.0,0.0,0.0,0.0,0.0,0.0,0.0,0.0,0.0,0.0,0.0,0.0,0.0,0.0,0.0,0.0,0.0,0.0,0.0,0.0,0.0,0.0,0.0,0.0,0.0,0.0,0.0,0.0,0.0,0.0,0.0,0.0,0.0,0.0,0.0,0.0,0.0,0.0,0.0,0.0,0.0,0.0,0.0,0.0,0.0,0.0,0.0,0.0,0.0,0.0,0.0,0.0,0.0,0.0,0.0,0.0,0.0,0.0,0.0,0.0,0.0,0.0,0.0,0.0,0.0,0.0,0.0,0.0,0.0,0.0,0.0,0.0,0.0,0.0,0.0,0.0,0.0,0.0,0.0,0.0,0.0,0.0,0.0,0.0,0.0,0.0,0.0,0.0,0.0,0.0,0.0,0.0,0.0,0.0,0.0,0.0,0.0,0.0,0.0,0.0,0.0,0.0,0.0,0.0,0.0,0.0,0.0,0.0,0.0,0.0,0.0,0.0,0.0,0.0,0.0,0.0,0.0,0.0,0.0,0.0,0.0,0.0,0.0,0.0,0.0,0.0,0.0,0.0,0.0,0.0,0.0,0.0,0.0,0.0,0.0,0.0,0.0,0.0,0.0,0.0,0.0,0.0,0.0,0.0,0.0,0.0,0.0,0.0,0.0,0.0,0.0,0.0,0.0,0.0,0.0,0.0,0.0,0.0,0.0,0.0,0.0,0.0,0.0,0.0,0.0,0.0,0.0,0.0,0.0,0.0,0.0,0.0,0.0,0.0,0.0,0.0,0.0,0.0,0.0,0.0,0.0,0.0,0.0,0.0,0.0,0.0,0.0,0.0,0.0,0.0,0.0,0.0,0.0,0.0,0.0,0.0,0.0,0.0,0.0,0.0,0.0,0.0,0.0,0.0,0.0,0.0,0.0,0.0,0.0,0.0,0.0,0.0,0.0,0.0,0.0,0.0,0.0,0.0,0.0,0.0,0.0,0.0,0.0,0.0,0.0,0.0,0.0,0.0,0.0,0.0,0.0,0.0,0.0,0.0,0.0,0.0,0.0,0.0,0.0,0.0,0.0,0.0,0.0,0.0,0.0,0.0,0.0,0.0,0.0,0.0,0.0,0.0,0.0,0.0,0.0,0.0,0.0,0.0,0.0,0.0,0.0,0.0,0.0,0.0,0.0,0.0,0.0,0.0,0.0,0.0,0.0,0.0,0.0,0.0,0.0,0.0,0.0,0.0,0.0,0.0,0.0,0.0,0.0,0.0,0.0,0.0,0.0,0.0,0.0,0.0,0.0,0.0,0.0,0.0,0.0,0.0,0.0,0.0,0.0,0.0,0.0,0.0,0.0,0.0,0.0,0.0,0.0,0.0,0.0,0.0,0.0,0.0,0.0,0.0,0.0,0.0,0.0,0.0,0.0,0.0,0.0,0.0,0.0,0.0,0.0,0.0,0.0,0.0,0.0,0.0,0.0,0.0,0.0,0.0,0.0,0.0,0.0,0.0,0.0,0.0,0.0,0.0,0.0,0.0,0.0,0.0,0.0,0.0,0.0,0.0,0.0,0.0,0.0,0.0,0.0,0.0,0.0,0.0,0.0,0.0,0.0,0.0,0.0,0.0,0.0,0.0,0.0,0.0,0.0,0.0,0.0,0.0,0.0,0.0,0.0,0.0,0.0,0.0,0.0,0.0,0.0,0.0,0.0,0.0,0.0,0.0,0.0,0.0,0.0,0.0,0.0,0.0,0.0,0.0,0.0,0.0,0.0,0.0,0.0,0.0,0.0,0.0,0.0,0.0,0.0,0.0,0.0,0.0,0.0,0.0,0.0,0.0,0.0,0.0,0.0,0.0,0.0,0.0,0.0,0.0,0.0,0.0,0.0,0.0,0.0,0.0,0.0,0.0,0.0,0.0,0.0,0.0,0.0,0.0,0.0,0.0,0.0,0.0,0.0,0.0,0.0,0.0,0.0,0.0,0.0,0.0,0.0,0.0,0.0,0.0,0.0,0.0,0.0,0.0,0.0,0.0,0.0,0.0,0.0,0.0,0.0,0.0,0.0,0.0,0.0,0.0,0.0,0.0,0.0,0.0,0.0,0.0,0.0,0.0,0.0,0.0,0.0,0.0,0.0,0.0,0.0,0.0,0.0,0.0,0.0,0.0,0.0,0.0,0.0,0.0,0.0,0.0,0.0,0.0,0.0,0.0,0.0,0.0,0.0,0.0,0.0,0.0,0.0,0.0,0.0,0.0,0.0,0.0,0.0,0.0,0.0,0.0,0.0,0.0,0.0,0.0,0.0,0.0,0.0,0.0,0.0,0.0,0.0,0.0,0.0,0.0,0.0,0.0,0.0,0.0,0.0,0.0,0.0,0.0,0.0,0.0,0.0,0.0,0.0,0.0,0.0,0.0,0.0,0.0,0.0,0.0,0.0,0.0,0.0,0.0,0.0,0.0,0.0,0.0,0.0,0.0,0.0,0.0,0.0,0.0,0.0,0.0,0.0,0.0,0.0,0.0,0.0,0.0,0.0,0.0,0.0,0.0,0.0,0.0,0.0,0.0,0.0,0.0,0.0,0.0,0.0,0.0,0.0,0.0,0.0,0.0,0.0,0.0,0.0,0.0,0.0,0.0,0.0,0.0,0.0,0.0,0.0,0.0,0.0,0.0,0.0,0.0,0.0,0.0,0.0,0.0,0.0,0.0,0.0,0.0,0.0,0.0,0.0,0.0,0.0,0.0,0.0,0.0,0.0,0.0,0.0,0.0,0.0,0.0,0.0,0.0,0.0,0.0,0.0,0.0,0.0,0.0,0.0,0.0,0.0,0.0,0.0,0.0,0.0,0.0,0.0,0.0,0.0,0.0,0.0,0.0,0.0,0.0,0.0,0.0,0.0,0.0,0.0,0.0,0.0,0.0,0.0,0.0,0.0,0.0,0.0,0.0,0.0,0.0,0.0,0.0,0.0,0.0,0.0,0.0,0.0,0.0,0.0,0.0,0.0,0.0,0.0,0.0,0.0,0.0,0.0,0.0,0.0,0.0,0.0,0.0,0.0,0.0,0.0,0.0,0.0,0.0,0.0,0.0,0.0,0.0,0.0,0.0,0.0,0.0,0.0,0.0,0.0,0.0,0.0,0.0,0.0,0.0,0.0,0.0,0.0,0.0,0.0,0.0,0.0,0.0,0.0,0.0,0.0,0.0,0.0,0.0,0.0,0.0,0.0,0.0,0.0,0.0,0.0,0.0,0.0,0.0,0.0,0.0,0.0,0.0,0.0,0.0,0.0,0.0,0.0,0.0,0.0,0.0,0.0,0.0,0.0,0.0,0.0,0.0,0.0,0.0,0.0,0.0,0.0,0.0,0.0,0.0,0.0,0.0,0.0,0.0,0.0,0.0,0.0,0.0,0.0,0.0,0.0,0.0,0.0,0.0,0.0,0.0,0.0,0.0,0.0,0.0,0.0,0.0,0.0,0.0,0.0,0.0,0.0,0.0,0.0,0.0,0.0,0.0,0.0,0.0,0.0,0.0,0.0,0.0,0.0,0.0,0.0,0.0,0.0,0.0,0.0,0.0,0.0,0.0,0.0,0.0,0.0,0.0,0.0,0.0,0.0,0.0,0.0,0.0,0.0,0.0,0.0,0.0,0.0,0.0,0.0,0.0,0.0,0.0,0.0,0.0,0.0,0.0,0.0,0.0,0.0,0.0,0.0,0.0,0.0,0.0,0.0,0.0,0.0,0.0,0.0,0.0,0.0,0.0,0.0,0.0,0.0,0.0,0.0,0.0,0.0,0.0,0.0,0.0,0.0,0.0,0.0,0.0,0.0,0.0,0.0,5.1841,0.0,0.0,0.0,0.0,0.0,0.0,0.0,0.0,0.0,0.0,0.0,0.0,0.0,0.0,0.0,0.0,0.0,0.0,0.0,0.0,0.0,0.0,0.0,0.0,2.5407,2.5758,2.6573,2.6626,0.0,0.0,0.0,0.0,0.0,0.0,0.0,0.0,0.0,0.0,0.0,0.0,0.0,3.7199,3.6353,3.5468,0.0,0.0,0.0,0.0,0.0,0.0,0.0,0.0,0.0,0.0,0.0,0.0,0.0,0.0,0.0,0.0,0.0,0.0,0.0,0.0,0.0,0.0,0.0,0.0,0.0,0.0,0.0,0.0,0.0,0.0,0.0,0.0,0.0,0.0,0.0,0.0,0.0,0.0,0.0,0.0,0.0,0.0,0.0,0.0,0.0,0.0,0.0,0.0,0.0,0.0,0.0,0.0,0.0,0.0,0.0,0.0,0.0,0.0,0.0,0.0,0.0,0.0,0.0,0.0,0.0,0.0,0.0,0.0,0.0,0.0,0.0,0.0,5.2482,0.0,0.0,0.0,0.0,0.0,0.0,0.0,0.0,0.0,0.0,0.0,0.0,0.0,0.0,0.0,0.0,0.0,0.0,0.0,0.0,0.0,2.5225,2.6532,2.6806,2.7395,2.8655,2.8817,2.8956,2.915,2.9319,0.0,0.0,0.0,0.0,0.0,0.0,0.0,0.0,0.0,0.0,0.0,0.0,0.0,0.0,0.0,0.0,0.0,0.0,0.0,0.0,0.0,0.0,0.0,0.0,0.0,0.0,0.0,0.0,0.0,0.0,0.0,0.0,0.0,0.0,0.0,0.0,0.0,0.0,0.0,0.0,0.0,0.0,0.0,0.0,0.0,0.0,0.0,0.0,0.0,0.0,0.0,0.0,0.0,0.0,0.0,0.0,0.0,0.0,0.0,0.0,0.0,0.0,0.0,0.0,0.0,0.0,0.0,0.0,0.0,0.0,0.0,0.0,0.0,0.0,0.0,0.0,0.0,0.0,5.7426,5.7931,5.8657,5.8744,5.9065,5.949,5.7271,5.6304,5.6152,5.4173,0.0,0.0,0.0,0.0,0.0,0.0,0.0,0.0,0.0,0.0,0.0,0.0,0.0,0.0,0.0,0.0,0.0,0.0,0.0,2.6376,2.6597,2.7258,2.7478,2.7001,2.7589,2.8064,2.8257,2.8986,0.0,0.0,0.0,0.0,0.0,0.0,0.0,0.0,0.0,0.0,4.2777,0.0,0.0,0.0,0.0,0.0,0.0,0.0,0.0,0.0,0.0,0.0,0.0,0.0,0.0,0.0,0.0,0.0,0.0,0.0,0.0,0.0,0.0,0.0,0.0,0.0,0.0,0.0,0.0,0.0,0.0,0.0,0.0,0.0,0.0,0.0,0.0,0.0,0.0,0.0,0.0,0.0,0.0,0.0,0.0,0.0,0.0,0.0,4.6817,4.7509,0.0,0.0,0.0,0.0,0.0,0.0,0.0,0.0,0.0,0.0,0.0,0.0,0.0,5.5788,5.6682,5.8445,5.9746,6.0657,6.2121,6.2846,6.2976,6.2976,6.3118,6.3273,6.2941,0.0,5.6347,5.6736,0.0,0.0,0.0,0.0,0.0,0.0,0.0,0.0,0.0,0.0,0.0,0.0,0.0,0.0,0.0,0.0,0.0,0.0,0.0,0.0,0.0,3.0026,3.0748,3.1385,3.2194,3.2465,3.2154,3.2497,0.0,0.0,0.0,0.0,0.0,0.0,0.0,0.0,0.0,0.0,0.0,0.0,0.0,0.0,0.0,0.0,0.0,0.0,0.0,0.0,0.0,0.0,0.0,0.0,0.0,0.0,0.0,0.0,0.0,0.0,0.0,0.0,0.0,0.0,0.0,0.0,0.0,0.0,0.0,0.0,0.0,0.0,0.0,0.0,0.0,0.0,0.0,0.0,0.0,0.0,0.0,0.0,0.0,0.0,0.0,0.0,0.0,4.6701,4.7394,4.8663,4.924,4.9702,0.0,0.0,0.0,0.0,0.0,0.0,0.0,0.0,0.0,5.728,5.8588,5.9798,6.0788,6.1562,6.2194,6.2701,6.3521,6.3908,6.3908,6.4023,6.4107,6.4177,6.4177,6.2896,6.0789,6.0672,6.0255,5.9651,0.0,0.0,0.0,0.0,6.0915,6.0759,0.0,0.0,0.0,0.0,0.0,0.0,0.0,0.0,0.0,0.0,0.0,0.0,3.1581,3.2842,3.4007,3.5091,3.5938,3.6178,3.5658,3.6054,3.6646,0.0,0.0,0.0,0.0,0.0,0.0,0.0,0.0,0.0,0.0,0.0,0.0,0.0,0.0,0.0,0.0,0.0,0.0,0.0,0.0,0.0,0.0,0.0,0.0,0.0,0.0,0.0,0.0,0.0,0.0,0.0,0.0,0.0,0.0,0.0,0.0,0.0,0.0,0.0,0.0,0.0,0.0,0.0,0.0,0.0,0.0,0.0,0.0,0.0,0.0,0.0,0.0,0.0,0.0,0.0,0.0,4.8279,4.8817,5.051,5.1279,5.1818,0.0,0.0,0.0,0.0,0.0,0.0,5.6973,5.8434,5.9627,6.0435,6.1743,6.2898,6.3903,6.3903,6.4075,6.4435,6.4779,6.4955,6.4997,6.5379,6.5568,6.5585,6.5585,6.5585,6.5507,6.3945,6.3321,6.3321,6.3321,6.3321,6.3355,6.3467,6.3912,6.4341,0.0,0.0,0.0,0.0,0.0,0.0,0.0,0.0,0.0,0.0,0.0,3.3283,3.2698,3.476,3.5938,3.5266,3.5938,3.6427,3.6541,3.8085,3.8789,0.0,0.0,0.0,0.0,0.0,0.0,0.0,0.0,0.0,0.0,0.0,0.0,0.0,0.0,0.0,0.0,0.0,0.0,0.0,0.0,0.0,0.0,0.0,0.0,0.0,0.0,0.0,0.0,0.0,0.0,0.0,0.0,0.0,0.0,0.0,0.0,0.0,0.0,0.0,0.0,0.0,0.0,0.0,0.0,0.0,0.0,0.0,0.0,0.0,0.0,0.0,0.0,0.0,0.0,0.0,0.0,0.0,0.0,5.4049,5.428,0.0,0.0,0.0,0.0,5.6857,5.8396,5.9665,6.0512,6.1396,6.2281,6.3089,6.3205,6.3708,6.4715,6.4754,6.5198,6.6198,6.7014,6.7528,6.7725,6.8504,6.8951,6.9137,6.9137,6.9137,6.8903,6.5585,6.4219,6.4219,6.4219,6.4219,6.4336,6.515,6.5463,6.5619,0.0,0.0,0.0,2.419,2.419,2.4373,2.4887,2.6319,2.786,2.9182,3.2463,3.4613,3.4344,3.6989,3.8456,3.7645,3.8789,3.9372,3.8884,3.9639,3.9789,0.0,0.0,0.0,0.0,0.0,0.0,0.0,0.0,0.0,0.0,0.0,0.0,0.0,0.0,0.0,0.0,0.0,0.0,0.0,0.0,0.0,0.0,0.0,0.0,0.0,0.0,0.0,0.0,0.0,0.0,0.0,0.0,0.0,0.0,0.0,0.0,0.0,0.0,0.0,0.0,0.0,0.0,0.0,0.0,0.0,0.0,0.0,0.0,0.0,0.0,0.0,0.0,0.0,0.0,0.0,0.0,0.0,0.0,5.4357,5.5434,0.0,5.7703,5.8819,5.9665,6.0242,6.132,6.2089,6.2397,6.3243,6.382,6.4128,6.5166,6.5909,6.6275,6.683,6.7301,6.7663,6.8044,6.8368,6.8539,6.8939,6.9224,6.9411,6.9411,6.9411,6.9294,6.8083,6.7576,6.7576,6.7576,6.7576,6.7615,6.7927,6.8044,6.8083,0.0,0.0,0.0,2.419,2.419,2.4557,2.5621,2.7163,2.8998,3.1127,3.4107,3.6224,3.6748,3.9017,4.0376,4.0087,4.1046,4.1193,4.0093,4.1109,4.1199,0.0,0.0,0.0,0.0,0.0,0.0,0.0,0.0,0.0,0.0,0.0,0.0,0.0,0.0,0.0,0.0,0.0,0.0,0.0,0.0,0.0,4.4426,0.0,0.0,0.0,0.0,0.0,0.0,0.0,0.0,0.0,0.0,0.0,0.0,0.0,0.0,0.0,0.0,0.0,0.0,0.0,0.0,0.0,0.0,0.0,0.0,0.0,0.0,0.0,0.0,0.0,0.0,0.0,0.0,0.0,0.0,0.0,5.4895,5.6049,5.7434,5.8742,5.9896,6.0973,6.2012,6.2858,6.3435,6.4012,6.4551,6.5128,6.559,6.5859,6.6974,6.7552,6.7552,6.8398,6.8873,6.8897,6.9601,7.006,7.029,7.0692,7.094,7.1128,7.1128,7.1128,7.1128,7.1128,7.1128,7.1011,6.984,6.9411,6.9411,6.9411,6.9411,6.945,0.0,0.0,2.419,2.419,2.4226,2.4777,2.6392,2.8007,3.021,3.3403,3.6021,3.8184,3.9804,4.0787,4.1636,4.2345,4.2423,4.1728,4.012,4.2594,4.3058,0.0,0.0,0.0,0.0,0.0,0.0,0.0,0.0,0.0,0.0,0.0,0.0,0.0,0.0,0.0,0.0,0.0,0.0,0.0,0.0,0.0,4.8642,0.0,0.0,0.0,0.0,0.0,0.0,0.0,0.0,0.0,0.0,0.0,0.0,0.0,0.0,0.0,0.0,0.0,0.0,0.0,0.0,0.0,0.0,0.0,0.0,0.0,0.0,0.0,0.0,0.0,0.0,0.0,0.0,0.0,5.4741,5.6049,5.7742,5.9396,6.0358,6.1512,6.3166,6.3358,6.3743,6.4628,6.4705,6.5436,6.7051,6.7128,6.7552,6.8398,6.8475,6.8475,6.8513,6.9386,6.9924,7.0057,7.1739,7.2732,7.3075,7.3893,7.4372,7.4525,7.4525,7.4564,7.4564,7.4564,7.4564,7.4251,7.0855,6.9567,6.9567,6.9567,6.9567,6.9684,2.419,2.419,2.419,2.419,2.4667,2.5585,2.72,2.8851,3.0858,3.3592,3.6085,3.8022,3.9172,4.1065,4.2327,4.2447,4.2934,4.3048,4.2543,4.3484,4.3962,0.0,0.0,0.0,0.0,0.0,0.0,0.0,0.0,0.0,0.0,0.0,0.0,0.0,0.0,0.0,0.0,0.0,0.0,0.0,0.0,0.0,4.9696,0.0,0.0,0.0,0.0,0.0,0.0,0.0,0.0,0.0,0.0,0.0,0.0,0.0,0.0,0.0,0.0,0.0,0.0,0.0,0.0,0.0,0.0,0.0,0.0,0.0,0.0,0.0,0.0,0.0,0.0,0.0,0.0,5.8165,5.7357,5.8704,6.0165,6.1243,6.2127,6.3051,6.4128,6.482,6.5513,6.6359,6.7013,6.7552,6.8013,6.8052,6.8436,6.9321,7.0064,7.0738,7.1356,7.2306,7.2851,7.2867,7.3371,7.3721,7.3971,7.4205,7.4723,7.5423,7.5423,7.5813,7.6399,7.6399,7.6399,7.6164,7.3978,7.308,7.308,7.308,7.308,7.3119,2.419,2.4209,2.4191,2.4191,2.4909,2.6107,2.8095,2.9435,3.1532,3.5071,3.6473,3.7977,4.0207,4.1434,4.2295,4.2926,4.3306,4.3272,4.2543,4.3237,0.0,0.0,0.0,0.0,0.0,0.0,0.0,0.0,0.0,0.0,0.0,0.0,0.0,0.0,0.0,0.0,0.0,0.0,0.0,0.0,0.0,0.0,5.1687,5.1336,5.036,4.9032,4.7783,4.7073,4.6538,4.4967,0.0,0.0,0.0,0.0,0.0,0.0,0.0,0.0,0.0,0.0,0.0,0.0,0.0,0.0,0.0,0.0,0.0,0.0,0.0,0.0,0.0,0.0,0.0,0.0,6.005,6.0666,6.0896,6.1473,6.2166,6.3051,6.3897,6.4705,6.5551,6.6436,6.7128,6.7628,6.8436,6.909,6.9436,6.9849,7.0502,7.1351,7.2031,7.2619,7.3123,7.4438,7.5105,7.522,7.5921,7.6378,7.6565,7.6565,7.6872,7.7414,7.7414,7.7726,7.8194,7.8194,7.8194,0.0,0.0,0.0,0.0,0.0,7.5579,7.5657,2.4209,2.4284,2.4302,2.4229,2.5004,2.6445,2.8809,2.9908,3.2195,3.7082,3.7008,3.8071,4.2068,4.181,4.1931,4.3487,4.3566,4.2944,4.1654,0.0,0.0,0.0,0.0,0.0,0.0,0.0,0.0,0.0,0.0,0.0,0.0,0.0,0.0,0.0,0.0,0.0,0.0,0.0,0.0,0.0,0.0,0.0,5.4225,5.3401,5.2503,5.1492,4.9805,4.861,4.7696,4.6659,0.0,0.0,0.0,0.0,0.0,0.0,0.0,0.0,0.0,0.0,0.0,0.0,0.0,0.0,0.0,0.0,0.0,0.0,0.0,0.0,0.0,0.0,0.0,0.0,6.1858,6.2974,6.4666,6.4205,6.4012,6.4782,6.5551,6.6359,6.7167,6.8129,6.8706,6.8706,6.9578,7.0452,7.1183,0.0,0.0,0.0,0.0,7.4405,7.46,7.6171,7.7025,7.7228,7.8698,7.953,7.9717,7.9717,7.9756,7.9834,7.9834,7.9912,7.999,7.999,7.999,7.9834,7.8077,7.7375,7.7375,7.7375,7.7375,7.7492,2.4284,2.4782,2.5059,2.4395,2.5465,2.7052,2.8854,3.0388,3.2908,3.7147,3.7008,3.8099,4.2291,4.1841,4.1899,4.3623,4.36,4.3778,0.0,0.0,0.0,0.0,0.0,0.0,0.0,0.0,0.0,0.0,0.0,0.0,0.0,0.0,0.0,0.0,0.0,0.0,0.0,0.0,0.0,0.0,0.0,0.0,5.6055,5.573,5.4729,5.3362,5.2214,5.1211,5.0338,4.9391,4.8516,4.7781,4.7447,0.0,0.0,0.0,0.0,0.0,0.0,0.0,0.0,0.0,0.0,0.0,0.0,0.0,0.0,0.0,0.0,0.0,0.0,0.0,0.0,6.3435,6.4012,6.4705,6.6359,6.6474,6.6436,6.659,6.6782,6.7205,6.809,6.9513,7.0437,7.0437,7.1954,7.3002,7.3157,7.351,7.4438,7.5991,7.6232,7.6975,7.8338,7.8857,7.9135,7.9151,0.0,0.0,7.9717,7.9717,8.0068,8.0732,8.0732,8.1161,8.1786,8.1786,8.1786,8.163,7.9873,7.9209,7.9209,7.9209,7.9209,7.9209,2.456,2.469,2.4801,2.4395,2.5727,2.7338,2.9021,3.0627,3.2834,3.6155,3.6202,3.7229,4.0606,4.0422,4.096,4.3093,4.348,4.4313,0.0,0.0,0.0,0.0,0.0,0.0,0.0,0.0,0.0,0.0,0.0,0.0,0.0,0.0,0.0,0.0,0.0,0.0,0.0,0.0,0.0,0.0,0.0,0.0,5.8208,5.7282,5.6152,5.4927,5.4022,5.3146,5.2308,5.1761,5.1276,5.0742,5.0182,4.974,4.924,0.0,0.0,0.0,0.0,0.0,0.0,0.0,0.0,0.0,0.0,0.0,0.0,0.0,0.0,5.8165,0.0,0.0,6.2627,6.432,6.5282,6.6128,6.6974,6.7475,6.7744,6.7744,6.8475,6.9167,6.9629,7.1206,7.2223,7.2302,7.3582,7.4569,7.51,7.5727,7.6636,7.7959,7.8202,7.8681,7.9539,8.0087,8.0341,8.0341,8.0771,8.1005,8.1005,8.1005,8.1239,8.1669,8.1669,8.1903,8.2293,8.2293,8.2293,8.2215,8.1356,8.1005,8.1005,8.1005,8.1005,8.1005,2.476,2.4465,2.4412,2.4412,2.5801,2.7454,2.9126,3.0717,3.2683,3.5342,3.5539,3.6356,3.8822,3.9036,3.9904,4.2236,4.3393,0.0,0.0,0.0,0.0,0.0,0.0,0.0,0.0,0.0,0.0,0.0,0.0,0.0,0.0,0.0,0.0,0.0,0.0,0.0,0.0,0.0,0.0,0.0,0.0,0.0,6.0056,5.8581,5.7325,5.6265,5.5578,5.4685,5.3818,5.3685,5.3503,5.3219,5.2396,5.1702,5.0894,4.9317,4.8856,0.0,0.0,0.0,0.0,0.0,0.0,0.0,0.0,0.0,5.5934,5.7627,5.8665,5.9742,6.1243,6.2627,6.3897,6.4936,6.6205,6.7205,6.7552,6.8359,6.8936,6.9129,7.0167,7.1041,7.1402,7.2866,7.3922,7.4259,7.5098,7.6051,7.7088,7.7949,7.8787,7.9684,7.9885,8.0029,8.0185,8.0888,8.1239,8.1278,8.1942,8.2293,8.2293,8.2293,8.2293,8.2293,8.2293,8.2293,8.2293,8.2293,8.2293,8.2293,8.2293,8.2293,8.2293,8.2293,8.2293,8.2293,2.4537,2.45,2.4482,2.4482,2.5838,2.7454,2.9063,3.0739,3.2929,3.607,3.5899,3.6408,3.8822,3.9036,3.9653,4.1329,4.3545,0.0,0.0,0.0,0.0,0.0,0.0,0.0,0.0,0.0,0.0,0.0,0.0,0.0,0.0,0.0,0.0,0.0,0.0,0.0,0.0,0.0,0.0,0.0,0.0,0.0,6.0807,5.9895,5.8583,5.7236,5.7024,5.593,5.4575,5.4559,5.3974,5.3184,5.3087,5.301,5.2741,5.1779,0.0,5.1433,5.1241,0.0,0.0,5.4895,5.5203,5.5934,0.0,0.0,5.9435,6.1166,6.2166,6.3051,6.4012,6.432,6.4974,6.6551,6.6974,6.7628,6.9206,7.0129,7.0898,7.1668,7.1245,7.1544,7.3219,7.4262,7.5227,7.6185,7.7205,7.8131,7.9052,7.9353,7.9899,8.0797,8.0849,8.1239,8.202,8.2098,8.2137,8.2176,8.2254,8.2293,8.2293,8.2293,8.2293,8.2293,8.2293,8.2293,8.2293,8.2293,8.2293,8.2293,8.2293,8.2293,8.2293,8.2293,8.2293,8.2293,2.4574,2.45,2.45,2.45,2.5838,2.7454,2.9105,3.0761,3.2618,3.4897,3.4959,3.533,3.6816,3.8238,3.9546,4.0704,4.2594,0.0,0.0,0.0,0.0,0.0,0.0,0.0,0.0,0.0,0.0,0.0,0.0,0.0,0.0,0.0,0.0,0.0,0.0,0.0,0.0,0.0,0.0,0.0,0.0,0.0,6.0783,5.9973,5.8934,5.7834,5.7294,5.6309,0.0,0.0,5.5016,5.4685,5.4728,5.4766,5.4612,5.3781,5.384,0.0,5.4744,0.0,0.0,0.0,5.828,5.9088,6.0627,6.1012,6.1512,6.3205,6.382,6.432,6.5205,6.5743,6.6282,0.0,6.7936,6.9013,7.0244,7.1129,7.2129,7.3514,7.3446,7.3572,7.4386,7.5756,7.6845,7.7414,7.8338,7.9294,8.0289,8.0407,8.0849,8.1747,8.1747,8.1942,8.2293,8.2762,8.2762,8.2293,8.2762,8.2762,8.2293,8.2293,8.2293,8.2293,8.2293,8.2293,8.2293,8.2293,8.2293,8.2293,8.2293,8.2293,8.2293,8.2293,8.2293,8.2293,2.528,2.4983,2.4834,2.4834,2.6172,2.7734,2.9184,3.0946,3.2618,3.403,3.4179,3.4513,3.5404,3.7448,3.9008,3.964,4.1356,4.2767,0.0,0.0,0.0,0.0,0.0,0.0,0.0,0.0,0.0,0.0,0.0,0.0,0.0,0.0,0.0,0.0,0.0,0.0,0.0,0.0,0.0,0.0,0.0,0.0,6.005,5.9396,5.8511,5.755,5.7396,5.678,0.0,0.0,5.6263,5.6135,5.6212,5.6227,5.6089,5.5277,5.5745,5.6753,5.7478,0.0,0.0,5.9896,6.0858,6.1704,6.2589,6.2781,6.3205,6.4666,6.4974,6.5205,6.6051,6.6705,6.7244,6.7744,6.9052,7.0321,7.1129,7.2206,7.335,7.4626,7.531,7.573,7.5857,7.7075,7.8154,7.8837,7.9471,8.028,8.1317,8.1356,8.1669,8.2293,8.2293,8.2411,8.2645,8.3191,8.3347,8.2996,8.3582,8.3543,8.2996,8.2996,8.2996,8.2996,8.2996,8.2996,8.2957,8.2723,8.2762,8.2957,8.2723,8.2762,8.2996,8.2996,8.2684,8.2332,2.6842,2.621,2.5652,2.5652,2.699,2.8366,2.9258,3.1429,3.325,3.4067,3.4179,3.4513,3.5404,3.6965,3.7931,3.7968,4.0177,4.189,4.2797,0.0,0.0,0.0,0.0,0.0,0.0,0.0,0.0,0.0,0.0,0.0,0.0,0.0,0.0,0.0,0.0,0.0,0.0,0.0,0.0,0.0,0.0,0.0,5.8357,5.8357,5.728,5.6011,5.7665,0.0,0.0,0.0,5.7674,5.7155,5.7061,5.7119,0.0,5.6128,5.6985,0.0,0.0,0.0,6.1935,6.2012,6.2627,6.3474,6.432,6.4512,6.4782,6.5667,6.5859,6.609,6.6898,6.709,6.7628,6.936,7.0321,7.1168,7.2052,7.3591,7.4742,7.4958,7.6436,7.7581,0.0,7.8051,7.8876,8.0765,8.0927,8.1317,8.2215,8.2254,8.2254,8.2293,8.2293,8.2684,8.3465,8.3504,8.3894,8.4714,8.4753,8.4753,8.4714,8.4714,8.4714,8.4714,8.4714,8.4714,8.4675,8.3816,8.3972,8.4636,8.3777,8.3972,8.4714,8.4714,8.3699,8.2411,2.6916,2.6693,2.6656,2.7213,2.8663,3.0039,3.0894,3.2135,3.3287,3.4067,3.4179,0.0,0.0,0.0,0.0,0.0,3.9129,4.028,4.1163,4.3175,4.4798,0.0,0.0,0.0,0.0,0.0,0.0,0.0,0.0,0.0,0.0,0.0,0.0,0.0,0.0,0.0,0.0,0.0,0.0,0.0,0.0,5.8371,5.8165,5.7011,5.6549,5.6549,0.0,0.0,0.0,0.0,0.0,0.0,5.7904,5.8445,5.8858,5.9186,5.9608,0.0,0.0,0.0,6.3051,6.3628,6.4397,6.5089,6.5397,6.5474,6.5551,6.582,6.632,6.6782,6.7051,6.8052,6.9013,6.959,7.086,7.2052,7.2937,7.4014,7.5159,7.6388,7.7112,0.0,0.0,0.0,0.0,8.0921,8.1552,8.1981,8.2293,8.2293,8.2293,8.2293,8.2801,8.323,8.3504,8.4636,8.5065,8.4792,8.4792,8.4792,8.4792,8.4792,8.4792,8.4831,8.5416,8.5651,8.5651,8.5338,8.5729,8.6431,8.5573,8.5416,8.5651,8.5651,8.4948,8.4011,2.7808,2.7808,2.7957,2.8477,2.9927,0.0,0.0,0.0,0.0,0.0,0.0,0.0,0.0,0.0,0.0,0.0,0.0,3.9008,3.9863,4.1943,4.328,4.354,0.0,0.0,0.0,0.0,0.0,0.0,0.0,0.0,0.0,0.0,0.0,0.0,0.0,0.0,0.0,0.0,0.0,5.7911,5.7039,5.683,5.677,5.4706,5.4241,0.0,0.0,0.0,0.0,0.0,0.0,0.0,0.0,5.8639,5.9611,6.1695,6.2012,0.0,0.0,6.382,6.4359,6.4936,6.5474,6.5897,6.5897,6.5897,6.5897,6.5897,6.6551,6.7205,6.7513,6.8744,6.9783,7.009,7.1552,7.286,7.3437,7.4476,7.5754,7.728,7.778,7.8667,0.0,0.0,0.0,8.1467,8.1981,8.2293,8.2293,8.2293,8.2293,8.2293,8.3074,8.366,8.3972,8.5377,8.5963,8.5729,8.5729,8.5885,8.6197,8.6197,8.6353,8.6705,8.7251,8.7486,8.7486,8.7173,8.7525,8.8227,8.7368,8.7212,8.7486,8.7486,8.7134,8.651,2.9407,2.9444,2.9481,0.0,0.0,0.0,0.0,0.0,0.0,0.0,0.0,0.0,0.0,0.0,0.0,0.0,0.0,0.0,3.8971,4.0568,0.0,4.2649,0.0,0.0,0.0,0.0,0.0,0.0,0.0,0.0,0.0,0.0,0.0,0.0,5.5088,5.5518,5.5702,5.6515,5.6924,5.6822,5.4289,5.3785,5.4233,5.1606,0.0,0.0,0.0,0.0,0.0,0.0,0.0,0.0,0.0,0.0,5.9495,6.3469,6.4051,6.3782,6.5436,6.5897,6.5897,6.5897,6.5897,6.5897,6.5897,6.5897,6.5897,6.5897,6.6551,6.7359,0.0,0.0,6.9975,7.0783,7.236,7.3514,7.3514,7.4938,7.6469,0.0,0.0,0.0,0.0,0.0,0.0,8.2287,0.0,8.2293,8.2293,8.2293,8.2293,8.2293,8.3074,8.3933,8.4792,8.5729,8.6588,8.7407,8.7446,8.7915,8.8696,8.8735,8.9203,8.9984,9.0062,9.0062,8.9984,8.9164,8.932,9.0023,8.9125,8.9281,8.9984,8.9945,8.9906,8.9516,0.0,0.0,0.0,0.0,0.0,0.0,0.0,0.0,0.0,0.0,0.0,0.0,0.0,0.0,0.0,0.0,0.0,0.0,3.8116,0.0,0.0,0.0,0.0,0.0,0.0,0.0,0.0,0.0,0.0,0.0,0.0,0.0,0.0,0.0,5.1856,5.201,5.2128,5.2457,5.2535,5.2438,0.0,5.1648,5.1567,0.0,0.0,0.0,0.0,0.0,0.0,0.0,0.0,0.0,0.0,0.0,6.239,6.4114,0.0,6.532,6.5782,6.5897,6.5897,6.5897,6.5897,6.5897,6.5897,6.5897,6.5897,6.5897,6.6551,6.7359,0.0,0.0,0.0,7.0783,7.236,0.0,7.3514,7.4938,0.0,0.0,0.0,7.9562,8.1544,8.1894,0.0,0.0,8.2293,8.2293,8.2293,8.2293,8.2293,8.2293,8.3074,8.3933,8.4792,8.6314,8.7173,8.7407,8.8071,8.8461,8.8735,8.9359,8.9789,9.0023,9.0687,9.096,9.096,9.0726,9.1116,9.1702,9.0257,8.9789,8.9906,8.9281,8.8618,8.7954,0.0,0.0,0.0,0.0,0.0,0.0,0.0,0.0,0.0,0.0,0.0,0.0,0.0,0.0,0.0,0.0,0.0,0.0,0.0,0.0,0.0,0.0,0.0,0.0,0.0,0.0,0.0,0.0,0.0,0.0,0.0,0.0,0.0,4.9009,4.9009,4.9504,5.0264,0.0,0.0,0.0,0.0,0.0,0.0,0.0,0.0,0.0,0.0,0.0,0.0,0.0,0.0,5.8757,6.0858,6.1834,6.2512,6.4128,0.0,6.5397,6.5782,6.5897,6.5897,6.5897,6.5897,6.5897,6.5897,6.5897,6.6013,6.6359,6.6782,0.0,0.0,0.0,0.0,0.0,0.0,0.0,7.3437,7.4703,7.634,0.0,7.8959,0.0,8.1819,8.2073,8.2171,0.0,8.2293,8.2293,8.2293,8.2293,8.2293,8.2293,8.3465,8.4675,8.5924,8.729,8.7954,8.7993,8.8852,8.9477,8.9867,9.0335,9.0765,9.1116,0.0,9.1311,9.1272,9.0882,9.0999,9.1311,9.0374,8.9984,8.9945,8.9437,8.8969,8.854,0.0,0.0,0.0,0.0,0.0,0.0,0.0,0.0,0.0,0.0,0.0,0.0,0.0,0.0,0.0,0.0,0.0,0.0,0.0,0.0,0.0,0.0,0.0,0.0,0.0,0.0,0.0,0.0,0.0,0.0,0.0,0.0,0.0,0.0,0.0,0.0,0.0,0.0,0.0,0.0,0.0,0.0,0.0,0.0,0.0,0.0,0.0,0.0,0.0,0.0,5.6703,5.8434,6.0242,6.0935,6.155,6.3782,6.4589,6.4936,6.5705,6.5897,6.5897,6.5897,6.5897,6.5897,6.5897,6.5897,6.6128,6.6936,0.0,0.0,6.9206,0.0,6.9667,7.0591,0.0,7.236,7.336,7.4347,7.591,7.8534,7.9148,8.0065,8.1855,8.2218,8.2293,8.2293,8.2293,8.2293,8.2293,8.2293,8.2332,8.245,8.3972,8.5573,8.7212,8.8071,8.8579,8.8696,8.9594,9.0452,9.1311,9.1428,9.178,9.2287,9.1585,0.0,9.1077,9.0296,8.9984,8.9984,8.9867,8.9828,8.9828,8.9711,8.9633,8.9633,0.0,0.0,0.0,0.0,0.0,0.0,0.0,3.4179,3.4439,3.5182,3.4661,3.4179,0.0,0.0,0.0,0.0,0.0,0.0,0.0,0.0,0.0,0.0,0.0,0.0,0.0,0.0,0.0,0.0,0.0,0.0,0.0,0.0,0.0,0.0,0.0,0.0,0.0,0.0,0.0,0.0,0.0,0.0,0.0,0.0,0.0,0.0,0.0,0.0,0.0,0.0,5.5818,5.7665,6.005,6.1743,6.2974,6.3397,6.4551,6.5705,6.5859,6.5897,6.5897,6.5897,6.5897,6.5897,6.5897,6.5897,0.0,0.0,0.0,6.6628,6.8321,0.0,0.0,6.9667,0.0,0.0,0.0,0.0,7.5826,0.0,0.0,0.0,0.0,0.0,0.0,0.0,0.0,8.2293,8.2293,8.2293,8.2606,8.3269,8.4284,8.5299,8.6314,8.7173,8.7993,8.8696,8.9594,9.0452,9.1311,9.1975,9.2014,9.1507,9.135,0.0,9.0218,9.0062,8.9984,8.9945,8.9203,8.893,8.8852,8.811,8.7837,8.7837,0.0,0.0,0.0,0.0,0.0,0.0,0.0,3.5144,3.533,3.6556,3.5999,3.533,3.4922,3.4476,3.4179,0.0,0.0,0.0,0.0,0.0,0.0,0.0,0.0,0.0,0.0,0.0,0.0,0.0,0.0,0.0,0.0,0.0,0.0,0.0,0.0,0.0,0.0,0.0,0.0,0.0,0.0,0.0,0.0,0.0,0.0,0.0,0.0,0.0,0.0,0.0,5.5164,5.805,6.0127,6.1935,6.332,6.332,6.4551,6.5897,6.5897,6.5897,6.5897,6.5897,6.5897,6.5897,6.5897,0.0,0.0,0.0,0.0,6.6397,6.809,0.0,0.0,0.0,0.0,0.0,0.0,0.0,0.0,0.0,0.0,0.0,0.0,0.0,0.0,0.0,0.0,8.2293,8.2293,8.2293,8.2879,8.4128,8.4597,8.5651,8.7446,8.8305,8.9203,9.0062,9.0882,9.1507,9.1936,9.2326,9.2053,9.1272,9.0804,0.0,8.9281,8.8813,8.8657,8.8618,8.8188,8.8032,8.7954,8.7564,8.7407,8.7407,0.0,0.0,0.0,0.0,0.0,0.0,0.0,3.6036,3.6259,3.7708,3.7336,3.6705,3.6073,3.5107,3.4476,0.0,0.0,0.0,0.0,0.0,0.0,0.0,0.0,0.0,0.0,0.0,0.0,0.0,0.0,0.0,0.0,0.0,0.0,0.0,0.0,0.0,0.0,0.0,0.0,0.0,0.0,0.0,0.0,0.0,0.0,0.0,0.0,0.0,0.0,0.0,5.4395,5.7857,5.9896,6.1666,6.3051,6.3051,6.4282,6.5667,6.5859,6.5897,6.5897,6.5897,6.5897,6.5897,6.5897,6.5897,0.0,0.0,0.0,0.0,0.0,0.0,0.0,0.0,0.0,0.0,0.0,0.0,0.0,0.0,0.0,0.0,0.0,0.0,0.0,0.0,0.0,0.0,8.2293,8.2293,8.3074,8.4753,8.4987,8.6236,8.8696,8.9555,9.0452,9.1311,9.1936,9.2326,9.2482,9.2326,9.1819,9.096,9.0101,0.0,0.0,8.7681,8.7407,8.7407,8.7407,8.7407,8.7407,8.7407,8.7407,8.7407,0.0,0.0,0.0,0.0,0.0,0.0,0.0,3.6147,3.6891,3.7782,3.7819,3.7745,3.7671,3.6296,3.5367,0.0,0.0,0.0,0.0,0.0,0.0,0.0,0.0,0.0,0.0,0.0,0.0,0.0,0.0,0.0,0.0,0.0,0.0,0.0,0.0,0.0,0.0,0.0,0.0,0.0,0.0,0.0,0.0,0.0,0.0,0.0,0.0,0.0,0.0,0.0,0.0,5.5395,5.8627,6.0819,6.2204,6.2204,0.0,0.0,6.5667,6.5897,6.5897,6.5897,6.5897,6.5897,6.5897,0.0,0.0,0.0,6.6436,6.6167,0.0,0.0,0.0,0.0,0.0,6.9398,0.0,0.0,0.0,0.0,0.0,0.0,0.0,0.0,0.0,0.0,0.0,0.0,8.2293,8.2293,8.3074,8.4753,8.5573,8.6861,8.8696,8.9555,9.0452,9.1311,9.1389,9.178,9.2482,9.1741,9.0921,9.0062,8.9203,0.0,0.0,8.7446,8.7407,8.7407,8.7407,8.7407,8.7407,8.7407,8.7407,8.7407,0.0,0.0,0.0,0.0,0.0,0.0,3.6184,3.6211,3.6684,3.8484,3.8245,3.8079,3.8562,3.7634,3.6742,3.6259,0.0,0.0,0.0,0.0,0.0,0.0,0.0,0.0,0.0,0.0,0.0,0.0,0.0,0.0,0.0,0.0,0.0,0.0,0.0,0.0,0.0,0.0,0.0,0.0,0.0,0.0,0.0,0.0,0.0,0.0,0.0,0.0,0.0,0.0,0.0,0.0,5.7396,5.8819,0.0,0.0,6.3281,6.4666,6.5013,6.5513,6.5897,6.5897,6.5513,6.5128,6.5128,0.0,0.0,6.4743,6.4551,6.4589,6.5436,0.0,0.0,0.0,0.0,0.0,0.0,0.0,0.0,0.0,0.0,0.0,0.0,0.0,0.0,0.0,0.0,0.0,8.2293,8.2293,8.3074,8.4753,8.5143,8.6392,8.8696,8.9555,9.0452,9.1311,9.178,9.217,9.2482,9.1663,9.0804,8.9945,8.9086,0.0,0.0,8.7407,8.7407,8.7407,8.7407,8.7407,8.7407,8.7407,8.7407,8.7407,0.0,0.0,0.0,0.0,0.0,3.5136,3.646,3.648,3.7031,3.8789,3.8835,3.8904,3.95,3.8775,3.8116,3.7819,3.7336,0.0,0.0,0.0,0.0,0.0,0.0,0.0,0.0,0.0,0.0,0.0,0.0,0.0,0.0,0.0,0.0,0.0,0.0,0.0,0.0,0.0,0.0,0.0,0.0,0.0,0.0,0.0,0.0,0.0,0.0,0.0,0.0,0.0,0.0,0.0,0.0,0.0,0.0,0.0,6.2512,6.3974,6.4474,6.5397,6.632,6.659,6.582,6.4974,0.0,0.0,0.0,6.332,6.332,6.3589,6.4436,6.4589,6.4897,6.5743,6.7321,6.8898,0.0,0.0,0.0,0.0,0.0,0.0,0.0,0.0,0.0,0.0,0.0,0.0,8.2293,8.2528,8.3308,8.4753,8.5299,8.6705,8.9047,8.9945,9.0804,9.1663,9.2248,9.2365,9.2131,9.1272,9.0452,8.9555,8.8696,0.0,0.0,8.7407,8.7407,8.7407,8.7407,8.7407,8.7407,8.7407,8.7407,8.7407,0.0,0.0,0.0,0.0,0.0,0.0,3.5732,3.7211,3.83,3.83,3.9638,4.0568,4.0568,3.9686,3.9417,4.0271,3.8822,0.0,0.0,0.0,0.0,0.0,0.0,0.0,0.0,0.0,0.0,0.0,0.0,0.0,0.0,0.0,0.0,0.0,0.0,0.0,0.0,0.0,0.0,0.0,0.0,0.0,0.0,0.0,0.0,0.0,0.0,0.0,0.0,0.0,0.0,0.0,0.0,5.6319,5.7357,5.905,6.0742,6.2474,6.4166,6.582,6.7282,6.8167,6.7128,6.5897,0.0,0.0,0.0,6.332,6.332,6.3589,6.4436,6.4589,6.4897,6.5743,6.7321,6.8706,0.0,0.0,0.0,0.0,0.0,0.0,0.0,0.0,0.0,0.0,0.0,0.0,8.2293,8.3035,8.3894,8.4753,8.6471,8.8227,8.9984,9.0843,9.1702,9.2482,9.2482,9.2092,9.1272,9.0413,8.9555,8.8657,0.0,0.0,0.0,8.7407,8.7407,8.7407,8.7407,8.7407,8.7407,8.7407,8.7407,8.7407,0.0,0.0,0.0,0.0,0.0,0.0,0.0,3.6512,3.7159,3.829,3.8775,3.9452,4.0615,3.9848,3.9618,4.0476,3.9398,0.0,0.0,0.0,0.0,0.0,0.0,0.0,0.0,0.0,4.12,4.12,4.1547,4.209,0.0,0.0,0.0,0.0,0.0,0.0,0.0,0.0,0.0,0.0,0.0,0.0,0.0,0.0,0.0,0.0,0.0,0.0,0.0,0.0,0.0,0.0,0.0,0.0,0.0,5.8011,5.9896,6.132,6.1858,6.2397,6.3128,6.4551,6.3666,6.2551,6.3166,0.0,0.0,6.1589,6.1589,6.2012,6.3435,6.3705,6.4205,6.5667,6.7321,6.8898,0.0,0.0,0.0,0.0,0.0,0.0,0.0,0.0,0.0,0.0,0.0,0.0,8.2293,8.3621,8.4519,8.4792,8.5924,8.7368,8.9086,8.9984,9.0843,9.1702,9.2248,9.2092,9.1272,9.0413,8.9516,0.0,0.0,0.0,0.0,8.7407,8.7407,8.7407,8.7407,8.7407,8.7407,8.7407,8.7407,8.7407,0.0,0.0,0.0,0.0,0.0,0.0,0.0,3.6787,3.7465,3.8461,3.8727,3.9373,4.0741,3.9977,3.9836,4.0942,4.0188,0.0,0.0,0.0,0.0,0.0,0.0,0.0,0.0,0.0,4.1609,4.1609,4.1906,4.2247,4.2595,4.2636,4.2844,0.0,0.0,0.0,0.0,0.0,0.0,0.0,0.0,0.0,4.5586,0.0,0.0,0.0,0.0,0.0,0.0,0.0,0.0,0.0,0.0,0.0,0.0,0.0,5.828,6.005,6.1012,6.1743,6.2551,6.3935,6.3012,0.0,0.0,0.0,0.0,0.0,6.105,6.1704,6.3051,6.3589,6.4243,6.5667,6.7321,0.0,0.0,0.0,0.0,0.0,0.0,0.0,0.0,0.0,0.0,0.0,0.0,0.0,8.2723,8.405,8.5104,8.5768,8.6627,8.7915,8.9672,9.0218,9.0921,9.1741,9.1936,9.1624,9.0765,8.9906,8.9047,0.0,0.0,0.0,0.0,8.7407,8.7407,8.7407,8.7407,8.7407,8.7407,8.7407,8.7407,8.7407,0.0,0.0,0.0,0.0,0.0,0.0,0.0,3.7926,3.8899,3.8816,3.9331,4.0019,4.0825,4.0088,4.0115,4.1604,0.0,0.0,0.0,0.0,0.0,0.0,0.0,0.0,0.0,4.172,4.172,4.1683,4.25,4.2537,4.1869,4.2847,4.2975,4.2465,4.2709,0.0,0.0,0.0,0.0,0.0,0.0,0.0,0.0,0.0,0.0,0.0,0.0,0.0,0.0,0.0,0.0,0.0,0.0,0.0,0.0,0.0,0.0,0.0,0.0,6.2974,6.4359,6.532,6.4282,6.3051,6.3128,6.1973,0.0,6.0896,6.1589,6.2435,6.3243,6.4051,6.4897,6.582,6.7359,0.0,0.0,0.0,0.0,0.0,0.0,0.0,0.0,0.0,0.0,0.0,0.0,0.0,8.3465,8.4323,8.5651,8.7446,8.8344,8.9594,9.1272,9.1311,9.1663,9.2404,9.1663,9.0804,8.9867,8.9086,8.8227,0.0,0.0,0.0,0.0,8.7407,8.7407,8.7407,8.7407,8.7407,8.7407,8.7407,8.7407,8.7407,0.0,0.0,0.0,0.0,0.0,0.0,0.0,0.0,0.0,0.0,3.9823,3.9943,4.0132,3.9868,4.0061,0.0,0.0,0.0,0.0,0.0,0.0,0.0,0.0,0.0,0.0,4.2797,0.0,4.25,4.3318,4.3949,4.4432,4.4213,4.4045,4.3939,4.4183,4.444,0.0,0.0,0.0,0.0,0.0,0.0,0.0,0.0,0.0,0.0,4.5586,4.5586,0.0,0.0,0.0,0.0,0.0,0.0,0.0,0.0,5.678,5.8434,5.905,0.0,6.0127,6.1627,6.1204,6.0589,0.0,6.1589,6.1781,6.1781,6.2435,0.0,0.0,6.4474,6.5089,0.0,0.0,0.0,0.0,0.0,0.0,0.0,0.0,0.0,0.0,0.0,0.0,0.0,0.0,8.2645,8.3465,8.4323,8.5885,8.8305,8.9242,9.0218,9.1272,9.1311,9.1389,9.1585,9.1389,9.0492,8.9008,8.8774,8.8227,0.0,0.0,8.7407,8.7407,8.7407,8.7407,8.7407,8.7407,8.7407,8.7407,8.7407,8.7407,8.7407,0.0,0.0,0.0,0.0,0.0,0.0,0.0,0.0,0.0,0.0,0.0,0.0,0.0,0.0,0.0,0.0,0.0,0.0,0.0,0.0,0.0,0.0,0.0,0.0,0.0,4.2649,4.2872,4.2797,4.3615,4.4246,4.4692,4.4773,4.4662,4.443,4.4688,4.4586,0.0,0.0,0.0,0.0,0.0,0.0,0.0,0.0,0.0,0.0,4.5419,4.5419,0.0,4.655,4.6894,4.7201,0.0,0.0,0.0,0.0,5.5742,5.7703,5.7703,5.855,5.9588,6.0089,6.0165,6.0204,6.0704,6.1473,6.2089,6.2089,6.3051,0.0,0.0,0.0,0.0,0.0,0.0,0.0,0.0,0.0,0.0,0.0,0.0,0.0,0.0,0.0,0.0,0.0,0.0,8.284,8.4011,8.4558,8.6197,8.9203,8.975,9.0609,9.1858,9.1858,9.1663,9.1311,9.0882,8.9984,8.8696,8.8305,8.7837,0.0,0.0,8.7407,8.7407,8.7407,8.7407,8.7407,8.7407,8.7407,8.7407,8.7407,8.7407,8.7407,0.0,0.0,0.0,0.0,0.0,0.0,0.0,0.0,0.0,0.0,0.0,0.0,0.0,0.0,0.0,0.0,0.0,0.0,0.0,0.0,0.0,0.0,0.0,0.0,0.0,4.224,4.2277,4.2983,4.4061,4.4544,4.4581,4.5435,4.5488,4.487,4.4772,4.4348,0.0,0.0,0.0,0.0,0.0,0.0,0.0,0.0,0.0,0.0,0.0,0.0,0.0,4.6512,4.6817,4.6894,4.7971,0.0,0.0,0.0,0.0,0.0,5.6819,5.8742,6.0589,5.9704,6.005,6.0666,6.0935,6.1666,6.232,6.2435,6.3705,0.0,0.0,6.6128,0.0,0.0,0.0,0.0,0.0,0.0,0.0,0.0,0.0,0.0,0.0,0.0,8.2293,8.2293,8.2411,8.3152,8.4714,8.4948,8.6471,8.9711,8.9945,9.0765,9.2287,9.2443,9.2014,9.1077,9.0335,8.9477,8.8461,8.7759,8.7407,8.7407,0.0,0.0,8.7407,8.7407,8.7407,8.7407,8.7407,8.7407,8.7407,8.7407,8.7407,8.7407,0.0,0.0,0.0,0.0,0.0,0.0,0.0,0.0,0.0,0.0,0.0,0.0,0.0,0.0,0.0,0.0,0.0,0.0,0.0,0.0,0.0,0.0,0.0,0.0,0.0,0.0,4.3689,4.3838,4.603,4.7144,4.7144,4.7961,4.7958,4.7099,4.5041,4.4475,4.5028,0.0,0.0,0.0,0.0,0.0,0.0,0.0,0.0,0.0,0.0,0.0,0.0,4.6512,4.6394,4.6201,4.8471,0.0,0.0,0.0,0.0,0.0,5.6088,5.828,6.0589,5.9704,5.9588,6.0089,6.155,6.2512,6.332,6.4051,6.5013,6.5897,0.0,6.6936,0.0,0.0,0.0,0.0,0.0,0.0,0.0,0.0,0.0,0.0,0.0,8.2293,8.2293,8.2293,8.2918,8.3738,8.4753,8.5495,8.6822,8.8852,8.9633,9.0492,9.1467,9.217,9.1741,9.0179,9.0062,8.9164,8.7603,8.7446,8.7407,8.7407,0.0,8.7407,8.7407,8.7407,8.7407,8.7407,8.7407,8.7407,8.7407,8.7407,8.7407,8.7407,0.0,0.0,0.0,0.0,0.0,0.0,0.0,0.0,0.0,0.0,0.0,0.0,0.0,0.0,0.0,0.0,0.0,0.0,0.0,0.0,0.0,0.0,0.0,0.0,0.0,0.0,4.4432,4.5361,4.6921,4.7924,4.837,4.8296,4.8036,4.7627,4.5699,4.5118,4.5447,4.5002,0.0,0.0,0.0,0.0,0.0,0.0,0.0,0.0,0.0,0.0,0.0,0.0,4.6932,4.7086,4.7817,0.0,0.0,0.0,0.0,0.0,5.6511,5.7896,5.9665,6.0666,6.1589,6.2589,6.3858,0.0,6.482,6.5205,0.0,0.0,0.0,0.0,0.0,0.0,0.0,0.0,0.0,0.0,0.0,0.0,0.0,0.0,8.2293,8.2293,8.2293,8.2293,8.3035,8.3894,8.4753,8.5612,8.69,8.8657,8.9555,9.0413,9.1272,9.1663,9.1233,8.9984,8.9516,8.8618,8.7407,8.7407,8.7407,8.7407,0.0,8.7407,8.7407,8.7407,8.7407,8.7407,8.7407,8.7407,8.7407,8.7407,8.7407,8.7414,0.0,0.0,0.0,0.0,0.0,0.0,0.0,0.0,0.0,0.0,0.0,0.0,0.0,0.0,0.0,0.0,0.0,0.0,0.0,0.0,0.0,0.0,0.0,0.0,0.0,0.0,4.5164,4.6838,4.7623,4.8184,4.8593,4.759,4.7363,4.7723,4.6255,4.5763,4.5961,4.542,4.5201,4.5201,0.0,0.0,0.0,0.0,0.0,0.0,0.0,0.0,0.0,0.0,0.0,0.0,0.0,0.0,0.0,5.1279,5.3703,5.6742,5.6934,5.805,5.9704,6.1858,6.3051,0.0,0.0,0.0,0.0,0.0,0.0,0.0,0.0,0.0,0.0,0.0,0.0,0.0,0.0,0.0,0.0,0.0,0.0,8.2293,8.2293,8.2293,8.2371,8.2567,8.3347,8.4167,8.5065,8.5924,8.7095,8.8657,8.9555,9.0413,9.1272,9.1116,9.0648,8.9984,8.9125,8.8227,8.7407,8.7407,8.7407,8.742,8.7407,8.7407,8.742,8.742,8.7414,8.7407,8.7414,8.7414,8.7407,8.7426,8.7431,8.7436,0.0,0.0,0.0,0.0,0.0,0.0,0.0,0.0,0.0,0.0,0.0,0.0,0.0,0.0,0.0,0.0,0.0,0.0,0.0,0.0,0.0,0.0,0.0,0.0,0.0,4.5447,4.6209,4.789,4.8475,4.8444,4.7738,4.6178,4.6408,4.7995,4.6411,4.6242,0.0,0.0,0.0,4.5201,4.5201,0.0,0.0,0.0,0.0,0.0,0.0,0.0,0.0,0.0,0.0,0.0,0.0,0.0,5.101,5.1625,5.3703,5.5972,5.678,5.9358,6.205,6.2974,6.2127,0.0,6.5166,6.5282,0.0,6.6667,0.0,0.0,0.0,0.0,0.0,0.0,0.0,0.0,0.0,0.0,0.0,0.0,0.0,8.2293,8.2293,8.2293,8.2606,8.3347,8.4206,8.5104,8.5963,8.6822,8.772,8.8657,8.9555,9.0413,9.1272,9.0492,9.0062,8.9984,8.9125,8.8227,8.7407,8.7407,8.7387,8.7405,8.7381,8.7387,8.7408,8.7408,8.7392,8.7407,8.7397,8.7392,8.7414,8.7456,8.75,8.75,0.0,0.0,0.0,0.0,0.0,0.0,0.0,0.0,0.0,0.0,0.0,0.0,0.0,0.0,0.0,0.0,0.0,0.0,0.0,0.0,0.0,0.0,0.0,4.5764,4.6935,4.6515,4.7068,4.8749,4.836,4.836,4.8701,4.6532,4.6786,4.907,0.0,0.0,0.0,0.0,0.0,4.6206,4.5668,4.5283,0.0,0.0,0.0,0.0,0.0,0.0,0.0,0.0,4.7509,4.8856,4.8548,5.0202,5.2318,5.2626,5.4895,5.7511,5.8319,6.0666,6.3166,6.4589,6.4436,0.0,0.0,6.7231,6.7179,6.7782,6.8398,0.0,0.0,0.0,0.0,0.0,0.0,0.0,0.0,0.0,0.0,8.2254,8.2293,8.2293,8.2293,8.2293,8.2645,8.3426,8.4323,8.5182,8.6041,8.6939,8.7564,8.7876,8.9242,8.9906,8.9672,8.9906,8.9711,8.9164,8.8305,8.772,8.7407,8.7407,8.7397,8.742,8.7431,8.7453,8.7387,8.7414,8.7408,8.7453,8.7453,8.7457,8.7453,8.7499,8.75,8.75,0.0,0.0,0.0,0.0,0.0,0.0,0.0,0.0,0.0,0.0,0.0,0.0,0.0,0.0,0.0,0.0,0.0,0.0,0.0,0.0,0.0,0.0,0.0,4.6052,4.7341,4.7136,4.7663,4.907,4.8084,4.8145,4.9114,4.7081,4.7359,0.0,0.0,0.0,0.0,0.0,0.0,0.0,4.5932,4.5438,0.0,0.0,0.0,0.0,0.0,0.0,0.0,0.0,4.8202,4.9702,4.9163,5.0741,5.2856,5.3126,5.5818,5.8858,5.9704,6.1973,6.4397,6.5615,0.0,0.0,6.8065,6.8244,6.8231,6.8783,7.0478,0.0,0.0,0.0,0.0,0.0,0.0,0.0,0.0,0.0,8.2305,8.2293,8.2293,8.2293,8.2293,8.2567,8.3035,8.3894,8.4714,8.5573,8.6471,8.7095,8.7525,8.7798,8.9216,8.9729,8.9099,8.9717,8.9555,8.8696,8.7837,8.7407,8.7407,8.7407,8.7401,8.7422,8.7486,8.7475,8.7436,8.742,8.7457,8.7518,8.7498,8.75,8.75,8.75,8.75,8.75,0.0,0.0,0.0,0.0,0.0,0.0,0.0,0.0,0.0,0.0,0.0,0.0,0.0,0.0,0.0,0.0,0.0,0.0,4.5684,4.58,4.5757,4.5632,0.0,4.5932,4.6589,4.7308,4.8029,4.8707,4.7859,4.7796,4.8579,4.7694,0.0,0.0,0.0,0.0,0.0,0.0,0.0,0.0,4.597,4.5438,4.5201,0.0,0.0,0.0,0.0,0.0,0.0,0.0,4.8586,5.0394,4.8663,4.9894,5.2087,5.2972,5.6203,5.9665,6.055,6.3281,6.5923,0.0,0.0,0.0,6.8212,6.7894,6.7754,6.9562,0.0,0.0,0.0,0.0,0.0,0.0,0.0,0.0,0.0,8.2292,8.2285,8.2299,8.2293,8.2293,8.2293,8.3074,8.3972,8.4831,8.5651,8.6471,8.7368,8.7407,8.7798,8.8657,8.9544,8.9986,8.9986,9.0003,8.9555,8.8689,8.7837,8.7407,8.7407,8.7407,8.744,8.75,8.75,8.75,8.75,8.75,8.75,8.75,8.75,8.75,8.75,8.75,8.75,8.75,0.0,0.0,0.0,0.0,0.0,0.0,0.0,0.0,0.0,0.0,0.0,0.0,0.0,0.0,0.0,0.0,0.0,0.0,4.5722,4.58,4.5786,4.5757,4.5757,4.6082,4.6778,4.7587,4.8235,4.8707,4.7832,4.7905,4.8861,0.0,0.0,0.0,0.0,0.0,0.0,0.0,0.0,4.7769,4.6271,4.562,4.5565,0.0,0.0,0.0,0.0,0.0,0.0,0.0,0.0,0.0,5.0892,5.1817,5.3321,5.5403,5.7292,5.916,6.1158,6.38,0.0,0.0,0.0,0.0,0.0,6.8938,0.0,0.0,0.0,0.0,0.0,0.0,0.0,0.0,0.0,0.0,0.0,8.2295,8.2303,8.23,8.2292,8.2558,8.3144,8.3456,8.4199,8.5643,8.5956,8.6464,8.7362,8.7401,8.7509,8.7798,8.9216,8.9705,8.9099,8.9701,8.9555,8.8696,8.7876,8.747,8.7456,8.7456,8.7498,8.75,8.75,8.75,8.75,8.75,8.75,8.75,8.75,8.75,8.75,8.75,8.75,8.75,0.0,0.0,0.0,0.0,0.0,0.0,0.0,0.0,4.081,4.081,4.081,4.081,0.0,0.0,0.0,4.3208,4.4098,0.0,4.5761,4.58,4.58,4.58,4.58,4.6158,4.697,4.778,4.8333,4.8562,4.8025,4.8429,0.0,0.0,0.0,0.0,0.0,0.0,0.0,0.0,4.8475,4.8613,4.6899,4.6205,4.6221,0.0,0.0,0.0,0.0,0.0,0.0,0.0,0.0,0.0,5.1738,5.2664,5.386,5.6831,5.8991,6.0822,6.2651,6.5296,0.0,0.0,0.0,0.0,0.0,0.0,0.0,0.0,0.0,0.0,0.0,0.0,0.0,0.0,0.0,0.0,8.2289,8.2301,8.2304,8.2304,8.2303,8.2651,8.351,8.3901,8.4682,8.6051,8.6442,8.687,8.7416,8.7456,8.7453,8.744,8.908,8.9562,8.8711,8.9562,8.9539,8.8696,8.786,8.7492,8.75,8.75,8.75,8.75,8.75,8.75,8.75,8.75,8.75,8.75,8.75,8.75,8.75,8.75,8.75,8.7539,0.0,0.0,0.0,0.0,0.0,0.0,0.0,4.0848,4.0848,4.09,4.0887,4.0926,0.0,0.0,0.0,4.3363,4.4214,4.5026,4.5761,4.58,4.58,4.58,4.58,4.6187,4.7076,4.7889,4.8353,4.8508,4.8477,4.9203,0.0,0.0,0.0,0.0,0.0,0.0,0.0,0.0,4.8855,4.9363,4.7703,4.7008,4.7008,4.6931,0.0,0.0,0.0,0.0,0.0,0.0,0.0,0.0,5.1485,5.2605,5.3955,5.7313,6.0671,6.3467,6.4453,0.0,0.0,6.8883,0.0,0.0,0.0,0.0,0.0,0.0,0.0,0.0,0.0,0.0,0.0,0.0,0.0,8.2304,8.2304,8.2304,8.2304,8.2304,8.2383,8.2773,8.3633,8.4492,8.539,8.625,8.7031,8.75,8.75,8.75,8.75,8.75,8.914,8.9609,8.8828,8.9609,8.9604,8.8826,8.7924,8.75,8.75,8.75,8.75,8.75,8.75,8.75,8.75,8.75,8.75,8.75,8.75,8.75,8.75,8.75,8.7539,8.7695,0.0,0.0,0.0,0.0,0.0,0.0,4.1036,4.0977,4.1093,4.1725,4.1777,4.2009,4.268,4.3518,0.0,4.4291,4.5065,4.5606,4.58,4.58,4.58,4.58,4.58,4.6187,4.7076,4.727,4.8043,4.9436,4.9421,4.956,0.0,0.0,0.0,0.0,0.0,0.0,0.0,0.0,4.9498,4.9521,4.7751,4.7071,4.7008,4.6321,4.595,0.0,0.0,0.0,0.0,0.0,0.0,0.0,5.0835,5.2227,5.3967,5.6712,5.9456,6.193,6.3436,6.6394,0.0,0.0,7.0087,0.0,0.0,0.0,0.0,0.0,0.0,0.0,0.0,0.0,0.0,8.2266,8.2297,8.2304,8.2304,8.2304,8.2304,8.2304,8.289,8.3672,8.4531,8.539,8.6289,8.7148,8.7383,8.75,8.75,8.75,8.75,8.75,8.914,8.9922,8.9726,8.9922,8.9921,8.9685,8.8203,8.75,8.75,8.75,8.75,8.75,8.75,8.75,8.75,8.75,8.75,8.75,8.75,8.75,8.75,8.75,8.789,8.8476,0.0,0.0,0.0,0.0,0.0,0.0,0.0,0.0,4.2307,4.2741,4.2757,4.2899,4.3285,4.4136,0.0,0.0,4.5336,4.58,4.58,4.58,4.58,4.58,4.58,4.5993,4.6457,4.6883,4.754,4.8469,4.9281,0.0,0.0,0.0,0.0,0.0,0.0,0.0,0.0,0.0,0.0,4.9591,4.8261,4.7487,4.7154,4.7526,4.7139,4.6457,4.6883,0.0,0.0,0.0,0.0,0.0,0.0,0.0,5.4078,5.7056,5.9416,6.166,6.4173,0.0,0.0,6.8734,0.0,0.0,0.0,0.0,0.0,0.0,0.0,0.0,0.0,0.0,0.0,8.2304,8.2304,8.2304,8.2304,8.2304,8.2304,8.2304,8.3086,8.3945,8.4804,8.5703,8.6562,8.7422,8.75,8.75,8.75,8.75,8.75,8.75,8.914,8.9804,8.9375,8.9804,8.9804,8.9375,8.8086,8.75,8.75,8.75,8.75,8.75,8.75,8.75,8.75,8.75,8.75,8.75,8.75,8.75,8.7539,8.7929,8.8359,8.8828,0.0,0.0,0.0,0.0,0.0,0.0,0.0,0.0,0.0,4.3734,4.3751,4.3757,4.3853,4.4473,4.4885,0.0,0.0,0.0,4.58,4.58,4.58,4.58,4.58,4.58,4.58,4.6496,4.696,4.7115,4.8546,0.0,0.0,0.0,0.0,0.0,0.0,0.0,0.0,0.0,0.0,0.0,0.0,0.0,0.0,0.0,4.901,4.785,4.8585,4.8817,4.8933,4.9668,0.0,0.0,0.0,0.0,5.4155,5.7404,5.9687,6.1776,6.4909,6.7268,6.8854,6.9009,7.1601,0.0,0.0,0.0,0.0,0.0,0.0,0.0,0.0,0.0,8.2304,8.2304,8.2304,8.2304,8.2304,8.2304,8.2344,8.25,8.3281,8.4179,8.5039,8.5898,8.6719,8.7461,8.75,8.75,8.75,8.75,8.75,8.75,8.914,8.957,8.8711,8.957,8.957,8.8672,8.789,8.75,8.75,8.75,8.75,8.75,8.75,8.75,8.75,8.75,8.75,8.75,8.75,8.75,8.7617,8.8398,8.8789,8.914,0.0,0.0,0.0,0.0,0.0,0.0,0.0,0.0,0.0,0.0,4.4642,4.4894,4.5577,4.5759,4.5775,4.5645,4.5722,4.58,4.58,0.0,0.0,4.58,4.58,4.58,4.58,4.5916,4.6341,4.7115,4.7308,0.0,0.0,0.0,0.0,0.0,0.0,0.0,0.0,0.0,0.0,0.0,0.0,0.0,0.0,0.0,0.0,5.0403,5.0519,5.0558,5.0596,5.0712,5.0751,0.0,0.0,0.0,5.4,5.6708,5.9184,6.1543,6.3478,0.0,6.9009,0.0,7.2065,7.3867,0.0,0.0,0.0,0.0,0.0,0.0,0.0,0.0,8.2304,8.2304,8.2304,0.0,0.0,0.0,0.0,8.3359,8.4219,8.5078,8.5937,8.6797,8.7383,8.75,8.75,8.75,8.75,8.75,8.75,8.75,8.914,8.957,8.8711,8.957,8.957,8.8672,8.789,8.75,8.75,8.75,8.75,8.75,8.75,8.75,8.75,8.75,8.75,8.75,8.75,8.75,8.7617,8.8398,8.9179,8.9961,0.0,0.0,0.0,0.0,0.0,0.0,0.0,0.0,0.0,0.0,0.0,4.574,4.6075,4.6115,4.6046,4.593,4.593,4.5877,4.58,4.58,4.58,4.58,4.58,4.58,4.58,4.58,4.5993,4.638,0.0,0.0,0.0,4.9823,5.048,0.0,0.0,0.0,0.0,0.0,0.0,0.0,0.0,0.0,0.0,0.0,0.0,0.0,0.0,0.0,0.0,5.3111,5.2763,5.2414,5.2801,0.0,0.0,0.0,5.8062,6.0615,6.4715,6.7268,6.9125,0.0,7.2579,7.3984,7.3278,0.0,0.0,0.0,0.0,0.0,0.0,0.0,0.0,0.0,0.0,0.0,0.0,0.0,0.0,0.0,0.0,0.0,0.0,0.0,0.0,8.75,8.75,8.75,8.75,8.75,8.75,8.75,8.914,8.9375,8.8047,8.9336,8.9336,8.8008,8.7656,8.75,8.75,8.75,8.75,8.75,8.75,8.75,8.75,8.75,8.75,8.75,8.75,8.7773,8.8281,8.9101,8.9961,9.0859,0.0,0.0,0.0,0.0,0.0,0.0,0.0,0.0,0.0,0.0,0.0,4.6289,4.6211,0.0,0.0,0.0,4.6009,4.593,4.58,4.58,4.58,4.58,4.58,4.58,4.58,4.58,4.58,0.0,0.0,0.0,4.8392,4.9088,4.9939,0.0,4.9397,0.0,0.0,0.0,0.0,0.0,0.0,0.0,0.0,0.0,0.0,0.0,0.0,0.0,0.0,0.0,0.0,0.0,0.0,0.0,0.0,0.0,0.0,0.0,0.0,0.0,6.8661,7.0711,7.2391,7.3481,0.0,0.0,0.0,0.0,0.0,0.0,0.0,0.0,0.0,0.0,0.0,0.0,0.0,0.0,0.0,0.0,0.0,0.0,0.0,0.0,0.0,0.0,8.75,8.75,8.75,8.75,8.75,8.75,8.914,8.9219,8.7539,8.875,8.875,8.75,8.75,8.75,8.75,8.75,8.75,8.75,8.75,8.75,8.75,8.75,8.75,8.7539,8.7734,8.8164,8.8828,8.9922,9.0742,9.1406,0.0,0.0,0.0,0.0,0.0,0.0,0.0,0.0,0.0,0.0,0.0,4.6289,4.6211,4.6206,4.6169,4.6091,4.603,4.593,4.58,4.58,4.58,4.58,4.58,0.0,4.58,4.58,4.58,0.0,0.0,0.0,4.8392,4.8469,4.9359,5.0867,5.0016,4.9281,4.8725,0.0,0.0,0.0,0.0,0.0,0.0,0.0,0.0,0.0,0.0,0.0,0.0,0.0,0.0,0.0,0.0,0.0,0.0,0.0,0.0,0.0,0.0,6.5721,0.0,6.9761,7.1131,0.0,0.0,0.0,0.0,0.0,0.0,0.0,0.0,0.0,0.0,0.0,0.0,0.0,0.0,0.0,0.0,0.0,0.0,0.0,0.0,0.0,0.0,0.0,8.75,8.75,8.75,8.75,8.75,8.75,8.914,8.9219,8.7539,8.7578,8.7578,8.75,8.75,8.75,8.75,8.75,8.75,8.75,8.75,8.75,8.75,8.75,8.75,8.7578,8.8359,8.8672,8.8906,9.0625,9.125,9.1406,0.0,0.0,0.0,0.0,0.0,0.0,0.0,0.0,0.0,0.0,0.0,0.0,0.0,4.6245,4.6237,4.6158,4.6047,4.6007,4.6007,4.5877,0.0,4.6007,4.5877,4.5838,4.593,4.5838,0.0,0.0,0.0,4.6419,4.7579,4.8174,4.8793,4.9374,4.9644,4.9591,4.9436,5.1253,0.0,0.0,0.0,0.0,0.0,0.0,0.0,0.0,0.0,0.0,0.0,0.0,0.0,0.0,0.0,0.0,0.0,0.0,0.0,0.0,0.0,0.0,0.0,6.964,7.1105,7.2025,0.0,0.0,0.0,0.0,0.0,0.0,0.0,0.0,0.0,0.0,0.0,0.0,0.0,0.0,0.0,0.0,0.0,0.0,0.0,0.0,0.0,0.0,0.0,8.75,8.75,8.75,8.75,8.75,8.914,8.9726,8.9101,8.8047,8.75,8.75,8.75,8.75,8.75,8.75,8.75,8.75,8.75,8.75,8.75,8.75,8.7812,8.8281,8.8594,8.9375,9.0429,9.1054,9.164,9.2187,0.0,0.0,0.0,0.0,0.0,0.0,0.0,0.0,0.0,0.0,0.0,0.0,0.0,0.0,0.0,4.6211,4.6137,4.6074,4.6098,4.597,4.5944,4.6085,4.597,4.5944,4.6046,0.0,0.0,0.0,0.0,0.0,0.0,0.0,4.8269,4.8567,4.948,0.0,0.0,0.0,0.0,5.5065,0.0,0.0,6.3695,0.0,0.0,0.0,0.0,0.0,0.0,0.0,0.0,0.0,0.0,0.0,0.0,0.0,0.0,0.0,6.4148,0.0,0.0,0.0,0.0,7.1219,0.0,0.0,0.0,0.0,0.0,0.0,0.0,0.0,0.0,0.0,0.0,0.0,0.0,0.0,0.0,0.0,0.0,0.0,0.0,0.0,0.0,0.0,0.0,0.0,8.75,8.75,8.75,8.75,8.8594,8.914,8.914,8.8047,8.75,8.75,8.75,8.75,8.75,8.75,8.75,8.75,8.75,8.75,8.7539,8.7773,8.8203,8.875,8.9336,9.0273,9.1328,9.164,9.2109,9.2617,0.0,0.0,0.0,0.0,0.0,0.0,0.0,0.0,0.0,0.0,0.0,0.0,0.0,0.0,0.0,0.0,4.6211,4.6175,4.61,4.6085,4.6104,4.6112,0.0,0.0,0.0,0.0,0.0,0.0,0.0,0.0,0.0,0.0,4.7777,0.0,4.9614,5.007,5.0336,0.0,0.0,5.6953,0.0,6.3047,6.3359,0.0,0.0,0.0,6.5625,6.619,0.0,0.0,0.0,0.0,0.0,0.0,0.0,0.0,0.0,0.0,0.0,0.0,0.0,0.0,0.0,0.0,0.0,0.0,0.0,0.0,0.0,0.0,0.0,0.0,0.0,0.0,0.0,0.0,0.0,0.0,0.0,0.0,0.0,0.0,0.0,0.0,0.0,0.0,8.6992,8.7461,8.75,8.7539,8.7539,8.75,8.7539,8.7539,8.75,8.75,8.75,8.75,8.75,8.75,8.75,8.75,8.75,8.75,8.7539,8.7539,8.7617,8.8398,8.8711,8.8945,9.0625,9.1328,9.1445,9.2304,9.2617,9.2617,0.0,0.0,0.0,0.0,0.0,4.6289,4.6289,4.6836,0.0,0.0,0.0,0.0,0.0,0.0,0.0,0.0,4.6211,4.6208,4.6257,4.6137,4.6125,4.6253,4.6131,4.6131,0.0,0.0,0.0,0.0,0.0,0.0,0.0,0.0,0.0,0.0,5.0332,5.2059,5.3916,5.5287,0.0,0.0,6.1015,6.375,0.0,0.0,0.0,0.0,0.0,6.9562,0.0,0.0,6.7174,6.4179,0.0,0.0,0.0,0.0,0.0,0.0,6.2449,0.0,0.0,0.0,0.0,0.0,0.0,0.0,0.0,0.0,0.0,0.0,0.0,0.0,0.0,0.0,0.0,0.0,0.0,0.0,0.0,0.0,0.0,0.0,0.0,0.0,0.0,0.0,8.6406,8.6836,8.7461,8.8047,8.8086,8.7539,8.8047,8.8086,8.75,8.75,8.75,8.75,8.75,8.75,8.75,8.75,8.75,8.7539,8.8125,8.8359,8.8398,8.8594,8.9453,9.0625,9.1094,9.1679,9.2265,9.25,9.2617,9.2617,0.0,0.0,4.6406,4.6797,4.6836,4.6953,4.7344,4.7812,0.0,0.0,0.0,0.0,0.0,0.0,0.0,0.0,4.7695,4.7734,4.7422,4.7642,4.752,4.6875,4.6781,4.6583,4.625,0.0,0.0,0.0,0.0,0.0,0.0,0.0,0.0,0.0,0.0,0.0,0.0,0.0,0.0,0.0,6.2305,0.0,0.0,6.7773,6.9414,0.0,0.0,0.0,6.9648,7.0859,6.8867,0.0,0.0,0.0,0.0,0.0,0.0,0.0,0.0,0.0,0.0,0.0,0.0,0.0,0.0,0.0,0.0,0.0,0.0,0.0,0.0,0.0,0.0,0.0,0.0,0.0,0.0,0.0,0.0,0.0,0.0,0.0,0.0,8.4687,8.5117,8.5625,8.5976,8.6562,8.7461,8.8594,8.8711,8.7539,8.8281,8.8125,8.6953,8.7304,8.75,8.75,8.75,8.75,8.75,8.75,8.7695,8.8047,8.8515,8.9101,8.9765,8.9765,9.039,9.1328,9.1719,9.2148,9.2617,9.2617,9.2617,9.2617,0.0,0.0,4.6601,4.7578,4.7734,4.8047,4.8906,4.9101,4.9219,0.0,0.0,0.0,0.0,0.0,0.0,0.0,0.0,5.0,4.9219,4.9883,4.9609,4.7969,4.7891,4.7422,4.6484,0.0,0.0,0.0,0.0,0.0,0.0,0.0,0.0,0.0,0.0,0.0,0.0,0.0,0.0,6.1094,6.4297,6.5195,0.0,0.0,6.9062,0.0,6.9414,6.9687,6.9883,7.125,7.0312,0.0,0.0,0.0,0.0,0.0,6.3281,0.0,0.0,0.0,0.0,0.0,0.0,0.0,0.0,0.0,0.0,0.0,0.0,0.0,0.0,0.0,0.0,0.0,0.0,0.0,0.0,0.0,0.0,0.0,0.0,0.0,8.3672,8.4531,8.5039,8.5039,8.5859,8.6719,8.7578,8.9062,8.914,8.7539,8.8281,8.789,8.6211,8.707,8.75,8.75,8.75,8.75,8.75,8.7578,8.8008,8.8711,8.8906,8.9883,9.1328,9.1406,9.1445,9.1523,9.2304,9.2617,9.2617,9.2617,9.2617,9.2617,4.7344,4.6797,4.6797,4.8359,4.8633,4.8945,4.9805,5.0508,0.0,0.0,0.0,0.0,0.0,0.0,0.0,0.0,0.0,0.0,5.0937,5.1055,5.0742,4.9726,4.9687,4.8945,4.7383,4.7187,0.0,0.0,0.0,0.0,0.0,0.0,0.0,0.0,0.0,0.0,0.0,0.0,0.0,6.3672,6.5039,0.0,6.6601,6.8672,7.0234,7.1289,7.1445,7.1484,7.1328,0.0,7.0508,7.0664,0.0,0.0,0.0,0.0,0.0,0.0,0.0,0.0,0.0,0.0,0.0,0.0,0.0,0.0,0.0,0.0,0.0,0.0,0.0,0.0,0.0,0.0,0.0,0.0,0.0,0.0,0.0,0.0,0.0,0.0,8.4648,8.5429,8.5937,8.5937,8.6758,8.7617,8.8437,8.8789,8.8515,8.7539,8.8281,8.789,8.6211,8.707,8.75,8.75,8.75,8.75,8.7539,8.8164,8.8554,8.8789,9.0195,9.0976,9.1367,9.207,9.2344,9.2344,9.2539,9.2617,9.2617,9.2617,9.2617,9.2617,4.8242,4.7891,4.8125,4.9844,5.0156,5.0586,5.1914,5.2422,0.0,0.0,0.0,0.0,0.0,0.0,0.0,0.0,0.0,0.0,0.0,5.3984,5.3437,5.2148,5.2109,5.1094,4.8945,4.8906,4.8672,0.0,0.0,0.0,0.0,0.0,0.0,0.0,0.0,0.0,0.0,0.0,6.4258,6.625,6.625,0.0,6.8437,7.0586,7.1914,7.2695,7.3125,7.3008,7.25,7.164,7.164,0.0,0.0,6.9414,6.8984,0.0,6.5937,6.539,0.0,0.0,0.0,6.5508,0.0,0.0,0.0,0.0,0.0,0.0,0.0,0.0,0.0,0.0,0.0,0.0,0.0,0.0,0.0,0.0,0.0,0.0,0.0,0.0,8.4844,8.5703,8.6211,8.6211,8.6992,8.7695,8.8086,8.8906,8.8945,8.8125,8.8476,8.8086,8.6875,8.7265,8.75,8.75,8.75,8.75,8.7539,8.832,8.8945,8.9414,9.0742,9.1562,9.1992,9.2422,9.2617,9.2617,9.2617,9.2617,9.2617,9.2617,9.2617,9.2617,4.9258,4.9141,4.9687,5.1367,5.1797,5.2422,5.4023,5.4375,0.0,0.0,0.0,0.0,0.0,0.0,0.0,0.0,0.0,0.0,0.0,0.0,5.6797,5.5078,5.4687,5.3476,5.1211,5.0859,5.0351,4.9648,0.0,0.0,0.0,0.0,0.0,0.0,0.0,0.0,0.0,0.0,0.0,6.8164,0.0,6.8945,7.0703,7.2969,7.3789,7.3867,7.4414,7.414,7.3594,7.375,0.0,7.2851,7.3398,7.2344,0.0,0.0,0.0,0.0,0.0,0.0,0.0,0.0,0.0,6.7773,0.0,0.0,0.0,0.0,0.0,0.0,0.0,0.0,0.0,0.0,0.0,0.0,0.0,0.0,0.0,0.0,0.0,0.0,0.0,8.5898,8.6601,8.6445,8.7383,8.789,8.7734,8.8867,8.9258,8.8711,8.8554,8.8164,8.75,8.75,8.75,8.75,8.75,8.7578,8.7773,8.8594,8.9414,9.0312,9.1172,9.1953,9.2617,9.2617,9.2617,9.2617,9.2617,9.2617,9.2617,9.2617,9.2617,9.2617,5.0508,5.0039,5.0586,5.2266,5.3203,5.4023,5.5,5.582,0.0,0.0,0.0,0.0,0.0,0.0,0.0,0.0,0.0,0.0,6.1172,0.0,0.0,5.8672,5.7148,5.582,5.4726,5.3203,5.2383,5.2266,0.0,0.0,0.0,0.0,0.0,0.0,5.9414,0.0,0.0,0.0,6.8672,0.0,7.0547,7.2461,0.0,7.5195,7.5586,7.5508,7.4844,7.4531,7.457,0.0,7.5547,7.5351,0.0,7.5312,0.0,0.0,0.0,0.0,0.0,0.0,0.0,0.0,6.9101,0.0,0.0,0.0,0.0,0.0,0.0,0.0,0.0,0.0,0.0,0.0,0.0,0.0,0.0,0.0,0.0,0.0,0.0,0.0,0.0,8.6562,8.8125,8.7422,8.8828,8.9375,8.8594,8.8086,8.8086,8.8672,8.8008,8.7578,8.75,8.75,8.75,8.75,8.75,8.7851,8.8594,8.9453,9.0312,9.1211,9.207,9.25,9.2617,9.2617,9.2617,9.2617,9.2617,9.2617,9.2617,9.2617,9.2617,9.2617,5.2617,5.2383,5.2773,5.3984,5.4922,5.5781,5.668,5.793,0.0,0.0,0.0,0.0,0.0,0.0,0.0,0.0,0.0,0.0,0.0,0.0,0.0,6.0742,5.9961,5.8711,5.6836,5.5586,5.4726,5.4219,5.3359,0.0,0.0,0.0,0.0,0.0,6.0156,0.0,6.5859,0.0,0.0,0.0,0.0,0.0,0.0,7.6523,7.6211,7.6601,7.625,7.5781,7.5508,0.0,7.664,0.0,0.0,0.0,0.0,0.0,0.0,0.0,0.0,0.0,0.0,0.0,0.0,0.0,0.0,0.0,7.0703,0.0,0.0,0.0,0.0,0.0,0.0,0.0,0.0,0.0,0.0,0.0,0.0,0.0,0.0,0.0,0.0,0.0,0.0,0.0,8.8594,8.8672,8.7304,8.6914,8.6914,8.7226,8.6914,8.6992,8.75,8.75,8.75,8.75,8.75,8.7929,8.8711,8.9609,9.0469,9.1367,9.2226,9.2617,9.2617,9.2617,9.2617,9.2617,9.2617,9.2617,9.2617,9.2617,9.2617,9.2617,5.4765,5.4531,5.4648,5.5508,5.6367,5.7422,5.875,6.0195,0.0,0.0,0.0,0.0,6.4297,6.4414,0.0,0.0,0.0,6.6211,0.0,0.0,6.5117,0.0,0.0,0.0,0.0,5.8437,5.7226,5.6367,5.5273,0.0,0.0,0.0,0.0,0.0,0.0,6.4297,6.8555,0.0,0.0,7.6172,7.6484,7.8242,8.0351,7.789,7.7187,7.7578,7.7812,7.7461,7.707,7.7969,7.8242,0.0,7.7969,0.0,0.0,0.0,0.0,0.0,7.1719,0.0,0.0,0.0,0.0,0.0,0.0,0.0,0.0,0.0,0.0,0.0,0.0,0.0,0.0,0.0,0.0,0.0,0.0,0.0,0.0,0.0,0.0,0.0,0.0,0.0,0.0,0.0,0.0,8.8476,8.6328,8.6211,8.6094,8.5859,8.6094,8.6484,8.7148,8.7383,8.75,8.75,8.75,8.8047,8.9062,8.9726,9.0625,9.1679,9.2344,9.2617,9.2617,9.2617,9.2617,9.2617,9.2617,9.2617,9.2617,9.2617,9.2617,9.2617,5.6673,5.5857,5.5547,5.6406,5.7265,5.8711,6.1211,0.0,0.0,0.0,0.0,0.0,0.0,0.0,0.0,0.0,0.0,7.0195,6.9414,0.0,6.9219,0.0,0.0,0.0,0.0,0.0,5.9883,5.9062,5.7344,0.0,0.0,0.0,0.0,0.0,0.0,6.5547,6.6094,7.1953,7.4023,7.3711,7.707,7.8945,7.9726,0.0,7.9101,7.8555,7.9336,0.0,0.0,8.0586,8.0898,0.0,0.0,0.0,0.0,0.0,0.0,0.0,0.0,0.0,0.0,7.4219,0.0,0.0,0.0,0.0,7.2969,0.0,0.0,0.0,0.0,0.0,0.0,0.0,0.0,0.0,0.0,0.0,0.0,0.0,0.0,0.0,0.0,0.0,0.0,0.0,0.0,0.0,8.6367,8.6211,8.582,8.4961,8.5742,8.6211,8.625,8.707,8.75,8.75,8.75,8.8359,8.9961,9.0,9.0937,9.2578,9.2578,9.2617,9.2617,9.2617,9.2617,9.2617,9.2617,9.2617,9.2617,9.2617,9.2617,9.2617,5.8309,5.8033,5.7721,5.7495,5.9096,6.1284,0.0,6.5038,0.0,0.0,0.0,0.0,0.0,0.0,7.0545,0.0,0.0,7.2059,7.1211,7.1133,0.0,0.0,0.0,6.6172,0.0,0.0,0.0,0.0,0.0,0.0,0.0,0.0,0.0,0.0,0.0,6.6328,0.0,0.0,0.0,0.0,0.0,8.0312,8.039,0.0,0.0,7.9336,7.9609,7.9687,0.0,8.0039,8.0508,8.0937,8.0664,8.1172,8.1523,7.9765,7.9492,7.9219,0.0,0.0,7.7773,7.5234,0.0,0.0,0.0,0.0,0.0,0.0,0.0,0.0,0.0,0.0,0.0,0.0,0.0,0.0,0.0,0.0,0.0,0.0,0.0,0.0,0.0,0.0,0.0,0.0,0.0,0.0,0.0,8.5351,8.4922,8.4062,8.4883,8.5625,8.6172,8.707,8.75,8.75,8.8047,8.8906,9.0039,9.0586,9.1484,9.2617,9.2617,9.2617,9.2617,9.2617,9.2617,9.2617,9.2617,9.2617,9.2617,9.2617,9.2617,9.2617,5.9237,5.9581,5.9851,5.9355,6.1385,0.0,0.0,0.0,0.0,0.0,6.9763,0.0,7.1912,0.0,7.2181,0.0,7.4056,7.3989,7.3431,7.3395,0.0,7.1751,7.0075,0.0,0.0,0.0,0.0,0.0,0.0,6.0234,0.0,0.0,0.0,0.0,0.0,0.0,0.0,0.0,7.5117,0.0,0.0,8.0898,0.0,0.0,7.9414,8.0625,0.0,8.0625,8.0625,8.062,8.1014,8.1406,8.1094,8.1601,8.2148,8.125,8.1015,8.0703,7.9375,7.9531,0.0,7.7422,7.8086,0.0,7.7578,0.0,0.0,0.0,0.0,0.0,0.0,0.0,0.0,0.0,0.0,0.0,0.0,0.0,0.0,0.0,0.0,0.0,0.0,0.0,0.0,0.0,0.0,0.0,0.0,0.0,8.4492,8.3633,8.4453,8.5156,8.5742,8.6914,8.75,8.75,8.832,8.914,9.0039,9.0898,9.1797,9.2617,9.2617,9.2617,9.2617,9.2617,9.2617,9.2617,9.2617,9.2617,9.2617,9.2617,9.2617,9.2617,0.0,0.0,0.0,0.0,6.4023,0.0,0.0,0.0,6.9176,0.0,7.1343,7.1861,7.4403,7.3934,7.3775,7.4637,7.5472,0.0,7.5969,7.5955,0.0,0.0,7.4275,7.2994,7.2134,0.0,0.0,0.0,0.0,0.0,0.0,0.0,0.0,0.0,6.5781,0.0,7.0937,7.2656,7.543,7.875,7.9453,8.082,8.2344,8.1406,8.1601,8.2343,8.2304,8.2304,8.2304,8.2315,8.2289,8.2148,8.1328,8.164,8.2148,8.1328,8.1054,8.125,8.207,8.0547,7.9101,8.0664,7.9922,0.0,0.0,0.0,7.7617,0.0,0.0,0.0,0.0,0.0,0.0,0.0,0.0,0.0,0.0,0.0,0.0,0.0,0.0,0.0,0.0,0.0,0.0,0.0,0.0,0.0,0.0,0.0,8.4531,8.3554,8.4375,8.4844,8.4883,8.6601,8.7461,8.75,8.8359,8.9219,9.0039,9.0937,9.1836,9.2617,9.2617,9.2617,9.2617,9.2617,9.2617,9.2617,9.2617,9.2617,9.2617,9.2617,9.2617,9.2617,6.2998,6.4336,6.5507,0.0,6.6053,6.6795,0.0,0.0,0.0,0.0,7.293,7.4106,7.5433,7.5355,7.5551,7.6409,7.6677,0.0,0.0,0.0,0.0,7.6789,7.5155,7.4145,7.3945,7.0753,0.0,6.7807,0.0,0.0,6.3979,0.0,0.0,0.0,0.0,0.0,7.2689,7.3788,7.6987,8.1295,8.0831,8.209,0.0,0.0,8.2348,8.3038,8.2493,8.2304,8.2304,8.2303,8.2292,8.2242,8.2029,8.2109,8.2265,8.2031,8.1953,8.2031,8.2226,8.2304,8.2226,8.2031,8.2617,8.2969,0.0,0.0,0.0,0.0,0.0,0.0,0.0,0.0,0.0,0.0,0.0,0.0,0.0,0.0,0.0,0.0,0.0,0.0,0.0,0.0,0.0,0.0,0.0,0.0,0.0,0.0,0.0,8.2695,8.3476,8.4258,8.4883,8.5976,8.6875,8.7539,8.8984,8.9765,9.0039,9.1562,9.2383,9.2617,9.2617,9.2617,9.2617,9.2617,9.2617,9.2617,9.2617,9.2617,9.2617,9.2617,9.2617,9.2617,6.5324,0.0,0.0,6.8357,0.0,0.0,6.9733,0.0,0.0,7.4603,7.5305,0.0,7.796,7.7453,7.7335,7.8155,7.8585,0.0,0.0,0.0,0.0,7.8233,7.6984,7.6086,7.5696,7.3387,0.0,7.0366,0.0,0.0,6.654,6.654,0.0,0.0,0.0,7.1112,0.0,7.6867,7.9517,8.2141,8.1987,0.0,0.0,8.2533,8.2543,8.3268,8.2857,8.2669,8.2762,8.3085,8.3254,8.3263,8.3242,8.3034,8.2771,8.2771,8.2537,8.2381,8.2771,8.2968,8.3086,8.3359,8.3906,8.4179,8.3554,8.2773,8.1992,0.0,8.0039,7.8945,0.0,0.0,0.0,0.0,0.0,0.0,0.0,0.0,0.0,0.0,0.0,0.0,0.0,0.0,0.0,0.0,0.0,0.0,0.0,0.0,0.0,8.3476,8.3554,8.4023,8.4883,8.5742,8.664,8.7539,8.9219,9.0,9.0078,9.1797,9.2617,9.2617,9.2617,9.2617,9.2617,9.2617,9.2617,9.2617,9.2617,9.2617,9.2617,9.2617,9.2617,9.2617,0.0,0.0,0.0,0.0,0.0,0.0,0.0,7.3348,0.0,7.798,0.0,7.8253,8.0509,7.9424,7.8838,7.9572,0.0,8.0782,8.0899,8.0938,8.0626,7.9994,7.9104,7.8324,7.7536,7.6443,0.0,0.0,0.0,0.0,6.9723,6.9699,0.0,0.0,0.0,0.0,0.0,8.0481,8.2234,8.2348,8.2901,8.3182,8.3159,8.2365,8.2491,8.3193,8.3396,8.3444,8.3477,8.4126,8.4417,8.4474,8.4377,8.3966,8.3504,8.3516,8.3052,8.2701,8.3326,8.3066,8.2922,8.4446,8.4331,8.4057,8.4799,8.4409,8.3825,8.3708,8.2497,8.1872,0.0,0.0,0.0,0.0,0.0,0.0,0.0,0.0,0.0,0.0,0.0,0.0,0.0,0.0,0.0,0.0,0.0,0.0,0.0,0.0,0.0,8.4726,8.3867,8.3906,8.4883,8.5664,8.6523,8.7539,8.9219,9.0,9.0078,9.1797,9.2617,9.2617,9.2617,9.2617,9.2617,9.2617,9.2617,9.2617,9.2617,9.2617,9.2617,9.2617,9.2617,9.2617,0.0,0.0,0.0,0.0,0.0,7.5385,7.6799,7.6559,7.6651,7.7975,7.8636,7.9091,7.9392,7.9299,7.9208,7.9236,7.9337,0.0,0.0,0.0,0.0,8.1226,8.0504,7.9998,7.9826,7.7571,7.5974,0.0,0.0,0.0,7.1558,7.1186,0.0,0.0,0.0,0.0,7.8731,8.1725,0.0,8.3855,8.3346,8.3543,8.4076,8.3136,8.2862,8.3126,8.4405,8.4591,8.4204,8.4289,8.4337,8.4325,8.4275,8.4173,8.404,8.4067,8.3982,8.3749,8.322,8.347,8.3929,8.4246,8.4766,8.5195,8.535,8.5325,8.5047,8.4345,8.4033,8.375,8.336,0.0,0.0,0.0,0.0,0.0,0.0,0.0,0.0,0.0,0.0,0.0,0.0,0.0,0.0,0.0,0.0,0.0,0.0,0.0,0.0,0.0,8.2969,0.0,0.0,0.0,8.5937,8.7539,8.9219,9.0,9.0078,9.1797,9.2617,9.2617,9.2617,9.2617,9.2617,9.2617,9.2617,9.2617,9.2617,9.2617,9.2617,9.2617,9.2617,9.2617,0.0,0.0,0.0,0.0,0.0,0.0,0.0,7.9484,0.0,7.9904,7.9937,8.0193,8.0999,8.037,8.0037,8.0416,8.0436,8.0649,8.1038,8.1077,8.1426,8.2223,8.1485,0.0,8.1019,7.9776,7.8336,7.6669,0.0,0.0,7.5677,7.5905,7.6549,7.7486,0.0,7.8604,0.0,0.0,0.0,8.4723,8.4275,8.4353,8.4645,8.3759,8.3695,8.4147,8.4888,8.528,8.5423,8.54,8.539,8.539,8.5351,8.5092,8.4777,8.477,8.4492,8.4126,8.3718,8.3912,8.4298,8.4766,8.4854,8.5061,8.5952,8.5846,8.5429,8.5031,8.4997,8.4961,8.4572,8.4269,0.0,0.0,0.0,0.0,0.0,0.0,0.0,0.0,0.0,0.0,0.0,0.0,0.0,0.0,0.0,0.0,0.0,0.0,0.0,0.0,0.0,0.0,0.0,0.0,8.5781,8.7539,8.9219,9.0,9.0078,9.1797,9.2617,9.2617,9.2617,9.2617,9.2617,9.2617,9.2617,9.2617,9.2617,9.2617,9.2617,9.2617,9.2617,9.2617,0.0,7.5619,0.0,0.0,7.9204,0.0,8.164,8.1654,8.162,8.1871,8.1116,8.1116,8.2393,8.1367,8.0862,8.1519,8.1558,8.1558,8.1558,8.1558,8.1945,8.276,8.2117,8.1846,8.2001,8.1846,8.0704,0.0,0.0,0.0,7.7505,7.9541,8.0932,0.0,0.0,0.0,0.0,0.0,8.4705,8.5132,8.5228,8.526,8.5252,8.4773,8.5034,8.5621,8.5621,8.6045,8.6555,8.6401,8.6354,8.6354,8.6323,8.5941,8.5461,8.5461,8.5061,8.456,8.4405,8.4374,8.4508,8.5204,8.487,8.478,8.6286,8.6132,8.5658,8.5668,8.5709,8.5782,8.5887,8.6553,0.0,0.0,0.0,0.0,0.0,0.0,0.0,0.0,0.0,0.0,0.0,0.0,0.0,0.0,0.0,0.0,0.0,0.0,0.0,0.0,0.0,8.3672,8.5429,0.0,8.5781,8.7539,8.9219,9.0,9.0078,9.1797,9.2617,9.2617,9.2617,9.2617,9.2617,9.2617,9.2617,9.2617,9.2617,9.2617,9.2617,9.2617,9.2617,9.2617,0.0,0.0,0.0,0.0,0.0,0.0,8.2496,8.2333,8.2284,8.2509,8.1799,8.1298,8.1253,8.1285,8.1259,8.1176,8.1146,8.1146,8.1146,8.1146,8.1531,8.2301,8.2301,8.2609,8.3418,8.2648,8.1803,0.0,0.0,7.8026,0.0,7.8271,8.1454,8.2263,0.0,0.0,0.0,8.5341,8.5699,8.5105,8.5799,8.6138,8.6345,8.7001,8.7249,8.7263,8.7263,8.7308,8.7204,8.6396,8.6159,8.6223,8.6126,8.6088,8.6043,8.6043,8.5966,8.5767,8.5036,8.4812,8.485,8.4927,8.4895,8.5055,8.5978,8.6159,8.6146,8.6107,8.6238,8.6366,8.6583,8.6687,8.704,0.0,0.0,0.0,0.0,0.0,0.0,0.0,0.0,0.0,0.0,0.0,0.0,0.0,0.0,0.0,0.0,0.0,0.0,8.7265,0.0,8.5508,8.7226,8.5703,8.5781,8.7539,8.9219,9.0,9.0078,9.1797,9.2617,9.2617,9.2617,9.2617,9.2617,9.2617,9.2617,9.2617,9.2617,9.2617,9.2617,9.2617,9.2617,9.2617,0.0,0.0,0.0,0.0,0.0,0.0,0.0,8.3149,8.3118,8.3201,8.2044,8.1359,8.1747,8.1908,8.213,8.2554,8.2593,8.2593,8.2593,8.2093,8.2208,8.3016,8.3093,8.3247,8.3593,8.3785,8.3464,0.0,0.0,0.0,0.0,8.3218,8.4516,8.3862,8.4296,8.4451,8.4439,8.5183,8.5529,8.5697,8.6011,8.6159,8.6268,8.6576,8.6659,8.6627,8.6627,8.6973,8.7363,8.7017,8.655,8.6126,8.6094,8.6094,8.6209,8.6748,8.6863,8.6901,8.7132,8.7171,8.7171,8.7171,8.6786,8.6632,8.7478,8.6858,8.6313,8.6813,8.6569,8.647,8.7099,8.734,8.7255,8.6722,0.0,0.0,0.0,0.0,0.0,0.0,0.0,0.0,0.0,0.0,0.0,0.0,0.0,0.0,0.0,0.0,0.0,8.9023,0.0,8.5195,8.7461,8.6289,8.6523,8.8242,8.9414,9.0273,9.082,9.2031,9.2617,9.2617,9.2617,9.2617,9.2617,9.2617,9.2617,9.2617,9.2617,9.2617,9.2617,9.2617,9.2617,9.2617,8.2284,0.0,8.3343,0.0,8.4656,8.5188,8.4433,8.4324,8.4247,8.4016,8.2939,8.2324,8.2631,8.267,8.2939,8.3555,8.3593,8.3593,8.3593,8.3016,8.2939,8.3555,8.3593,0.0,8.3978,8.4593,8.4593,8.3978,8.5401,0.0,8.2324,8.3747,8.4709,8.5247,8.5016,8.4901,8.4901,8.4632,8.4978,8.5786,8.6017,8.6247,8.6517,8.6786,8.6863,8.6863,8.6863,8.7248,8.7786,8.7786,8.7363,8.6863,8.6863,8.6863,8.6978,8.7594,8.7786,8.7902,8.8517,8.8709,8.8709,8.8709,8.8017,8.7555,8.8171,8.7171,8.6209,8.6594,8.6428,8.63,8.6748,8.6954,8.6742,8.5898,0.0,0.0,0.0,0.0,0.0,0.0,0.0,8.6445,0.0,0.0,0.0,0.0,0.0,0.0,0.0,0.0,0.0,0.0,0.0,0.0,0.0,8.664,8.7031,8.8711,8.957,9.0469,9.1328,9.2187,9.2617,9.2617,9.2617,9.2617,9.2617,9.2617,9.2617,9.2617,9.2617,9.2617,9.2617,9.2617,9.2617,9.2617,8.467,8.4863,8.5132,8.5901,8.6094,8.6094,8.6055,8.6055,8.5786,8.4978,8.4863,8.4516,8.367,8.3555,8.3593,8.3593,8.3593,8.3593,8.3593,8.3593,8.3593,0.0,0.0,8.3978,8.4863,8.4901,8.4901,8.4901,0.0,0.0,7.613,7.7015,8.0516,8.6055,8.5247,8.4901,8.4863,8.3978,8.4132,8.4978,8.5786,8.6632,8.7478,8.8325,8.8671,8.8671,8.8671,8.8671,8.8671,8.8671,8.8671,8.8671,8.8671,8.8671,8.8671,8.8671,8.8671,8.8671,8.8709,8.8709,8.8709,8.8709,8.8017,8.7401,8.7401,8.6748,8.5901,8.5093,8.5555,8.5896,8.5183,8.5028,8.5368,8.6423,0.0,0.0,0.0,0.0,0.0,0.0,8.7476,8.8203,8.7539,0.0,0.0,0.0,0.0,0.0,0.0,0.0,0.0,8.6367,8.6211,0.0,8.75,8.664,8.7031,8.8711,8.957,9.0469,9.1328,9.2187,9.2617,9.2617,9.2617,9.2617,9.2617,9.2617,9.2617,9.2617,9.2617,9.2617,9.2617,9.2617,9.2617,9.2617,8.567,8.5709,8.5978,8.6824,8.6978,8.6978,8.6978,8.6978,8.6901,8.6632,8.6594,8.6709,8.7017,8.5517,8.4709,0.0,8.5286,8.5286,0.0,8.5286,8.5286,8.5286,8.5863,8.6055,8.5709,8.6286,8.6324,8.5709,0.0,0.0,8.3747,8.2901,8.3478,8.5247,8.4401,8.4324,8.4901,8.4593,8.4978,8.5747,8.6017,8.6286,8.6555,8.6824,8.7286,8.7825,8.7825,8.8556,8.9517,8.9517,8.9902,9.0402,9.0402,8.921,8.794,8.8517,8.8286,8.794,8.8517,8.8709,8.8709,8.8709,8.8479,8.8286,8.8286,8.7132,8.5863,8.5093,8.5093,8.5363,8.5703,8.528,8.5043,8.5445,8.4078,0.0,8.3205,0.0,8.3283,8.3979,8.5152,8.5871,0.0,8.8047,0.0,0.0,0.0,0.0,0.0,0.0,0.0,0.0,8.6523,0.0,8.8281,8.8047,8.8476,8.9609,9.0469,9.1328,9.2187,9.2461,9.2617,9.2617,9.2617,9.2617,9.2617,9.2617,9.2617,9.2617,9.2617,9.2617,9.2617,9.2617,9.2617,9.2617,8.7094,8.7094,8.7248,8.7786,8.7902,8.7979,8.8286,8.8325,8.8325,8.8325,8.8325,8.844,8.8671,8.7286,0.0,8.7017,8.7094,8.7094,8.7094,8.7094,8.7094,8.7094,8.7286,8.7286,8.7094,8.6978,0.0,8.6594,8.6517,8.6286,8.594,8.4901,8.4593,8.4863,8.3978,8.4093,8.4901,8.4555,8.4901,8.567,8.567,8.6017,8.6594,8.6594,8.7132,8.794,8.8248,8.9017,8.994,9.0287,9.0748,9.121,9.121,8.9863,8.8517,8.9363,8.9248,8.894,8.9479,8.9633,8.9556,8.9248,8.8902,8.8517,8.7863,8.6863,8.5863,8.5093,8.4901,8.4939,8.5132,8.4747,8.4433,8.4465,8.3672,8.3037,8.3094,0.0,8.3643,0.0,0.0,0.0,0.0,8.7148,8.789,0.0,0.0,0.0,0.0,0.0,0.0,8.8086,8.6328,8.6133,8.7734,8.8398,8.914,9.0,9.1211,9.207,9.2617,9.2617,9.2617,9.2617,9.2617,9.2617,9.2617,9.2617,9.2617,9.2617,9.2617,9.2617,9.2617,9.2617,9.2617,9.2656,8.8709,8.8709,8.8709,0.0,8.8786,8.9056,8.9863,8.9979,8.9979,8.9979,8.994,8.9633,8.894,8.8825,8.8786,8.8863,0.0,0.0,8.8709,8.8748,8.8786,8.8786,8.8055,8.7979,8.8671,8.7094,8.6632,8.7325,8.5747,8.4555,8.3747,8.3708,8.4132,8.4863,8.3978,8.4093,8.4863,8.4016,8.417,8.4978,8.5055,8.6017,8.7401,8.7478,8.8017,8.8863,8.9633,8.994,9.0133,9.0941,9.121,9.121,9.121,9.0633,9.0133,9.0902,9.1056,9.1018,9.1018,9.1018,9.0825,9.0017,8.9248,8.8248,8.6555,8.6209,8.5978,8.517,8.5016,8.4824,8.3939,8.3824,8.3824,8.3785,8.3772,8.3796,8.3796,8.3838,8.4582,8.649,0.0,0.0,8.7265,8.8008,8.789,0.0,0.0,0.0,0.0,0.0,8.9258,8.5117,8.5781,8.625,8.6367,8.7969,8.9258,9.0195,9.1836,9.2617,9.2617,9.2617,9.2617,9.2617,9.2617,9.2617,9.2617,9.2617,9.2617,9.2617,9.2617,9.2617,9.2617,9.2656,9.2695,9.2812,0.0,0.0,8.8863,8.9517,8.9594,8.9902,9.0748,9.0902,9.0902,9.0902,9.0325,9.0094,9.0556,9.0017,8.9902,9.0556,8.944,8.8709,8.8709,8.9286,8.9633,8.9633,9.0056,8.9787,8.8709,8.8286,8.7517,8.6401,8.6017,8.5709,8.5478,8.4901,8.4709,8.4863,8.3978,8.4093,8.4901,8.467,8.5055,8.5863,8.6555,8.7055,8.7478,8.8132,8.8902,8.9633,8.9825,9.0325,9.0941,9.1133,9.121,9.121,9.121,9.1056,9.0787,9.0364,8.9787,8.9286,8.9286,8.9286,8.9248,8.9017,8.8825,8.8402,8.7325,8.7094,8.6863,8.5978,8.6363,8.6555,8.567,8.6055,8.6286,8.5632,8.5043,8.4682,8.4682,8.4288,8.4165,8.4635,8.4986,8.519,8.5273,8.5586,8.6719,0.0,0.0,0.0,0.0,8.9609,8.8242,8.5976,8.6094,8.6797,8.8086,8.914,9.0469,9.1992,9.2383,9.2617,9.2617,9.2617,9.2617,9.2617,9.2617,9.2617,9.2617,9.2617,9.2617,9.2617,9.2617,9.2617,9.2695,9.3359,9.3594,9.3711,8.9825,8.9825,8.9979,9.0402,9.0479,9.0633,9.1133,9.121,9.121,9.121,9.0787,9.0671,9.1168,9.0787,9.0671,9.1171,9.0364,8.9671,8.9286,8.9671,8.9748,8.9363,8.9787,8.9633,8.8709,8.8286,8.7286,8.5555,8.5555,8.5363,8.4939,8.4516,8.4516,8.4901,8.4401,8.467,8.544,8.544,8.594,8.6748,8.7209,8.7863,8.8594,8.9056,8.9787,9.0479,9.0479,9.0787,9.121,9.121,9.121,9.121,9.121,9.121,9.1133,9.0633,9.0171,8.9825,8.9825,8.9825,8.9748,8.9363,8.8979,8.8556,8.8094,8.7979,8.7863,8.7401,8.7363,8.7248,8.6786,8.7094,8.7248,8.6786,8.6357,8.6082,8.6082,8.5459,8.4905,8.4597,8.4805,8.4883,8.4608,8.5078,8.6211,8.8125,8.7773,0.0,8.9492,8.9023,8.8125,8.6836,8.7148,8.7773,8.8672,8.9961,9.1289,9.2617,9.2617,9.2617,9.2617,9.2617,9.2617,9.2617,9.2617,9.2617,9.2617,9.2617,9.2617,9.2656,9.3047,9.3203,9.3281,9.4179,9.4492,9.4609,9.121,9.121,9.121,9.121,9.121,9.121,9.121,9.121,9.121,9.121,9.1095,9.1056,9.1206,9.1091,9.1056,9.121,9.121,9.0902,9.0133,9.0094,8.9787,8.9094,8.9094,8.894,8.8709,8.7709,8.6517,8.5093,8.5093,8.4709,8.3978,8.3978,8.4362,8.5093,8.5209,8.567,8.6286,8.644,8.6901,8.7594,8.7709,8.8632,8.9902,9.0056,9.0556,9.121,9.121,9.121,9.121,9.121,9.121,9.121,9.121,9.121,9.121,9.121,9.121,9.121,9.121,9.121,9.1018,9.0287,8.9594,8.9094,8.9094,8.9094,8.9094,8.9094,8.8479,8.794,8.7786,8.7786,8.7863,8.8132,8.7863,8.7709,8.8132,8.7237,8.6351,8.5824,8.5869,8.5762,8.5299,8.6049,8.6601,8.6719,8.7422,8.789,8.789,8.8515,8.8594,8.789,8.8554,8.8945,8.9101,9.0703,9.1875,9.2617,9.2617,9.2617,9.2617,9.2617,9.2617,9.2617,9.2617,9.2617,9.2617,9.2734,9.2812,9.289,9.375,9.4101,9.4219,9.5078,9.539,9.5508,9.121,9.121,9.121,9.121,9.121,9.121,9.121,9.121,9.121,9.121,9.0559,9.0367,9.1133,9.0552,9.0398,9.1133,9.121,9.1133,9.1018,9.1018,9.0941,9.0825,9.0825,9.0133,8.8709,8.7132,8.617,8.5901,8.5901,8.5824,8.5709,8.5709,8.5786,8.594,8.6671,8.7094,8.7248,8.7979,8.8363,8.8556,8.9248,8.9671,8.9979,9.071,9.1095,9.121,9.121,9.121,9.121,9.121,9.121,9.121,9.121,9.121,9.121,9.121,9.121,9.121,9.121,9.121,9.1171,9.1018,9.0902,9.0825,9.0825,9.0825,9.0825,9.0825,9.071,9.0402,8.9671,8.9517,8.9979,9.1479,8.9902,8.9248,9.1402,8.9748,8.8282,8.8171,8.832,8.8405,8.835,8.8813,8.914,8.914,8.9453,8.9609,8.9609,8.9726,8.9726,8.9609,8.9726,9.0156,9.0898,9.1914,9.2461,9.2617,9.2617,9.2617,9.2617,9.2617,9.2617,9.2617,9.2617,9.2617,9.2656,9.3398,9.3711,9.3789,9.4648,9.5,9.5117,9.5976,9.6289,9.6406,9.121,9.121,9.121,9.121,9.121,9.121,9.121,9.121,9.121,9.121,9.0864,9.0748,9.1171,9.0825,9.0748,9.1171,9.121,9.121,9.121,9.0787,9.0325,8.9863,8.9863,8.9479,8.8709,8.7902,8.7517,8.7517,8.7517,8.7517,8.7517,8.7517,8.7517,8.7517,8.7902,8.8094,8.8132,8.8517,8.894,8.9363,8.9748,9.0171,9.0633,9.1056,9.121,9.121,9.121,9.121,9.121,9.121,9.121,9.121,9.121,9.121,9.121,9.121,9.121,9.121,9.121,9.121,9.121,9.121,9.121,9.121,9.121,9.121,9.121,9.121,9.121,9.1095,9.0671,9.0594,9.0864,9.1672,9.0402,8.9748,9.0941,8.971,8.8709,8.8709,8.8815,8.8892,8.8969,8.9236,8.9441,8.9571,8.9755,8.9844,8.9883,9.039,9.0703,9.0703,9.0703,9.1133,9.1992,9.2383,9.2617,9.2617,9.2617,9.2617,9.2617,9.2617,9.2617,9.2617,9.3086,9.3281,9.3359,9.4258,9.4609,9.4687,9.5547,9.5898,9.6015,9.6836,9.7148,9.7187,9.121,9.121,9.121,9.121,9.121,9.121,9.121,9.121,9.121,9.121,9.121,9.121,9.121,9.121,9.121,9.121,9.121,9.121,9.121,9.0559,8.9906,8.9325,8.9094,8.8979,8.8979,8.8786,8.8709,8.8709,8.8709,8.8709,8.8709,8.8709,8.8709,8.8709,8.8902,8.8979,8.8979,8.921,8.9633,9.021,9.021,9.0594,9.121,9.121,9.121,9.121,9.121,9.121,9.121,9.121,9.121,9.121,9.121,9.121,9.121,9.121,9.121,9.121,9.121,9.121,9.121,9.121,9.121,9.121,9.121,9.121,9.121,9.121,9.121,9.121,9.121,9.121,9.1402,9.1979,9.1018,9.0402,9.1018,9.0056,8.9286,8.9286,8.9354,8.9393,8.9517,8.9585,8.9736,8.9936,9.0128,9.0286,9.0351,9.1133,9.1562,9.1601,9.1601,9.1914,9.2578,9.2617,9.2617,9.2617,9.2617,9.2617,9.2617,9.2812,9.289,9.2969,9.3828,9.4219,9.4258,9.5156,9.5508,9.5586,9.6445,9.6797,9.6836,9.7461,9.7695,9.7695,9.121,9.121,9.121,9.121,9.121,9.121,9.121,9.121,9.121,9.121,9.121,9.121,9.121,9.121,9.121,9.121,9.121,9.121,9.121,9.1133,9.1095,9.1018,9.0248,8.9825,8.9825,8.9094,8.8709,8.8709,8.8709,8.8709,8.8709,8.8709,8.8709,8.8709,8.9479,8.9825,8.9863,9.0671,9.1056,9.1095,9.1095,9.1133,9.121,9.121,9.121,9.121,9.121,9.121,9.121,9.121,9.121,9.121,9.121,9.121,9.121,9.121,9.121,9.121,9.121,9.121,9.121,9.121,9.121,9.121,9.121,9.121,9.121,9.121,9.121,9.121,9.121,9.121,9.1979,9.4326,9.2672,9.1941,9.4287,9.2556,9.1018,9.1018,9.1018,9.1018,9.1056,9.121,9.1322,9.1352,9.1659,9.1878,9.203,9.2226,9.2383,9.25,9.25,9.2539,9.2617,9.2617,9.2617,9.2617,9.2617,9.2617,9.2617,9.3437,9.3789,9.3867,9.4726,9.5117,9.5156,9.6054,9.6406,9.6484,9.7304,9.7617,9.7617,9.7695,9.7695,9.7695,9.121,9.121,9.121,9.121,9.121,9.121,9.121,9.121,9.121,9.121,9.121,9.121,9.121,9.121,9.121,9.121,9.121,9.121,9.121,9.121,9.121,9.121,9.0902,9.071,9.071,9.0402,9.0248,9.0248,9.0248,9.0248,9.0248,9.0248,9.0248,9.0248,9.0556,9.071,9.0748,9.1056,9.121,9.121,9.121,9.121,9.121,9.121,9.121,9.121,9.121,9.121,9.121,9.121,9.121,9.121,9.121,9.121,9.121,9.121,9.121,9.121,9.121,9.121,9.121,9.121,9.121,9.121,9.121,9.121,9.121,9.121,9.121,9.121,9.121,9.121,9.1518,9.2479,9.1825,9.1556,9.2518,9.1825,9.121,9.121,9.121,9.121,9.121,9.1287,9.1322,9.1356,9.1638,9.1875,9.1935,9.2261,9.2461,9.2617,9.2617,9.2617,9.2617,9.2617,9.2617,9.2617,9.3164,9.3398,9.3437,9.4297,9.4726,9.4765,9.5625,9.6015,9.6054,9.6914,9.7226,9.7265,9.7578,9.7695,9.7695,9.7695,9.7695,9.7695,9.121,9.121,9.121,9.121,9.121,9.121,9.121,9.121,9.121,9.121,9.121,9.121,9.121,9.121,9.121,9.121,9.121,9.121,9.121,9.121,9.121,9.121,9.121,9.121,9.121,9.121,9.121,9.121,9.121,9.121,9.121,9.121,9.121,9.121,9.121,9.121,9.121,9.121,9.121,9.121,9.121,9.121,9.121,9.121,9.121,9.121,9.121,9.121,9.121,9.121,9.121,9.121,9.121,9.121,9.121,9.121,9.121,9.121,9.121,9.121,9.121,9.121,9.121,9.121,9.121,9.121,9.121,9.121,9.121,9.121,9.121,9.121,9.121,9.121,9.121,9.121,9.121,9.121,9.121,9.121,9.121,9.121,9.121,9.121,9.1245,9.1275,9.1462,9.1631,9.1793,9.2188,9.2422,9.2539,9.2851,9.3008,9.3008,9.3008,9.3008,9.3008,9.3906,9.4297,9.4336,9.5195,9.5625,9.5664,9.6523,9.6875,9.6914,9.7461,9.7695,9.7695,9.7695,9.7695,9.7695,9.7695,9.7695,9.7695,9.121,9.121,9.121,9.121,9.121,9.121,9.121,9.121,9.121,9.121,9.121,9.121,9.121,9.121,9.121,9.121,9.121,9.121,9.121,9.121,9.121,9.121,9.121,9.121,9.121,9.121,9.121,9.121,9.121,9.121,9.121,9.121,9.121,9.121,9.121,9.121,9.121,9.121,9.121,9.121,9.121,9.121,9.121,9.121,9.121,9.121,9.121,9.121,9.121,9.121,9.121,9.121,9.121,9.121,9.121,9.121,9.121,9.121,9.121,9.121,9.121,9.121,9.121,9.121,9.121,9.121,9.121,9.121,9.121,9.121,9.121,9.121,9.121,9.121,9.121,9.121,9.121,9.121,9.121,9.121,9.121,9.121,9.121,9.121,9.121,9.121,9.1241,9.1445,9.1793,9.2178,9.2422,9.2422,9.3398,9.3906,9.3906,9.3906,9.3906,9.3906,9.4804,9.5195,9.5234,9.6094,9.6523,9.6562,9.7344,9.7695,9.7695,9.7695,9.7695,9.7695,9.7695,9.7695,9.7695,9.7695,9.7695,9.7695,9.121,9.121,9.121,9.121,9.121,9.121,9.121,9.121,9.121,9.121,9.121,9.121,9.121,9.121,9.121,9.121,9.121,9.121,9.121,9.121,9.121,9.121,9.121,9.121,9.121,9.121,9.121,9.121,9.121,9.121,9.121,9.121,9.121,9.121,9.121,9.121,9.121,9.121,9.121,9.121,9.121,9.121,9.121,9.121,9.121,9.121,9.121,9.121,9.121,9.121,9.121,9.121,9.121,9.121,9.121,9.121,9.121,9.121,9.121,9.121,9.121,9.121,9.121,9.121,9.121,9.121,9.121,9.121,9.121,9.121,9.121,9.121,9.121,9.121,9.121,9.121,9.121,9.121,9.121,9.121,9.121,9.121,9.121,9.121,9.1245,9.1275,9.1406,9.1879,9.276,9.2992,9.3419,9.414,9.457,9.4804,9.4804,9.4804,9.4804,9.4804,9.5703,9.6094,9.6133,9.6953,9.7344,9.7344,9.7617,9.7695,9.7695,9.7695,9.7695,9.7695,9.7695,9.7695,9.7695,9.7695,9.7695,9.7695,9.121,9.121,9.121,9.121,9.121,9.121,9.121,9.121,9.121,9.121,9.121,9.121,9.121,9.121,9.121,9.121,9.121,9.121,9.121,9.121,9.121,9.121,9.121,9.121,9.121,9.121,9.121,9.121,9.121,9.121,9.121,9.121,9.121,9.121,9.121,9.121,9.121,9.121,9.121,9.121,9.121,9.121,9.121,9.121,9.121,9.121,9.121,9.121,9.121,9.121,9.121,9.121,9.121,9.121,9.121,9.121,9.121,9.121,9.121,9.121,9.121,9.121,9.121,9.121,9.121,9.121,9.121,9.121,9.121,9.121,9.121,9.121,9.121,9.121,9.121,9.121,9.121,9.121,9.121,9.121,9.121,9.121,9.121,9.121,9.136,9.1771,9.1971,9.2518,9.3475,9.3727,9.413,9.4805,9.5309,9.5625,9.5703,9.6015,9.6015,9.5703,9.6562,9.6953,9.6992,9.7461,9.7695,9.7695,9.7695,9.7695,9.7695,9.7695,9.7695,9.7695,9.7695,9.7695,9.7695,9.7695,9.7695,9.7695,9.121,9.121,9.121,9.121,9.121,9.121,9.121,9.121,9.121,9.121,9.121,9.121,9.121,9.121,9.121,9.121,9.121,9.121,9.121,9.121,9.121,9.121,9.121,9.121,9.121,9.121,9.121,9.121,9.121,9.121,9.121,9.121,9.121,9.121,9.121,9.121,9.121,9.121,9.121,9.121,9.121,9.121,9.121,9.121,9.121,9.121,9.121,9.121,9.121,9.121,9.1248,9.1287,9.121,9.121,9.121,9.121,9.121,9.121,9.121,9.121,9.121,9.121,9.121,9.121,9.121,9.121,9.121,9.121,9.121,9.121,9.121,9.121,9.121,9.121,9.121,9.121,9.121,9.121,9.121,9.121,9.121,9.1248,9.1325,9.1402,9.1818,9.2657,9.2859,9.33,9.418,9.4442,9.4705,9.4879,9.5826,9.6406,9.6601,9.7344,9.7344,9.6601,9.7344,9.7695,9.7695,9.7695,9.7695,9.7695,9.7695,9.7695,9.7695,9.7695,9.7695,9.7695,9.7695,9.7695,9.7695,9.7695,9.7694,9.7687,9.121,9.121,9.121,9.121,9.121,9.121,9.121,9.121,9.121,9.121,9.121,9.121,9.121,9.121,9.121,9.121,9.121,9.121,9.121,9.121,9.121,9.121,9.121,9.121,9.121,9.121,9.121,9.121,9.121,9.121,9.121,9.121,9.121,9.121,9.121,9.121,9.121,9.121,9.121,9.121,9.121,9.121,9.121,9.121,9.121,9.121,9.121,9.121,9.121,9.121,9.1633,9.2095,9.1441,9.121,9.121,9.121,9.121,9.121,9.121,9.121,9.121,9.121,9.121,9.121,9.121,9.121,9.121,9.121,9.121,9.121,9.121,9.121,9.121,9.121,9.121,9.121,9.121,9.121,9.121,9.121,9.121,9.1479,9.2133,9.2926,9.3456,9.3682,9.3802,9.4278,9.5129,9.539,9.5796,9.6476,9.6978,9.7226,9.7265,9.7578,9.7617,9.7422,9.7617,9.7695,9.7695,9.7695,9.7695,9.7695,9.7695,9.7695,9.7695,9.7695,9.7695,9.7695,9.7695,9.7695,9.7695,9.7695,9.771,9.7658,9.121,9.121,9.121,9.121,9.121,9.121,9.121,9.121,9.121,9.121,9.121,9.121,9.121,9.121,9.121,9.121,9.121,9.121,9.121,9.121,9.121,9.121,9.121,9.121,9.121,9.121,9.121,9.121,9.121,9.121,9.121,9.121,9.121,9.121,9.121,9.121,9.121,9.121,9.121,9.121,9.121,9.121,9.121,9.121,9.1479,9.1825,9.1825,9.2056,9.2402,9.2402,9.271,9.2941,9.2095,9.1825,9.1748,9.1325,9.121,9.121,9.121,9.121,9.121,9.121,9.121,9.121,9.121,9.121,9.121,9.121,9.121,9.121,9.121,9.121,9.121,9.121,9.121,9.121,9.121,9.121,9.1364,9.1787,9.1825,9.2133,9.2979,9.3654,9.4177,9.4602,9.4721,9.5197,9.6087,9.6203,9.6512,9.6976,9.7169,9.7304,9.7409,9.7487,9.7526,9.7526,9.7577,9.7641,9.7695,9.7617,9.7656,9.7695,9.7695,9.7695,9.7695,9.7695,9.7695,9.7695,9.7695,9.7701,9.7681,9.7642,9.7554,9.7503,9.121,9.121,9.121,9.121,9.121,9.121,9.121,9.121,9.121,9.121,9.121,9.121,9.121,9.121,9.121,9.121,9.121,9.121,9.121,9.121,9.121,9.121,9.121,9.121,9.121,9.121,9.121,9.121,9.121,9.121,9.121,9.121,9.121,9.121,9.121,9.121,9.121,9.121,9.121,9.121,9.121,9.1287,9.1441,9.1441,9.1979,9.271,9.271,9.321,9.3903,9.3749,9.3787,9.3787,9.2941,9.271,9.2556,9.1825,9.1518,9.1441,9.1441,9.1325,9.121,9.121,9.121,9.121,9.121,9.121,9.121,9.121,9.121,9.121,9.121,9.121,9.121,9.121,9.1325,9.1441,9.1441,9.1556,9.1902,9.2633,9.2826,9.3172,9.3864,9.4232,9.4718,9.5451,9.5648,9.6048,9.6744,9.6783,9.686,9.6938,9.6976,9.7109,9.7243,9.7299,9.7299,9.7282,9.738,9.7497,9.7628,9.7527,9.7533,9.7611,9.7655,9.7655,9.7648,9.7676,9.7637,9.765,9.765,9.7643,9.7623,9.7499,9.7353,9.7246,9.121,9.121,9.121,9.121,9.121,9.121,9.121,9.121,9.121,9.121,9.121,9.121,9.121,9.121,9.121,9.121,9.121,9.121,9.121,9.121,9.121,9.121,9.121,9.121,9.121,9.121,9.121,9.121,9.121,9.121,9.121,9.121,9.121,9.121,9.121,9.121,9.121,9.121,9.121,9.121,9.121,9.1633,9.2326,9.2326,9.2826,9.3518,9.3518,9.4095,9.4711,9.3941,9.421,9.4672,9.3787,9.3518,9.3518,9.3403,9.2864,9.2326,9.2326,9.1787,9.121,9.121,9.121,9.121,9.121,9.121,9.121,9.121,9.121,9.121,9.121,9.121,9.121,9.121,9.1825,9.2326,9.2326,9.2903,9.3403,9.3518,9.421,9.4711,9.4788,9.5658,9.6222,9.6338,9.6537,9.6667,9.6783,9.6783,9.6822,9.6822,9.6938,9.7035,9.7014,9.7236,9.7313,9.7313,9.7151,9.718,9.7342,9.7355,9.7318,9.737,9.7485,9.7472,9.7344,9.7493,9.7479,9.7357,9.7357,9.7355,9.7342,9.7328,9.719,9.7053,9.121,9.121,9.121,9.121,9.121,9.121,9.121,9.121,9.121,9.121,9.121,9.121,9.121,9.121,9.121,9.121,9.121,9.121,9.121,9.121,9.121,9.121,9.121,9.121,9.121,9.121,9.121,9.121,9.121,9.121,9.121,9.121,9.121,9.121,9.121,9.121,9.1248,9.171,9.1941,9.1979,9.2402,9.2826,9.3172,9.3172,9.3672,9.448,9.498,9.5403,9.5672,9.5288,9.5403,9.5557,9.4711,9.4095,9.3595,9.3172,9.2441,9.1787,9.1787,9.1479,9.121,9.121,9.121,9.121,9.121,9.121,9.121,9.121,9.121,9.121,9.121,9.1595,9.1941,9.1941,9.2633,9.3172,9.3172,9.348,9.3864,9.4364,9.5211,9.5711,9.5711,9.6198,9.6492,9.6492,9.6692,9.6783,9.6783,9.6783,9.6783,9.6783,9.686,9.6899,9.6899,9.6976,9.7015,9.7015,9.6938,9.7015,9.7315,9.7173,9.7192,9.7293,9.7362,9.7349,9.731,9.7342,9.734,9.7309,9.7309,9.7231,9.7207,9.7285,9.7131,9.6899]},{"header":{"parameterUnit":"m.s-1","parameterCategory":1,"la1":30.6,"la2":28.766,"lo1":-90.7593,"lo2":-88.6598,"dx":0.0162,"dy":0.0183,"nx":116,"ny":114,"refTime":"2022-12-20T00:00:00:Z","depth":0,"parameterNumber":3,"parameterNumberName":"V-component_of_WINDS"},"data":[0.0,0.0,0.0,0.0,0.0,0.0,0.0,0.0,0.0,0.0,0.0,0.0,0.0,0.0,0.0,0.0,0.0,0.0,0.0,0.0,0.0,0.0,0.0,0.0,0.0,0.0,0.0,0.0,0.0,0.0,0.0,0.0,0.0,0.0,0.0,0.0,0.0,0.0,0.0,0.0,0.0,0.0,0.0,0.0,0.0,0.0,0.0,0.0,0.0,0.0,0.0,0.0,0.0,0.0,0.0,0.0,0.0,0.0,0.0,0.0,0.0,0.0,0.0,0.0,0.0,0.0,0.0,0.0,0.0,0.0,0.0,0.0,0.0,0.0,0.0,0.0,0.0,0.0,0.0,0.0,0.0,0.0,0.0,0.0,0.0,0.0,0.0,0.0,0.0,0.0,0.0,0.0,0.0,0.0,0.0,0.0,0.0,0.0,0.0,0.0,0.0,0.0,0.0,0.0,0.0,0.0,0.0,0.0,0.0,0.0,0.0,0.0,0.0,0.0,0.0,0.0,0.0,0.0,0.0,0.0,0.0,0.0,0.0,0.0,0.0,0.0,0.0,0.0,0.0,0.0,0.0,0.0,0.0,0.0,0.0,0.0,0.0,0.0,0.0,0.0,0.0,0.0,0.0,0.0,0.0,0.0,0.0,0.0,0.0,0.0,0.0,0.0,0.0,0.0,0.0,0.0,0.0,0.0,0.0,0.0,0.0,0.0,0.0,0.0,0.0,0.0,0.0,0.0,0.0,0.0,0.0,0.0,0.0,0.0,0.0,0.0,0.0,0.0,0.0,0.0,0.0,0.0,0.0,0.0,0.0,0.0,0.0,0.0,0.0,0.0,0.0,0.0,0.0,0.0,0.0,0.0,0.0,0.0,0.0,0.0,0.0,0.0,0.0,0.0,0.0,0.0,0.0,0.0,0.0,0.0,0.0,0.0,0.0,0.0,0.0,0.0,0.0,0.0,0.0,0.0,0.0,0.0,0.0,0.0,0.0,0.0,0.0,0.0,0.0,0.0,0.0,0.0,0.0,0.0,0.0,0.0,0.0,0.0,0.0,0.0,0.0,0.0,0.0,0.0,0.0,0.0,0.0,0.0,0.0,0.0,0.0,0.0,0.0,0.0,0.0,0.0,0.0,0.0,0.0,0.0,0.0,0.0,0.0,0.0,0.0,0.0,0.0,0.0,0.0,0.0,0.0,0.0,0.0,0.0,0.0,0.0,0.0,0.0,0.0,0.0,0.0,0.0,0.0,0.0,0.0,0.0,0.0,0.0,0.0,0.0,0.0,0.0,0.0,0.0,0.0,0.0,0.0,0.0,0.0,0.0,0.0,0.0,0.0,0.0,0.0,0.0,0.0,0.0,0.0,0.0,0.0,0.0,0.0,0.0,0.0,0.0,0.0,0.0,0.0,0.0,0.0,0.0,0.0,0.0,0.0,0.0,0.0,0.0,0.0,0.0,0.0,0.0,0.0,0.0,0.0,0.0,0.0,0.0,0.0,0.0,0.0,0.0,0.0,0.0,0.0,0.0,0.0,0.0,0.0,0.0,0.0,0.0,0.0,0.0,0.0,0.0,0.0,0.0,0.0,0.0,0.0,0.0,0.0,0.0,0.0,0.0,0.0,0.0,0.0,0.0,0.0,0.0,0.0,0.0,0.0,0.0,0.0,0.0,0.0,0.0,0.0,0.0,0.0,0.0,0.0,0.0,0.0,0.0,0.0,0.0,0.0,0.0,0.0,0.0,0.0,0.0,0.0,0.0,0.0,0.0,0.0,0.0,0.0,0.0,0.0,0.0,0.0,0.0,0.0,0.0,0.0,0.0,0.0,0.0,0.0,0.0,0.0,0.0,0.0,0.0,0.0,0.0,0.0,0.0,0.0,0.0,0.0,0.0,0.0,0.0,0.0,0.0,0.0,0.0,0.0,0.0,0.0,0.0,0.0,0.0,0.0,0.0,0.0,0.0,0.0,0.0,0.0,0.0,0.0,0.0,0.0,0.0,0.0,0.0,0.0,0.0,0.0,0.0,0.0,0.0,0.0,0.0,0.0,0.0,0.0,0.0,0.0,0.0,0.0,0.0,0.0,0.0,0.0,0.0,0.0,0.0,0.0,0.0,0.0,0.0,0.0,0.0,0.0,0.0,0.0,0.0,0.0,0.0,0.0,0.0,0.0,0.0,0.0,0.0,0.0,0.0,0.0,0.0,0.0,0.0,0.0,0.0,0.0,0.0,0.0,0.0,0.0,0.0,0.0,0.0,0.0,0.0,0.0,0.0,0.0,0.0,0.0,0.0,0.0,0.0,0.0,0.0,0.0,0.0,0.0,0.0,0.0,0.0,0.0,0.0,0.0,0.0,0.0,0.0,0.0,0.0,0.0,0.0,0.0,0.0,0.0,0.0,0.0,0.0,0.0,0.0,0.0,0.0,0.0,0.0,0.0,0.0,0.0,0.0,0.0,0.0,0.0,0.0,0.0,0.0,0.0,0.0,0.0,0.0,0.0,0.0,0.0,0.0,0.0,0.0,0.0,0.0,0.0,0.0,0.0,0.0,0.0,0.0,0.0,0.0,0.0,0.0,0.0,0.0,0.0,0.0,0.0,0.0,0.0,0.0,0.0,0.0,0.0,0.0,0.0,0.0,0.0,0.0,0.0,0.0,0.0,0.0,0.0,0.0,0.0,0.0,0.0,0.0,0.0,0.0,0.0,0.0,0.0,0.0,0.0,0.0,0.0,0.0,0.0,0.0,0.0,0.0,0.0,0.0,0.0,0.0,0.0,0.0,0.0,0.0,0.0,0.0,0.0,0.0,0.0,0.0,0.0,0.0,0.0,0.0,0.0,0.0,0.0,0.0,0.0,0.0,0.0,0.0,0.0,0.0,0.0,0.0,0.0,0.0,0.0,0.0,0.0,0.0,0.0,0.0,0.0,0.0,0.0,0.0,0.0,0.0,0.0,0.0,0.0,0.0,0.0,0.0,0.0,0.0,0.0,0.0,0.0,0.0,0.0,0.0,0.0,0.0,0.0,0.0,0.0,0.0,0.0,0.0,0.0,0.0,0.0,0.0,0.0,0.0,0.0,0.0,0.0,0.0,0.0,0.0,0.0,0.0,0.0,0.0,0.0,0.0,0.0,0.0,0.0,0.0,0.0,0.0,0.0,0.0,0.0,0.0,0.0,0.0,0.0,0.0,0.0,0.0,0.0,0.0,0.0,0.0,0.0,0.0,0.0,0.0,0.0,0.0,0.0,0.0,0.0,0.0,0.0,0.0,0.0,0.0,0.0,0.0,0.0,0.0,0.0,0.0,0.0,0.0,0.0,0.0,0.0,0.0,0.0,0.0,0.0,0.0,0.0,0.0,0.0,0.0,0.0,0.0,0.0,0.0,0.0,0.0,0.0,0.0,0.0,0.0,0.0,0.0,0.0,0.0,0.0,0.0,0.0,0.0,0.0,0.0,0.0,0.0,0.0,0.0,0.0,0.0,0.0,0.0,0.0,0.0,0.0,0.0,0.0,0.0,0.0,0.0,0.0,0.0,0.0,0.0,0.0,0.0,0.0,0.0,0.0,0.0,0.0,0.0,0.0,0.0,0.0,0.0,0.0,0.0,0.0,0.0,0.0,0.0,0.0,0.0,0.0,0.0,0.0,0.0,0.0,0.0,0.0,0.0,0.0,0.0,0.0,0.0,0.0,0.0,0.0,0.0,0.0,0.0,0.0,0.0,0.0,0.0,0.0,0.0,0.0,0.0,0.0,0.0,0.0,0.0,0.0,0.0,0.0,0.0,0.0,0.0,0.0,0.0,0.0,0.0,0.0,0.0,0.0,0.0,0.0,0.0,0.0,0.0,0.0,0.0,0.0,0.0,0.0,0.0,0.0,0.0,0.0,0.0,0.0,0.0,0.0,0.0,0.0,0.0,0.0,0.0,0.0,0.0,0.0,0.0,0.0,0.0,0.0,0.0,0.0,0.0,0.0,0.0,0.0,0.0,0.0,0.0,0.0,0.0,0.0,0.0,0.0,0.0,0.0,0.0,0.0,0.0,0.0,0.0,0.0,0.0,0.0,0.0,0.0,0.0,0.0,0.0,0.0,0.0,0.0,0.0,0.0,0.0,0.0,0.0,0.0,0.0,0.0,0.0,0.0,0.0,0.0,0.0,0.0,0.0,0.0,0.0,0.0,0.0,0.0,0.0,0.0,0.0,0.0,0.0,0.0,0.0,0.0,0.0,0.0,0.0,0.0,0.0,0.0,0.0,0.0,0.0,0.0,0.0,0.0,0.0,0.0,0.0,0.0,0.0,0.0,0.0,0.0,0.0,0.0,0.0,0.0,0.0,0.0,0.0,0.0,0.0,0.0,0.0,0.0,0.0,0.0,0.0,0.0,0.0,0.0,0.0,0.0,0.0,0.0,0.0,0.0,0.0,0.0,0.0,0.0,0.0,0.0,0.0,0.0,0.0,0.0,0.0,0.0,0.0,0.0,0.0,0.0,0.0,0.0,0.0,0.0,0.0,0.0,0.0,0.0,0.0,0.0,0.0,0.0,0.0,0.0,0.0,0.0,0.0,0.0,0.0,0.0,0.0,0.0,0.0,0.0,0.0,0.0,0.0,0.0,0.0,0.0,0.0,0.0,0.0,0.0,0.0,0.0,0.0,0.0,0.0,0.0,0.0,0.0,0.0,0.0,0.0,0.0,0.0,0.0,0.0,0.0,0.0,0.0,0.0,0.0,0.0,0.0,0.0,0.0,0.0,0.0,0.0,0.0,0.0,0.0,0.0,0.0,0.0,0.0,0.0,0.0,0.0,0.0,0.0,0.0,0.0,0.0,0.0,0.0,0.0,0.0,0.0,0.0,0.0,0.0,0.0,0.0,0.0,0.0,0.0,0.0,0.0,0.0,0.0,0.0,0.0,0.0,0.0,0.0,0.0,0.0,0.0,0.0,0.0,0.0,0.0,0.0,0.0,0.0,0.0,0.0,0.0,0.0,0.0,0.0,0.0,0.0,0.0,0.0,0.0,0.0,0.0,0.0,0.0,0.0,0.0,0.0,0.0,0.0,0.0,0.0,0.0,0.0,0.0,0.0,0.0,0.0,0.0,0.0,0.0,0.0,0.0,0.0,0.0,0.0,0.0,0.0,0.0,0.0,0.0,0.0,0.0,0.0,0.0,0.0,0.0,0.0,0.0,0.0,0.0,0.0,0.0,0.0,0.0,0.0,0.0,0.0,0.0,0.0,0.0,0.0,0.0,0.0,0.0,0.0,0.0,0.0,0.0,0.0,0.0,0.0,0.0,0.0,0.0,0.0,0.0,0.0,0.0,0.0,0.0,0.0,0.0,0.0,0.0,0.0,0.0,0.0,0.0,0.0,0.0,0.0,0.0,0.0,0.0,0.0,0.0,0.0,0.0,0.0,0.0,0.0,0.0,0.0,0.0,0.0,0.0,0.0,0.0,0.0,0.0,0.0,0.0,0.0,0.0,0.0,0.0,0.0,0.0,0.0,0.0,0.0,0.0,0.0,0.0,0.0,0.0,0.0,0.0,0.0,0.0,0.0,0.0,0.0,0.0,0.0,0.0,0.0,0.0,0.0,0.0,0.0,0.0,0.0,0.0,0.0,0.0,0.0,0.0,0.0,0.0,0.0,0.0,0.0,0.0,0.0,0.0,0.0,0.0,0.0,0.0,0.0,0.0,0.0,0.0,0.0,0.0,0.0,0.0,0.0,0.0,0.0,0.0,0.0,0.0,0.0,0.0,0.0,0.0,0.0,0.0,0.0,0.0,0.0,0.0,0.0,0.0,0.0,0.0,0.0,0.0,0.0,0.0,0.0,0.0,0.0,0.0,0.0,0.0,0.0,0.0,0.0,0.0,0.0,0.0,0.0,0.0,0.0,0.0,0.0,0.0,0.0,0.0,0.0,0.0,0.0,0.0,0.0,0.0,0.0,0.0,0.0,0.0,0.0,0.0,0.0,0.0,0.0,0.0,0.0,0.0,0.0,0.0,0.0,0.0,0.0,0.0,0.0,0.0,0.0,0.0,0.0,0.0,0.0,0.0,0.0,0.0,0.0,0.0,0.0,0.0,0.0,0.0,0.0,0.0,0.0,0.0,0.0,0.0,-0.7517,0.0,0.0,0.0,0.0,0.0,0.0,0.0,0.0,0.0,0.0,0.0,0.0,0.0,0.0,0.0,0.0,0.0,0.0,0.0,0.0,0.0,0.0,0.0,0.0,-0.8997,-0.9058,-0.9215,-0.9298,0.0,0.0,0.0,0.0,0.0,0.0,0.0,0.0,0.0,0.0,0.0,0.0,0.0,-0.6559,-0.641,-0.6254,0.0,0.0,0.0,0.0,0.0,0.0,0.0,0.0,0.0,0.0,0.0,0.0,0.0,0.0,0.0,0.0,0.0,0.0,0.0,0.0,0.0,0.0,0.0,0.0,0.0,0.0,0.0,0.0,0.0,0.0,0.0,0.0,0.0,0.0,0.0,0.0,0.0,0.0,0.0,0.0,0.0,0.0,0.0,0.0,0.0,0.0,0.0,0.0,0.0,0.0,0.0,0.0,0.0,0.0,0.0,0.0,0.0,0.0,0.0,0.0,0.0,0.0,0.0,0.0,0.0,0.0,0.0,0.0,0.0,0.0,0.0,0.0,-0.656,0.0,0.0,0.0,0.0,0.0,0.0,0.0,0.0,0.0,0.0,0.0,0.0,0.0,0.0,0.0,0.0,0.0,0.0,0.0,0.0,0.0,-0.8809,-0.933,-0.9493,-0.9701,-1.0007,-1.0134,-0.9971,-0.9261,-0.9244,0.0,0.0,0.0,0.0,0.0,0.0,0.0,0.0,0.0,0.0,0.0,0.0,0.0,0.0,0.0,0.0,0.0,0.0,0.0,0.0,0.0,0.0,0.0,0.0,0.0,0.0,0.0,0.0,0.0,0.0,0.0,0.0,0.0,0.0,0.0,0.0,0.0,0.0,0.0,0.0,0.0,0.0,0.0,0.0,0.0,0.0,0.0,0.0,0.0,0.0,0.0,0.0,0.0,0.0,0.0,0.0,0.0,0.0,0.0,0.0,0.0,0.0,0.0,0.0,0.0,0.0,0.0,0.0,0.0,0.0,0.0,0.0,0.0,0.0,0.0,0.0,0.0,0.0,-0.515,-0.5196,-0.4488,-0.4365,-0.4778,-0.5728,-0.6652,-0.5794,-0.3927,-0.3669,0.0,0.0,0.0,0.0,0.0,0.0,0.0,0.0,0.0,0.0,0.0,0.0,0.0,0.0,0.0,0.0,0.0,0.0,0.0,-0.9535,-0.9615,-0.9854,-0.9933,-0.9761,-0.9973,-0.9801,-0.8977,-0.9,0.0,0.0,0.0,0.0,0.0,0.0,0.0,0.0,0.0,0.0,-0.7543,0.0,0.0,0.0,0.0,0.0,0.0,0.0,0.0,0.0,0.0,0.0,0.0,0.0,0.0,0.0,0.0,0.0,0.0,0.0,0.0,0.0,0.0,0.0,0.0,0.0,0.0,0.0,0.0,0.0,0.0,0.0,0.0,0.0,0.0,0.0,0.0,0.0,0.0,0.0,0.0,0.0,0.0,0.0,0.0,0.0,0.0,0.0,-0.8255,-0.8377,0.0,0.0,0.0,0.0,0.0,0.0,0.0,0.0,0.0,0.0,0.0,0.0,0.0,-0.9086,-0.7588,-0.7954,-0.7336,-0.5841,-0.6118,-0.6328,-0.6203,-0.6203,-0.5522,-0.4563,-0.4815,0.0,-0.394,-0.3967,0.0,0.0,0.0,0.0,0.0,0.0,0.0,0.0,0.0,0.0,0.0,0.0,0.0,0.0,0.0,0.0,0.0,0.0,0.0,0.0,0.0,-1.0929,-1.1115,-1.1191,-1.148,-1.1417,-1.0759,-1.0716,0.0,0.0,0.0,0.0,0.0,0.0,0.0,0.0,0.0,0.0,0.0,0.0,0.0,0.0,0.0,0.0,0.0,0.0,0.0,0.0,0.0,0.0,0.0,0.0,0.0,0.0,0.0,0.0,0.0,0.0,0.0,0.0,0.0,0.0,0.0,0.0,0.0,0.0,0.0,0.0,0.0,0.0,0.0,0.0,0.0,0.0,0.0,0.0,0.0,0.0,0.0,0.0,0.0,0.0,0.0,0.0,0.0,-0.8235,-0.8357,-0.8581,-0.8682,-0.8764,0.0,0.0,0.0,0.0,0.0,0.0,0.0,0.0,0.0,-1.01,-1.0331,-0.9739,-0.8408,-0.8515,-0.7912,-0.659,-0.5837,-0.5451,-0.5451,-0.4477,-0.3781,-0.3223,-0.3223,-0.3021,-0.292,-0.2914,-0.2631,-0.2083,0.0,0.0,0.0,0.0,-0.4126,-0.4116,0.0,0.0,0.0,0.0,0.0,0.0,0.0,0.0,0.0,0.0,0.0,0.0,-1.1339,-1.1872,-1.221,-1.2426,-1.2726,-1.2634,-1.2104,-1.2151,-1.1467,0.0,0.0,0.0,0.0,0.0,0.0,0.0,0.0,0.0,0.0,0.0,0.0,0.0,0.0,0.0,0.0,0.0,0.0,0.0,0.0,0.0,0.0,0.0,0.0,0.0,0.0,0.0,0.0,0.0,0.0,0.0,0.0,0.0,0.0,0.0,0.0,0.0,0.0,0.0,0.0,0.0,0.0,0.0,0.0,0.0,0.0,0.0,0.0,0.0,0.0,0.0,0.0,0.0,0.0,0.0,0.0,-0.8513,-0.8608,-0.8906,-0.9042,-0.9137,0.0,0.0,0.0,0.0,0.0,0.0,-1.0046,-1.0304,-1.0514,-1.0656,-1.0887,-1.0385,-0.8981,-0.8981,-0.8293,-0.6915,-0.581,-0.5112,-0.4545,-0.3426,-0.2719,-0.229,-0.229,-0.229,-0.2288,-0.2233,-0.2211,-0.2211,-0.2211,-0.2211,-0.2351,-0.3326,-0.3769,-0.3794,0.0,0.0,0.0,0.0,0.0,0.0,0.0,0.0,0.0,0.0,0.0,-1.2032,-1.1579,-1.2309,-1.2726,-1.2402,-1.2726,-1.2632,-1.2049,-1.21,-1.1674,0.0,0.0,0.0,0.0,0.0,0.0,0.0,0.0,0.0,0.0,0.0,0.0,0.0,0.0,0.0,0.0,0.0,0.0,0.0,0.0,0.0,0.0,0.0,0.0,0.0,0.0,0.0,0.0,0.0,0.0,0.0,0.0,0.0,0.0,0.0,0.0,0.0,0.0,0.0,0.0,0.0,0.0,0.0,0.0,0.0,0.0,0.0,0.0,0.0,0.0,0.0,0.0,0.0,0.0,0.0,0.0,0.0,0.0,-0.953,-0.9571,0.0,0.0,0.0,0.0,-1.0025,-1.0297,-1.0521,-1.067,-1.0826,-1.0982,-1.1124,-1.1145,-1.0518,-0.9095,-0.9101,-0.8439,-0.6958,-0.7043,-0.6205,-0.4736,-0.479,-0.3915,-0.2414,-0.2414,-0.2414,-0.2406,-0.229,-0.2243,-0.2243,-0.2243,-0.2243,-0.2247,-0.2417,-0.2429,-0.2435,0.0,0.0,0.0,-0.8804,-0.8804,-0.8871,-0.9058,-0.9579,-1.014,-1.0621,-1.1655,-1.2257,-1.2078,-1.2917,-1.3336,-1.3054,-1.3451,-1.3557,-1.3294,-1.2498,-1.1598,0.0,0.0,0.0,0.0,0.0,0.0,0.0,0.0,0.0,0.0,0.0,0.0,0.0,0.0,0.0,0.0,0.0,0.0,0.0,0.0,0.0,0.0,0.0,0.0,0.0,0.0,0.0,0.0,0.0,0.0,0.0,0.0,0.0,0.0,0.0,0.0,0.0,0.0,0.0,0.0,0.0,0.0,0.0,0.0,0.0,0.0,0.0,0.0,0.0,0.0,0.0,0.0,0.0,0.0,0.0,0.0,0.0,0.0,-0.9585,-0.9774,0.0,-1.0175,-1.0371,-1.0521,-1.0622,-1.0812,-1.0948,-1.1002,-1.1151,-1.1253,-1.1307,-1.1491,-1.1325,-1.0794,-1.1034,-1.081,-1.0263,-0.926,-0.7941,-0.6298,-0.5274,-0.3931,-0.2424,-0.2424,-0.2424,-0.242,-0.2378,-0.236,-0.236,-0.236,-0.236,-0.2361,-0.2372,-0.2376,-0.2378,0.0,0.0,0.0,-0.8804,-0.8804,-0.8938,-0.9325,-0.9886,-1.0555,-1.1329,-1.2162,-1.2739,-1.3013,-1.3625,-1.4001,-1.3999,-1.4334,-1.4385,-1.4099,-1.3159,-1.2204,0.0,0.0,0.0,0.0,0.0,0.0,0.0,0.0,0.0,0.0,0.0,0.0,0.0,0.0,0.0,0.0,0.0,0.0,0.0,0.0,0.0,-0.1551,0.0,0.0,0.0,0.0,0.0,0.0,0.0,0.0,0.0,0.0,0.0,0.0,0.0,0.0,0.0,0.0,0.0,0.0,0.0,0.0,0.0,0.0,0.0,0.0,0.0,0.0,0.0,0.0,0.0,0.0,0.0,0.0,0.0,0.0,0.0,-0.968,-0.9883,-1.0127,-1.0358,-1.0561,-1.0751,-1.0934,-1.1084,-1.1185,-1.1287,-1.1382,-1.1484,-1.1565,-1.1613,-1.1809,-1.1911,-1.1911,-1.206,-1.1835,-1.1221,-1.0247,-0.8602,-0.6459,-0.5408,-0.4028,-0.2484,-0.2484,-0.2484,-0.2484,-0.2484,-0.2484,-0.248,-0.2439,-0.2424,-0.2424,-0.2424,-0.2424,-0.2425,0.0,0.0,-0.8804,-0.8804,-0.8818,-0.9018,-0.9606,-1.0194,-1.0995,-1.2158,-1.2844,-1.3522,-1.4095,-1.4244,-1.454,-1.4995,-1.5127,-1.4982,-1.4603,-1.4149,-1.3473,0.0,0.0,0.0,0.0,0.0,0.0,0.0,0.0,0.0,0.0,0.0,0.0,0.0,0.0,0.0,0.0,0.0,0.0,0.0,0.0,0.0,-0.1699,0.0,0.0,0.0,0.0,0.0,0.0,0.0,0.0,0.0,0.0,0.0,0.0,0.0,0.0,0.0,0.0,0.0,0.0,0.0,0.0,0.0,0.0,0.0,0.0,0.0,0.0,0.0,0.0,0.0,0.0,0.0,0.0,0.0,-0.9652,-0.9883,-1.0181,-1.0473,-1.0643,-1.0846,-1.1138,-1.1172,-1.124,-1.1396,-1.1409,-1.1538,-1.1823,-1.1837,-1.1911,-1.206,-1.2074,-1.2074,-1.2081,-1.2079,-1.1231,-0.9534,-0.9923,-0.8287,-0.495,-0.5005,-0.4223,-0.2602,-0.2602,-0.2604,-0.2604,-0.2604,-0.2604,-0.2593,-0.2474,-0.2429,-0.2429,-0.2429,-0.2429,-0.2433,-0.8804,-0.8804,-0.8804,-0.8804,-0.8978,-0.9312,-0.99,-1.0501,-1.1155,-1.1978,-1.2779,-1.3278,-1.3297,-1.404,-1.4574,-1.4823,-1.5204,-1.535,-1.5484,-1.4444,-1.2918,0.0,0.0,0.0,0.0,0.0,0.0,0.0,0.0,0.0,0.0,0.0,0.0,0.0,0.0,0.0,0.0,0.0,0.0,0.0,0.0,0.0,-0.1735,0.0,0.0,0.0,0.0,0.0,0.0,0.0,0.0,0.0,0.0,0.0,0.0,0.0,0.0,0.0,0.0,0.0,0.0,0.0,0.0,0.0,0.0,0.0,0.0,0.0,0.0,0.0,0.0,0.0,0.0,0.0,0.0,-1.0256,-1.0114,-1.0351,-1.0609,-1.0799,-1.0955,-1.1118,-1.1307,-1.143,-1.1552,-1.1701,-1.1816,-1.1911,-1.1993,-1.1999,-1.2067,-1.2223,-1.1097,-1.0572,-1.0664,-0.9519,-0.8622,-0.8141,-0.8198,-0.7099,-0.501,-0.5026,-0.4243,-0.2634,-0.2634,-0.2647,-0.2668,-0.2668,-0.2668,-0.266,-0.2583,-0.2552,-0.2552,-0.2552,-0.2552,-0.2553,-0.8804,-0.8752,-0.8685,-0.8685,-0.8882,-0.9245,-0.9949,-1.0496,-1.1243,-1.2247,-1.2737,-1.3169,-1.3649,-1.4166,-1.4667,-1.4991,-1.5442,-1.5536,-1.5484,-1.3944,0.0,0.0,0.0,0.0,0.0,0.0,0.0,0.0,0.0,0.0,0.0,0.0,0.0,0.0,0.0,0.0,0.0,0.0,0.0,0.0,0.0,0.0,-0.1805,-0.1793,-0.1759,-0.1712,-0.1669,-0.185,-0.2439,-0.4132,0.0,0.0,0.0,0.0,0.0,0.0,0.0,0.0,0.0,0.0,0.0,0.0,0.0,0.0,0.0,0.0,0.0,0.0,0.0,0.0,0.0,0.0,0.0,0.0,-1.0588,-1.0697,-1.0738,-1.0839,-1.0962,-1.1118,-1.1267,-1.1409,-1.1558,-1.1714,-1.1837,-1.1925,-1.2067,-1.2182,-1.2244,-1.1689,-1.1324,-1.146,-0.9803,-0.8916,-0.8978,-0.8152,-0.7397,-0.6581,-0.6642,-0.5843,-0.418,-0.418,-0.3524,-0.2703,-0.2703,-0.2714,-0.2731,-0.2731,-0.2731,0.0,0.0,0.0,0.0,0.0,-0.2639,-0.2642,-0.8752,-0.8659,-0.8606,-0.858,-0.8732,-0.9106,-0.992,-1.0444,-1.1243,-1.2768,-1.2743,-1.3016,-1.4485,-1.4396,-1.4643,-1.5399,-1.5642,-1.5524,-1.4955,0.0,0.0,0.0,0.0,0.0,0.0,0.0,0.0,0.0,0.0,0.0,0.0,0.0,0.0,0.0,0.0,0.0,0.0,0.0,0.0,0.0,0.0,0.0,-0.1894,-0.1981,-0.1948,-0.1798,-0.1957,-0.2441,-0.3335,-0.4493,0.0,0.0,0.0,0.0,0.0,0.0,0.0,0.0,0.0,0.0,0.0,0.0,0.0,0.0,0.0,0.0,0.0,0.0,0.0,0.0,0.0,0.0,0.0,0.0,-1.0907,-1.1104,-1.1402,-1.1321,-1.1287,-1.1423,-1.1558,-1.1701,-1.1843,-1.2013,-1.2115,-1.2115,-1.2112,-1.2106,-1.2232,0.0,0.0,0.0,0.0,-0.7328,-0.7347,-0.7334,-0.657,-0.4893,-0.5158,-0.4342,-0.2784,-0.2784,-0.2785,-0.2788,-0.2788,-0.2791,-0.2793,-0.2793,-0.2793,-0.2788,-0.2727,-0.2702,-0.2702,-0.2702,-0.2702,-0.2706,-0.8421,-0.8654,-0.869,-0.8459,-0.8831,-0.9381,-1.0147,-1.0612,-1.1331,-1.27,-1.2743,-1.2933,-1.3946,-1.4305,-1.4734,-1.5127,-1.5547,-1.5395,0.0,0.0,0.0,0.0,0.0,0.0,0.0,0.0,0.0,0.0,0.0,0.0,0.0,0.0,0.0,0.0,0.0,0.0,0.0,0.0,0.0,0.0,0.0,0.0,-0.208,-0.3165,-0.2868,-0.198,-0.3079,-0.3469,-0.363,-0.4647,-0.585,-0.6928,-0.8046,0.0,0.0,0.0,0.0,0.0,0.0,0.0,0.0,0.0,0.0,0.0,0.0,0.0,0.0,0.0,0.0,0.0,0.0,0.0,0.0,-1.1185,-1.1287,-1.1409,-1.1701,-1.1721,-1.1714,-1.1742,-1.1775,-1.185,-1.2006,-1.2257,-1.242,-1.242,-1.1396,-1.0747,-1.077,-0.9026,-0.8152,-0.8322,-0.6669,-0.572,-0.5822,-0.4478,-0.3628,-0.3283,0.0,0.0,-0.2784,-0.2784,-0.2796,-0.2819,-0.2819,-0.2834,-0.2856,-0.2856,-0.2856,-0.2851,-0.2789,-0.2766,-0.2766,-0.2766,-0.2766,-0.2766,-0.8218,-0.8321,-0.8479,-0.834,-0.867,-0.9147,-0.9781,-1.0397,-1.1066,-1.2097,-1.2201,-1.2457,-1.3194,-1.3623,-1.4104,-1.4628,-1.5184,-1.5042,0.0,0.0,0.0,0.0,0.0,0.0,0.0,0.0,0.0,0.0,0.0,0.0,0.0,0.0,0.0,0.0,0.0,0.0,0.0,0.0,0.0,0.0,0.0,0.0,-0.4198,-0.4006,-0.3927,-0.4082,-0.4608,-0.4767,-0.4922,-0.6012,-0.6751,-0.747,-0.851,-0.8771,-0.8682,0.0,0.0,0.0,0.0,0.0,0.0,0.0,0.0,0.0,0.0,0.0,0.0,0.0,0.0,-1.0256,0.0,0.0,-1.1043,-1.1341,-1.1511,-1.166,-1.1809,-1.1898,-1.1945,-1.1945,-1.2074,-1.2196,-1.2277,-1.2556,-1.241,-1.1451,-1.0833,-0.9983,-0.9221,-0.7458,-0.6536,-0.6649,-0.4954,-0.4123,-0.4168,-0.3322,-0.2806,-0.2806,-0.2821,-0.2829,-0.2829,-0.2829,-0.2837,-0.2852,-0.2852,-0.286,-0.2874,-0.2874,-0.2874,-0.2871,-0.2841,-0.2829,-0.2829,-0.2829,-0.2829,-0.2829,-0.7985,-0.8008,-0.8168,-0.8168,-0.8446,-0.892,-0.9464,-1.0129,-1.0777,-1.1569,-1.1719,-1.1988,-1.2614,-1.2966,-1.3449,-1.4235,-1.4836,0.0,0.0,0.0,0.0,0.0,0.0,0.0,0.0,0.0,0.0,0.0,0.0,0.0,0.0,0.0,0.0,0.0,0.0,0.0,0.0,0.0,0.0,0.0,0.0,0.0,-0.671,-0.5383,-0.5394,-0.6162,-0.6332,-0.6231,-0.6251,-0.7306,-0.7758,-0.8072,-0.9003,-0.9117,-0.8974,-0.8696,-0.8615,0.0,0.0,0.0,0.0,0.0,0.0,0.0,0.0,0.0,-0.9863,-1.0161,-1.0344,-1.0534,-1.0799,-1.1043,-1.1267,-1.145,-1.1674,-1.185,-1.1911,-1.2054,-1.2155,-1.2189,-1.2372,-1.2367,-1.2109,-1.2357,-1.1708,-0.9941,-0.9554,-0.8833,-0.7592,-0.5793,-0.4991,-0.5048,-0.3488,-0.2795,-0.28,-0.2825,-0.2837,-0.2838,-0.2861,-0.2874,-0.2874,-0.2874,-0.2874,-0.2874,-0.2874,-0.2874,-0.2874,-0.2874,-0.2874,-0.2874,-0.2874,-0.2874,-0.2874,-0.2874,-0.2874,-0.2874,-0.7913,-0.7901,-0.7955,-0.7955,-0.8333,-0.892,-0.9654,-1.0062,-1.0779,-1.1981,-1.1751,-1.183,-1.2614,-1.2966,-1.346,-1.4231,-1.4994,0.0,0.0,0.0,0.0,0.0,0.0,0.0,0.0,0.0,0.0,0.0,0.0,0.0,0.0,0.0,0.0,0.0,0.0,0.0,0.0,0.0,0.0,0.0,0.0,0.0,-0.8275,-0.8018,-0.7193,-0.6268,-0.7381,-0.7612,-0.7427,-0.7546,-0.8307,-0.9258,-0.9361,-0.9347,-0.93,-0.913,0.0,-0.9069,-0.9035,0.0,0.0,-0.968,-0.9734,-0.9863,0.0,0.0,-1.048,-1.0785,-1.0962,-1.1118,-1.1287,-1.1341,-1.1457,-1.1735,-1.1809,-1.1925,-1.2203,-1.2366,-1.2501,-1.2637,-1.2562,-1.1972,-1.0616,-1.0768,-1.0071,-0.8344,-0.6755,-0.5978,-0.5701,-0.3985,-0.3139,-0.3175,-0.2823,-0.2837,-0.2864,-0.2867,-0.2868,-0.287,-0.2872,-0.2874,-0.2874,-0.2874,-0.2874,-0.2874,-0.2874,-0.2874,-0.2874,-0.2874,-0.2874,-0.2874,-0.2874,-0.2874,-0.2874,-0.2874,-0.2874,-0.2874,-0.7925,-0.7901,-0.7901,-0.7901,-0.8333,-0.892,-0.9527,-0.9995,-1.0598,-1.1423,-1.1359,-1.1479,-1.1962,-1.2517,-1.304,-1.3521,-1.4149,0.0,0.0,0.0,0.0,0.0,0.0,0.0,0.0,0.0,0.0,0.0,0.0,0.0,0.0,0.0,0.0,0.0,0.0,0.0,0.0,0.0,0.0,0.0,0.0,0.0,-0.9763,-0.9633,-0.9202,-0.8643,-0.9074,-0.9045,0.0,0.0,-0.9207,-0.952,-0.8791,-0.8552,-0.8528,-0.8278,-0.8407,0.0,-0.9407,0.0,0.0,0.0,-1.0276,-1.0419,-1.069,-1.0758,-1.0846,-1.1145,-1.1253,-1.1341,-1.1497,-1.1592,-1.1687,0.0,-1.1979,-1.2169,-1.2386,-1.2542,-1.2718,-1.2963,-1.1961,-1.116,-1.0454,-0.9637,-0.8416,-0.6603,-0.5822,-0.5023,-0.4032,-0.3159,-0.2823,-0.2855,-0.2855,-0.2861,-0.2874,-0.289,-0.289,-0.2874,-0.289,-0.289,-0.2874,-0.2874,-0.2874,-0.2874,-0.2874,-0.2874,-0.2874,-0.2874,-0.2874,-0.2874,-0.2874,-0.2874,-0.2874,-0.2874,-0.2874,-0.2874,-0.8153,-0.8057,-0.8009,-0.8009,-0.8441,-0.8944,-0.9412,-1.0055,-1.0598,-1.1057,-1.1105,-1.1214,-1.1504,-1.2168,-1.2674,-1.288,-1.3537,-1.3999,0.0,0.0,0.0,0.0,0.0,0.0,0.0,0.0,0.0,0.0,0.0,0.0,0.0,0.0,0.0,0.0,0.0,0.0,0.0,0.0,0.0,0.0,0.0,0.0,-1.0588,-1.0473,-1.0317,-1.0148,-1.012,-1.0012,0.0,0.0,-0.9794,-0.9142,-0.8401,-0.8027,-0.7883,-0.7769,-0.8083,-0.8735,-0.9876,0.0,0.0,-1.0561,-1.0731,-1.088,-1.1036,-1.107,-1.1145,-1.1402,-1.1457,-1.1497,-1.1647,-1.1762,-1.1857,-1.1945,-1.2176,-1.24,-1.2542,-1.2732,-1.2769,-1.2488,-1.1423,-1.0138,-0.9146,-0.8101,-0.6666,-0.4822,-0.4687,-0.4207,-0.284,-0.2841,-0.2852,-0.2874,-0.2874,-0.2878,-0.2886,-0.2905,-0.2911,-0.2898,-0.2919,-0.2917,-0.2898,-0.2898,-0.2898,-0.2898,-0.2898,-0.2898,-0.2897,-0.2889,-0.289,-0.2897,-0.2889,-0.289,-0.2898,-0.2898,-0.2887,-0.2875,-0.8657,-0.8453,-0.8273,-0.8273,-0.8705,-0.9148,-0.9436,-1.0212,-1.0803,-1.1069,-1.1105,-1.1214,-1.1504,-1.2011,-1.2324,-1.2337,-1.3248,-1.3915,-1.3906,0.0,0.0,0.0,0.0,0.0,0.0,0.0,0.0,0.0,0.0,0.0,0.0,0.0,0.0,0.0,0.0,0.0,0.0,0.0,0.0,0.0,0.0,0.0,-1.029,-1.029,-1.01,-0.9876,-1.0168,0.0,0.0,0.0,-0.9651,-0.816,-0.8528,-0.8409,0.0,-0.7888,-0.9026,0.0,0.0,0.0,-1.0921,-1.0934,-1.1043,-1.1192,-1.1341,-1.1375,-1.1423,-1.1579,-1.1613,-1.1653,-1.1796,-1.183,-1.1925,-1.223,-1.24,-1.2549,-1.2705,-1.2976,-1.2507,-1.0868,-1.0742,-0.9526,0.0,-0.5458,-0.4824,-0.2997,-0.2826,-0.284,-0.2871,-0.2872,-0.2872,-0.2874,-0.2874,-0.2887,-0.2915,-0.2916,-0.293,-0.2958,-0.296,-0.296,-0.2958,-0.2958,-0.2958,-0.2958,-0.2958,-0.2958,-0.2957,-0.2927,-0.2932,-0.2956,-0.2926,-0.2932,-0.2958,-0.2958,-0.2923,-0.2878,-0.8681,-0.8609,-0.8597,-0.8777,-0.9244,-0.9688,-0.9964,-1.0441,-1.0816,-1.1069,-1.1105,0.0,0.0,0.0,0.0,0.0,-1.2808,-1.3185,-1.3375,-1.4133,-1.4448,0.0,0.0,0.0,0.0,0.0,0.0,0.0,0.0,0.0,0.0,0.0,0.0,0.0,0.0,0.0,0.0,0.0,0.0,0.0,0.0,-0.9506,-1.0256,-1.0053,-0.9971,-0.9971,0.0,0.0,0.0,0.0,0.0,0.0,-0.788,-0.7954,-0.8665,-0.8582,-0.9441,0.0,0.0,0.0,-1.1118,-1.1219,-1.1355,-1.1477,-1.1531,-1.1545,-1.1558,-1.1606,-1.1694,-1.1775,-1.1823,-1.1999,-1.2169,-1.2271,-1.2494,-1.2705,-1.2861,-1.3051,-1.3083,-1.2612,-1.1524,0.0,0.0,0.0,0.0,-0.3003,-0.2848,-0.2863,-0.2874,-0.2874,-0.2874,-0.2874,-0.2891,-0.2906,-0.2916,-0.2956,-0.2971,-0.2961,-0.2961,-0.2961,-0.2961,-0.2961,-0.2961,-0.2962,-0.2983,-0.2991,-0.2991,-0.298,-0.2994,-0.3018,-0.2988,-0.2983,-0.2991,-0.2991,-0.2966,-0.2934,-0.8968,-0.8968,-0.9016,-0.9184,-0.9652,0.0,0.0,0.0,0.0,0.0,0.0,0.0,0.0,0.0,0.0,0.0,0.0,-1.2674,-1.2952,-1.3628,-1.4063,-1.4147,0.0,0.0,0.0,0.0,0.0,0.0,0.0,0.0,0.0,0.0,0.0,0.0,0.0,0.0,0.0,0.0,0.0,-0.8655,-0.8143,-0.8493,-0.9373,-0.94,-0.9564,0.0,0.0,0.0,0.0,0.0,0.0,0.0,0.0,-0.798,-0.8909,-0.9496,-1.0238,0.0,0.0,-1.1253,-1.1348,-1.145,-1.1545,-1.1619,-1.1619,-1.1619,-1.1619,-1.1619,-1.1735,-1.185,-1.1904,-1.2121,-1.2305,-1.2359,-1.2617,-1.2847,-1.2949,-1.3132,-1.2847,-1.1722,-1.1278,-0.9659,0.0,0.0,0.0,-0.3023,-0.2863,-0.2874,-0.2874,-0.2874,-0.2874,-0.2874,-0.2901,-0.2921,-0.2932,-0.2981,-0.3002,-0.2994,-0.2994,-0.2999,-0.301,-0.301,-0.3016,-0.3028,-0.3047,-0.3055,-0.3055,-0.3044,-0.3056,-0.3081,-0.3051,-0.3046,-0.3055,-0.3055,-0.3043,-0.3021,-0.9484,-0.9496,-0.9508,0.0,0.0,0.0,0.0,0.0,0.0,0.0,0.0,0.0,0.0,0.0,0.0,0.0,0.0,0.0,-1.2662,-1.3181,0.0,-1.3857,0.0,0.0,0.0,0.0,0.0,0.0,0.0,0.0,0.0,0.0,0.0,0.0,-0.9713,-0.9042,-0.7828,-0.7943,-0.7242,-0.6098,-0.6906,-0.7439,-0.7622,-0.852,0.0,0.0,0.0,0.0,0.0,0.0,0.0,0.0,0.0,0.0,-0.8892,-1.0763,-1.1294,-1.1246,-1.1538,-1.1619,-1.1619,-1.1619,-1.1619,-1.1619,-1.1619,-1.1619,-1.1619,-1.1619,-1.1735,-1.1877,0.0,0.0,-1.2338,-1.2481,-1.2759,-1.2963,-1.2963,-1.3214,-1.2111,0.0,0.0,0.0,0.0,0.0,0.0,-0.3053,0.0,-0.2874,-0.2874,-0.2874,-0.2874,-0.2874,-0.2901,-0.2931,-0.2961,-0.2994,-0.3024,-0.3052,-0.3054,-0.307,-0.3097,-0.3099,-0.3115,-0.3142,-0.3145,-0.3145,-0.3142,-0.3114,-0.3119,-0.3144,-0.3112,-0.3118,-0.3142,-0.3141,-0.314,-0.3126,0.0,0.0,0.0,0.0,0.0,0.0,0.0,0.0,0.0,0.0,0.0,0.0,0.0,0.0,0.0,0.0,0.0,0.0,-1.2385,0.0,0.0,0.0,0.0,0.0,0.0,0.0,0.0,0.0,0.0,0.0,0.0,0.0,0.0,0.0,-0.9144,-0.847,-0.7442,-0.6441,-0.645,-0.6904,0.0,-0.6914,-0.8514,0.0,0.0,0.0,0.0,0.0,0.0,0.0,0.0,0.0,0.0,0.0,-1.0581,-1.1161,0.0,-1.1518,-1.1599,-1.1619,-1.1619,-1.1619,-1.1619,-1.1619,-1.1619,-1.1619,-1.1619,-1.1619,-1.1735,-1.1877,0.0,0.0,0.0,-1.2481,-1.2759,0.0,-1.2963,-1.3214,0.0,0.0,0.0,-0.9417,-0.5345,-0.5368,0.0,0.0,-0.2874,-0.2874,-0.2874,-0.2874,-0.2874,-0.2874,-0.2901,-0.2931,-0.2961,-0.3014,-0.3044,-0.3052,-0.3076,-0.3089,-0.3099,-0.312,-0.3135,-0.3144,-0.3167,-0.3176,-0.3176,-0.3168,-0.3182,-0.3202,-0.3152,-0.3135,-0.314,-0.3118,-0.3095,-0.3071,0.0,0.0,0.0,0.0,0.0,0.0,0.0,0.0,0.0,0.0,0.0,0.0,0.0,0.0,0.0,0.0,0.0,0.0,0.0,0.0,0.0,0.0,0.0,0.0,0.0,0.0,0.0,0.0,0.0,0.0,0.0,0.0,0.0,-0.8642,-0.8642,-0.8062,-0.6952,0.0,0.0,0.0,0.0,0.0,0.0,0.0,0.0,0.0,0.0,0.0,0.0,0.0,0.0,-0.9569,-1.0731,-1.1042,-1.1023,-1.1307,0.0,-1.1531,-1.1599,-1.1619,-1.1619,-1.1619,-1.1619,-1.1619,-1.1619,-1.1619,-1.164,-1.1701,-1.1775,0.0,0.0,0.0,0.0,0.0,0.0,0.0,-1.2949,-1.2501,-1.192,0.0,-0.952,0.0,-0.5901,-0.502,-0.3947,0.0,-0.2874,-0.2874,-0.2874,-0.2874,-0.2874,-0.2874,-0.2915,-0.2957,-0.3001,-0.3048,-0.3071,-0.3073,-0.3103,-0.3125,-0.3138,-0.3155,-0.317,-0.3182,0.0,-0.3189,-0.3187,-0.3174,-0.3178,-0.3189,-0.3156,-0.3142,-0.3141,-0.3123,-0.3107,-0.3092,0.0,0.0,0.0,0.0,0.0,0.0,0.0,0.0,0.0,0.0,0.0,0.0,0.0,0.0,0.0,0.0,0.0,0.0,0.0,0.0,0.0,0.0,0.0,0.0,0.0,0.0,0.0,0.0,0.0,0.0,0.0,0.0,0.0,0.0,0.0,0.0,0.0,0.0,0.0,0.0,0.0,0.0,0.0,0.0,0.0,0.0,0.0,0.0,0.0,0.0,-0.9998,-1.0304,-1.0622,-1.0744,-1.0853,-1.1246,-1.1389,-1.145,-1.1586,-1.1619,-1.1619,-1.1619,-1.1619,-1.1619,-1.1619,-1.1619,-1.166,-1.1803,0.0,0.0,-1.2203,0.0,-1.2284,-1.2447,0.0,-1.2759,-1.2935,-1.1775,-1.0837,-1.0688,-0.7795,-0.5774,-0.5365,-0.3769,-0.2874,-0.2874,-0.2874,-0.2874,-0.2874,-0.2874,-0.2875,-0.2879,-0.2932,-0.2988,-0.3046,-0.3076,-0.3093,-0.3097,-0.3129,-0.3159,-0.3189,-0.3193,-0.3205,-0.3223,-0.3198,0.0,-0.318,-0.3153,-0.3142,-0.3142,-0.3138,-0.3137,-0.3137,-0.3133,-0.313,-0.313,0.0,0.0,0.0,0.0,0.0,0.0,0.0,-1.1105,-1.119,-1.1431,-1.1262,-1.1105,0.0,0.0,0.0,0.0,0.0,0.0,0.0,0.0,0.0,0.0,0.0,0.0,0.0,0.0,0.0,0.0,0.0,0.0,0.0,0.0,0.0,0.0,0.0,0.0,0.0,0.0,0.0,0.0,0.0,0.0,0.0,0.0,0.0,0.0,0.0,0.0,0.0,0.0,-0.9842,-1.0168,-1.0588,-1.0887,-1.1104,-1.1179,-1.1382,-1.1586,-1.1613,-1.1619,-1.1619,-1.1619,-1.1619,-1.1619,-1.1619,-1.1619,0.0,0.0,0.0,-1.1748,-1.2047,0.0,0.0,-1.2284,0.0,0.0,0.0,0.0,-1.1671,0.0,0.0,0.0,0.0,0.0,0.0,0.0,0.0,-0.2874,-0.2874,-0.2874,-0.2885,-0.2908,-0.2943,-0.2979,-0.3014,-0.3044,-0.3073,-0.3097,-0.3129,-0.3159,-0.3189,-0.3212,-0.3213,-0.3195,-0.319,0.0,-0.315,-0.3145,-0.3142,-0.3141,-0.3115,-0.3106,-0.3103,-0.3077,-0.3067,-0.3067,0.0,0.0,0.0,0.0,0.0,0.0,0.0,-1.1419,-1.1479,-1.1878,-1.1697,-1.1479,-1.1347,-1.1202,-1.1105,0.0,0.0,0.0,0.0,0.0,0.0,0.0,0.0,0.0,0.0,0.0,0.0,0.0,0.0,0.0,0.0,0.0,0.0,0.0,0.0,0.0,0.0,0.0,0.0,0.0,0.0,0.0,0.0,0.0,0.0,0.0,0.0,0.0,0.0,0.0,-0.9727,-1.0236,-1.0602,-1.0921,-1.1165,-1.1165,-1.1382,-1.1619,-1.1619,-1.1619,-1.1619,-1.1619,-1.1619,-1.1619,-1.1619,0.0,0.0,0.0,0.0,-1.1708,-1.2006,0.0,0.0,0.0,0.0,0.0,0.0,0.0,0.0,0.0,0.0,0.0,0.0,0.0,0.0,0.0,0.0,-0.2874,-0.2874,-0.2874,-0.2894,-0.2938,-0.2954,-0.2991,-0.3054,-0.3084,-0.3115,-0.3145,-0.3174,-0.3195,-0.321,-0.3224,-0.3215,-0.3187,-0.3171,0.0,-0.3118,-0.3101,-0.3096,-0.3095,-0.308,-0.3074,-0.3071,-0.3058,-0.3052,-0.3052,0.0,0.0,0.0,0.0,0.0,0.0,0.0,-1.1709,-1.1781,-1.2252,-1.2131,-1.1926,-1.1721,-1.1407,-1.1202,0.0,0.0,0.0,0.0,0.0,0.0,0.0,0.0,0.0,0.0,0.0,0.0,0.0,0.0,0.0,0.0,0.0,0.0,0.0,0.0,0.0,0.0,0.0,0.0,0.0,0.0,0.0,0.0,0.0,0.0,0.0,0.0,0.0,0.0,0.0,-0.9591,-1.0202,-1.0561,-1.0873,-1.1118,-1.1118,-1.1335,-1.1579,-1.1613,-1.1619,-1.1619,-1.1619,-1.1619,-1.1619,-1.1619,-1.1619,0.0,0.0,0.0,0.0,0.0,0.0,0.0,0.0,0.0,0.0,0.0,0.0,0.0,0.0,0.0,0.0,0.0,0.0,0.0,0.0,0.0,0.0,-0.2874,-0.2874,-0.2901,-0.296,-0.2968,-0.3011,-0.3097,-0.3127,-0.3159,-0.3189,-0.321,-0.3224,-0.323,-0.3224,-0.3206,-0.3176,-0.3146,0.0,0.0,-0.3062,-0.3052,-0.3052,-0.3052,-0.3052,-0.3052,-0.3052,-0.3052,-0.3052,0.0,0.0,0.0,0.0,0.0,0.0,0.0,-1.1745,-1.1986,-1.2276,-1.2288,-1.2264,-1.224,-1.1793,-1.1492,0.0,0.0,0.0,0.0,0.0,0.0,0.0,0.0,0.0,0.0,0.0,0.0,0.0,0.0,0.0,0.0,0.0,0.0,0.0,0.0,0.0,0.0,0.0,0.0,0.0,0.0,0.0,0.0,0.0,0.0,0.0,0.0,0.0,0.0,0.0,0.0,-0.9768,-1.0337,-1.0724,-1.0968,-1.0968,0.0,0.0,-1.1579,-1.1619,-1.1619,-1.1619,-1.1619,-1.1619,-1.1619,0.0,0.0,0.0,-1.1714,-1.1667,0.0,0.0,0.0,0.0,0.0,-1.2237,0.0,0.0,0.0,0.0,0.0,0.0,0.0,0.0,0.0,0.0,0.0,0.0,-0.2874,-0.2874,-0.2901,-0.296,-0.2988,-0.3033,-0.3097,-0.3127,-0.3159,-0.3189,-0.3191,-0.3205,-0.323,-0.3204,-0.3175,-0.3145,-0.3115,0.0,0.0,-0.3054,-0.3052,-0.3052,-0.3052,-0.3052,-0.3052,-0.3052,-0.3052,-0.3052,0.0,0.0,0.0,0.0,0.0,0.0,-1.0976,-1.1157,-1.1478,-1.2134,-1.2242,-1.2373,-1.253,-1.2228,-1.1938,-1.1781,0.0,0.0,0.0,0.0,0.0,0.0,0.0,0.0,0.0,0.0,0.0,0.0,0.0,0.0,0.0,0.0,0.0,0.0,0.0,0.0,0.0,0.0,0.0,0.0,0.0,0.0,0.0,0.0,0.0,0.0,0.0,0.0,0.0,0.0,0.0,0.0,-1.012,-1.0371,0.0,0.0,-1.1158,-1.1402,-1.1463,-1.1552,-1.1619,-1.1619,-1.1552,-1.1484,-1.1484,0.0,0.0,-1.1416,-1.1382,-1.1389,-1.1538,0.0,0.0,0.0,0.0,0.0,0.0,0.0,0.0,0.0,0.0,0.0,0.0,0.0,0.0,0.0,0.0,0.0,-0.2874,-0.2874,-0.2901,-0.296,-0.2973,-0.3017,-0.3097,-0.3127,-0.3159,-0.3189,-0.3205,-0.3219,-0.323,-0.3201,-0.3171,-0.3141,-0.3111,0.0,0.0,-0.3052,-0.3052,-0.3052,-0.3052,-0.3052,-0.3052,-0.3052,-0.3052,-0.3052,0.0,0.0,0.0,0.0,0.0,-0.9827,-1.0455,-1.0806,-1.1145,-1.1674,-1.2059,-1.236,-1.2549,-1.2505,-1.2385,-1.2288,-1.2131,0.0,0.0,0.0,0.0,0.0,0.0,0.0,0.0,0.0,0.0,0.0,0.0,0.0,0.0,0.0,0.0,0.0,0.0,0.0,0.0,0.0,0.0,0.0,0.0,0.0,0.0,0.0,0.0,0.0,0.0,0.0,0.0,0.0,0.0,0.0,0.0,0.0,0.0,0.0,-1.1023,-1.128,-1.1369,-1.1531,-1.1694,-1.1742,-1.1606,-1.1457,0.0,0.0,0.0,-1.1165,-1.1165,-1.1212,-1.1362,-1.1389,-1.1443,-1.1592,-1.187,-1.2149,0.0,0.0,0.0,0.0,0.0,0.0,0.0,0.0,0.0,0.0,0.0,0.0,-0.2874,-0.2882,-0.2909,-0.296,-0.2979,-0.3028,-0.311,-0.3141,-0.3171,-0.3201,-0.3221,-0.3225,-0.3217,-0.3187,-0.3159,-0.3127,-0.3097,0.0,0.0,-0.3052,-0.3052,-0.3052,-0.3052,-0.3052,-0.3052,-0.3052,-0.3052,-0.3052,0.0,0.0,0.0,0.0,0.0,0.0,-1.0162,-1.067,-1.0982,-1.0982,-1.1835,-1.2403,-1.2403,-1.2608,-1.2807,-1.3085,-1.2614,0.0,0.0,0.0,0.0,0.0,0.0,0.0,0.0,0.0,0.0,0.0,0.0,0.0,0.0,0.0,0.0,0.0,0.0,0.0,0.0,0.0,0.0,0.0,0.0,0.0,0.0,0.0,0.0,0.0,0.0,0.0,0.0,0.0,0.0,0.0,0.0,-0.993,-1.0114,-1.0412,-1.0711,-1.1016,-1.1314,-1.1606,-1.1864,-1.202,-1.1837,-1.1619,0.0,0.0,0.0,-1.1165,-1.1165,-1.1212,-1.1362,-1.1389,-1.1443,-1.1592,-1.187,-1.2115,0.0,0.0,0.0,0.0,0.0,0.0,0.0,0.0,0.0,0.0,0.0,0.0,-0.2874,-0.29,-0.293,-0.296,-0.302,-0.3081,-0.3142,-0.3172,-0.3202,-0.323,-0.323,-0.3216,-0.3187,-0.3157,-0.3127,-0.3096,0.0,0.0,0.0,-0.3052,-0.3052,-0.3052,-0.3052,-0.3052,-0.3052,-0.3052,-0.3052,-0.3052,0.0,0.0,0.0,0.0,0.0,0.0,0.0,-0.9528,-1.0131,-1.0439,-1.1027,-1.1499,-1.1838,-1.2088,-1.2302,-1.2568,-1.2611,0.0,0.0,0.0,0.0,0.0,0.0,0.0,0.0,0.0,-1.3387,-1.3387,-1.32,-1.2768,0.0,0.0,0.0,0.0,0.0,0.0,0.0,0.0,0.0,0.0,0.0,0.0,0.0,0.0,0.0,0.0,0.0,0.0,0.0,0.0,0.0,0.0,0.0,0.0,0.0,-1.0229,-1.0561,-1.0812,-1.0907,-1.1002,-1.1131,-1.1382,-1.1226,-1.1029,-1.1138,0.0,0.0,-1.086,-1.086,-1.0934,-1.1185,-1.1233,-1.1321,-1.1579,-1.187,-1.2149,0.0,0.0,0.0,0.0,0.0,0.0,0.0,0.0,0.0,0.0,0.0,0.0,-0.2874,-0.292,-0.2951,-0.2961,-0.3001,-0.3051,-0.3111,-0.3142,-0.3172,-0.3202,-0.3221,-0.3216,-0.3187,-0.3157,-0.3126,0.0,0.0,0.0,0.0,-0.3052,-0.3052,-0.3052,-0.3052,-0.3052,-0.3052,-0.3052,-0.3052,-0.3052,0.0,0.0,0.0,0.0,0.0,0.0,0.0,-0.8747,-0.9428,-0.9947,-1.0468,-1.0919,-1.1394,-1.1652,-1.1989,-1.2517,-1.2575,0.0,0.0,0.0,0.0,0.0,0.0,0.0,0.0,0.0,-1.3519,-1.3519,-1.3616,-1.332,-1.2718,-1.1724,-1.0782,0.0,0.0,0.0,0.0,0.0,0.0,0.0,0.0,0.0,-0.8038,0.0,0.0,0.0,0.0,0.0,0.0,0.0,0.0,0.0,0.0,0.0,0.0,0.0,-1.0276,-1.0588,-1.0758,-1.0887,-1.1029,-1.1274,-1.1111,0.0,0.0,0.0,0.0,0.0,-1.0765,-1.088,-1.1118,-1.1212,-1.1328,-1.1579,-1.187,0.0,0.0,0.0,0.0,0.0,0.0,0.0,0.0,0.0,0.0,0.0,0.0,0.0,-0.2889,-0.2935,-0.2972,-0.2995,-0.3025,-0.307,-0.3131,-0.315,-0.3175,-0.3204,-0.321,-0.32,-0.317,-0.314,-0.311,0.0,0.0,0.0,0.0,-0.3052,-0.3052,-0.3052,-0.3052,-0.3052,-0.3052,-0.3052,-0.3052,-0.3052,0.0,0.0,0.0,0.0,0.0,0.0,0.0,-0.8321,-0.8802,-0.9498,-1.0172,-1.0629,-1.0939,-1.1118,-1.1598,-1.2621,0.0,0.0,0.0,0.0,0.0,0.0,0.0,0.0,0.0,-1.3556,-1.3556,-1.3544,-1.3809,-1.3821,-1.3604,-1.2692,-1.1817,-1.0686,-0.9664,0.0,0.0,0.0,0.0,0.0,0.0,0.0,0.0,0.0,0.0,0.0,0.0,0.0,0.0,0.0,0.0,0.0,0.0,0.0,0.0,0.0,0.0,0.0,0.0,-1.1104,-1.1348,-1.1518,-1.1335,-1.1118,-1.1131,-1.0928,0.0,-1.0738,-1.086,-1.1009,-1.1151,-1.1294,-1.1443,-1.1606,-1.1877,0.0,0.0,0.0,0.0,0.0,0.0,0.0,0.0,0.0,0.0,0.0,0.0,0.0,-0.2915,-0.2945,-0.2991,-0.3054,-0.3085,-0.3129,-0.3187,-0.3189,-0.3201,-0.3227,-0.3201,-0.3171,-0.3138,-0.3111,-0.3081,0.0,0.0,0.0,0.0,-0.3052,-0.3052,-0.3052,-0.3052,-0.3052,-0.3052,-0.3052,-0.3052,-0.3052,0.0,0.0,0.0,0.0,0.0,0.0,0.0,0.0,0.0,0.0,-0.9653,-1.0144,-1.0192,-1.0589,-1.0922,0.0,0.0,0.0,0.0,0.0,0.0,0.0,0.0,0.0,0.0,-1.3906,0.0,-1.3809,-1.4075,-1.428,-1.4437,-1.3307,-1.263,-1.2289,-1.1221,-1.0669,0.0,0.0,0.0,0.0,0.0,0.0,0.0,0.0,0.0,0.0,-0.8038,-0.8038,0.0,0.0,0.0,0.0,0.0,0.0,0.0,0.0,-1.0012,-1.0304,-1.0412,0.0,-1.0602,-1.0867,-1.0792,-1.0683,0.0,-1.086,-1.0894,-1.0894,-1.1009,0.0,0.0,-1.1369,-1.1477,0.0,0.0,0.0,0.0,0.0,0.0,0.0,0.0,0.0,0.0,0.0,0.0,0.0,0.0,-0.2886,-0.2915,-0.2945,-0.2999,-0.3084,-0.3116,-0.315,-0.3187,-0.3189,-0.3191,-0.3198,-0.3191,-0.316,-0.3108,-0.31,-0.3081,0.0,0.0,-0.3052,-0.3052,-0.3052,-0.3052,-0.3052,-0.3052,-0.3052,-0.3052,-0.3052,-0.3052,-0.3052,0.0,0.0,0.0,0.0,0.0,0.0,0.0,0.0,0.0,0.0,0.0,0.0,0.0,0.0,0.0,0.0,0.0,0.0,0.0,0.0,0.0,0.0,0.0,0.0,0.0,-1.3857,-1.393,-1.3906,-1.4171,-1.4377,-1.4521,-1.401,-1.3442,-1.2845,-1.1765,-1.122,0.0,0.0,0.0,0.0,0.0,0.0,0.0,0.0,0.0,0.0,-0.8726,-0.8726,0.0,-0.8418,-0.8269,-0.8323,0.0,0.0,0.0,0.0,-0.9829,-1.0175,-1.0175,-1.0324,-1.0507,-1.0595,-1.0609,-1.0616,-1.0704,-1.0839,-1.0948,-1.0948,-1.1118,0.0,0.0,0.0,0.0,0.0,0.0,0.0,0.0,0.0,0.0,0.0,0.0,0.0,0.0,0.0,0.0,0.0,0.0,-0.2893,-0.2934,-0.2953,-0.301,-0.3115,-0.3134,-0.3164,-0.3208,-0.3208,-0.3201,-0.3189,-0.3174,-0.3142,-0.3097,-0.3084,-0.3067,0.0,0.0,-0.3052,-0.3052,-0.3052,-0.3052,-0.3052,-0.3052,-0.3052,-0.3052,-0.3052,-0.3052,-0.3052,0.0,0.0,0.0,0.0,0.0,0.0,0.0,0.0,0.0,0.0,0.0,0.0,0.0,0.0,0.0,0.0,0.0,0.0,0.0,0.0,0.0,0.0,0.0,0.0,0.0,-1.3725,-1.3737,-1.3966,-1.4316,-1.4473,-1.4485,-1.4763,-1.4342,-1.3291,-1.2206,-1.1676,0.0,0.0,0.0,0.0,0.0,0.0,0.0,0.0,0.0,0.0,0.0,0.0,0.0,-0.8621,-0.8255,-0.8269,-0.8459,0.0,0.0,0.0,0.0,0.0,-1.0019,-1.0358,-1.0683,-1.0527,-1.0588,-1.0697,-1.0744,-1.0873,-1.0989,-1.1009,-1.1233,0.0,0.0,-1.166,0.0,0.0,0.0,0.0,0.0,0.0,0.0,0.0,0.0,0.0,0.0,0.0,-0.2874,-0.2874,-0.2878,-0.2904,-0.2958,-0.2966,-0.302,-0.3133,-0.3141,-0.317,-0.3223,-0.3228,-0.3213,-0.318,-0.3155,-0.3125,-0.3089,-0.3065,-0.3052,-0.3052,0.0,0.0,-0.3052,-0.3052,-0.3052,-0.3052,-0.3052,-0.3052,-0.3052,-0.3052,-0.3052,-0.3052,0.0,0.0,0.0,0.0,0.0,0.0,0.0,0.0,0.0,0.0,0.0,0.0,0.0,0.0,0.0,0.0,0.0,0.0,0.0,0.0,0.0,0.0,0.0,0.0,0.0,0.0,-1.4195,-1.4244,-1.4956,-1.5318,-1.5318,-1.5584,-1.5467,-1.5076,-1.4201,-1.3916,-1.3981,0.0,0.0,0.0,0.0,0.0,0.0,0.0,0.0,0.0,0.0,0.0,0.0,-0.8621,-0.818,-0.8147,-0.8547,0.0,0.0,0.0,0.0,0.0,-0.989,-1.0276,-1.0683,-1.0527,-1.0507,-1.0595,-1.0853,-1.1023,-1.1165,-1.1294,-1.1463,-1.1619,0.0,-1.1803,0.0,0.0,0.0,0.0,0.0,0.0,0.0,0.0,0.0,0.0,0.0,-0.2874,-0.2874,-0.2874,-0.2896,-0.2924,-0.296,-0.2986,-0.3032,-0.3103,-0.313,-0.316,-0.3194,-0.3219,-0.3204,-0.3149,-0.3145,-0.3114,-0.3059,-0.3054,-0.3052,-0.3052,0.0,-0.3052,-0.3052,-0.3052,-0.3052,-0.3052,-0.3052,-0.3052,-0.3052,-0.3052,-0.3052,-0.3052,0.0,0.0,0.0,0.0,0.0,0.0,0.0,0.0,0.0,0.0,0.0,0.0,0.0,0.0,0.0,0.0,0.0,0.0,0.0,0.0,0.0,0.0,0.0,0.0,0.0,0.0,-1.4437,-1.4739,-1.5246,-1.5572,-1.5716,-1.5692,-1.5608,-1.5475,-1.419,-1.3686,-1.3678,-1.1953,0.0,0.0,0.0,0.0,0.0,0.0,0.0,0.0,0.0,0.0,0.0,0.0,-0.8275,-0.8303,-0.8431,0.0,0.0,0.0,0.0,0.0,-0.9964,-1.0209,-1.0521,-1.0697,-1.086,-1.1036,-1.126,0.0,-1.143,-1.1497,0.0,0.0,0.0,0.0,0.0,0.0,0.0,0.0,0.0,0.0,0.0,0.0,0.0,0.0,-0.2874,-0.2874,-0.2874,-0.2874,-0.29,-0.293,-0.296,-0.299,-0.3035,-0.3096,-0.3127,-0.3157,-0.3187,-0.3201,-0.3186,-0.3142,-0.3126,-0.3095,-0.3052,-0.3052,-0.3052,-0.3052,0.0,-0.3052,-0.3052,-0.3052,-0.3052,-0.3052,-0.3052,-0.3052,-0.3052,-0.3052,-0.3052,-0.2862,0.0,0.0,0.0,0.0,0.0,0.0,0.0,0.0,0.0,0.0,0.0,0.0,0.0,0.0,0.0,0.0,0.0,0.0,0.0,0.0,0.0,0.0,0.0,0.0,0.0,0.0,-1.4457,-1.4993,-1.5359,-1.5656,-1.5789,-1.5463,-1.5275,-1.5047,-1.3701,-1.3014,-1.2746,-1.143,-1.0332,-0.9608,0.0,0.0,0.0,0.0,0.0,0.0,0.0,0.0,0.0,0.0,0.0,0.0,0.0,0.0,0.0,-0.9042,-0.9469,-1.0005,-1.0039,-1.0236,-1.0527,-1.0907,-1.1118,0.0,0.0,0.0,0.0,0.0,0.0,0.0,0.0,0.0,0.0,0.0,0.0,0.0,0.0,0.0,0.0,0.0,0.0,-0.2874,-0.2874,-0.2874,-0.2876,-0.2883,-0.2911,-0.2939,-0.2971,-0.3001,-0.3041,-0.3096,-0.3127,-0.3157,-0.3187,-0.3182,-0.3165,-0.3142,-0.3112,-0.3081,-0.3052,-0.3052,-0.3052,-0.2671,-0.3052,-0.3052,-0.2671,-0.2671,-0.2862,-0.3052,-0.2862,-0.2862,-0.3052,-0.248,-0.2289,-0.2099,0.0,0.0,0.0,0.0,0.0,0.0,0.0,0.0,0.0,0.0,0.0,0.0,0.0,0.0,0.0,0.0,0.0,0.0,0.0,0.0,0.0,0.0,0.0,0.0,0.0,-1.3678,-1.4127,-1.4641,-1.5517,-1.5741,-1.5511,-1.5004,-1.441,-1.3876,-1.3308,-1.2607,0.0,0.0,0.0,-0.9608,-0.9608,0.0,0.0,0.0,0.0,0.0,0.0,0.0,0.0,0.0,0.0,0.0,0.0,0.0,-0.8994,-0.9103,-0.9469,-0.9869,-1.0012,-1.0466,-1.0941,-1.1104,-1.0955,0.0,-1.1491,-1.1511,0.0,-1.1755,0.0,0.0,0.0,0.0,0.0,0.0,0.0,0.0,0.0,0.0,0.0,0.0,0.0,-0.2874,-0.2874,-0.2874,-0.2885,-0.2911,-0.2941,-0.2972,-0.3002,-0.3032,-0.3063,-0.3096,-0.3127,-0.3157,-0.3187,-0.316,-0.3145,-0.3142,-0.3112,-0.3081,-0.3052,-0.3052,-0.2479,-0.1716,-0.267,-0.2479,-0.1526,-0.1526,-0.2288,-0.3052,-0.2098,-0.2288,-0.2862,-0.0954,-0.0191,-0.0191,0.0,0.0,0.0,0.0,0.0,0.0,0.0,0.0,0.0,0.0,0.0,0.0,0.0,0.0,0.0,0.0,0.0,0.0,0.0,0.0,0.0,0.0,0.0,-1.0146,-1.1485,-1.3228,-1.439,-1.4904,-1.5364,-1.5364,-1.4657,-1.4005,-1.3416,-1.2919,0.0,0.0,0.0,0.0,0.0,-0.8772,-0.867,-0.9213,0.0,0.0,0.0,0.0,0.0,0.0,0.0,0.0,-0.8377,-0.8615,-0.856,-0.8852,-0.9225,-0.9279,-0.968,-1.0141,-1.0283,-1.0697,-1.1138,-1.1389,-1.1362,0.0,0.0,-1.1703,-1.1544,-1.1952,-1.1599,0.0,0.0,0.0,0.0,0.0,0.0,0.0,0.0,0.0,0.0,-0.2872,-0.2874,-0.2874,-0.2874,-0.2874,-0.2886,-0.2913,-0.2945,-0.2975,-0.3005,-0.3036,-0.3058,-0.3069,-0.3116,-0.314,-0.3131,-0.314,-0.3133,-0.3114,-0.3084,-0.3063,-0.3052,-0.3052,-0.2098,-0.0572,-0.2289,-0.2863,-0.2479,-0.1144,-0.1526,-0.2863,-0.1145,-0.0763,-0.1145,-0.0382,0.0,0.0,0.0,0.0,0.0,0.0,0.0,0.0,0.0,0.0,0.0,0.0,0.0,0.0,0.0,0.0,0.0,0.0,0.0,0.0,0.0,0.0,0.0,0.0,0.0,-0.8952,-1.0063,-1.1971,-1.333,-1.3955,-1.4129,-1.3919,-1.3505,-1.2946,-1.2358,0.0,0.0,0.0,0.0,0.0,0.0,0.0,-0.8099,-0.8627,0.0,0.0,0.0,0.0,0.0,0.0,0.0,0.0,-0.8499,-0.8764,-0.8669,-0.8947,-0.932,-0.9367,-0.9842,-1.0378,-1.0527,-1.0928,-1.1355,-1.1422,0.0,0.0,-1.1696,-1.1573,-1.1418,-1.1665,-1.1478,0.0,0.0,0.0,0.0,0.0,0.0,0.0,0.0,0.0,-0.2515,-0.2874,-0.2874,-0.2874,-0.2874,-0.2883,-0.29,-0.293,-0.2958,-0.2988,-0.302,-0.3041,-0.3056,-0.3066,-0.2726,-0.2546,-0.2722,-0.2937,-0.3127,-0.3097,-0.3067,-0.3052,-0.3052,-0.3052,-0.1907,-0.0,-0.1527,-0.21,-0.2099,-0.0572,-0.0763,-0.191,-0.0573,0.0,0.0,0.0,0.0,0.0,0.0,0.0,0.0,0.0,0.0,0.0,0.0,0.0,0.0,0.0,0.0,0.0,0.0,0.0,0.0,0.0,0.0,0.0,-0.642,-0.6437,-0.6736,-0.7534,0.0,-0.8099,-0.9056,-0.984,-1.0758,-1.1806,-1.149,-1.1585,-1.2,-1.1671,0.0,0.0,0.0,0.0,0.0,0.0,0.0,0.0,-0.8106,-0.8627,-0.9608,0.0,0.0,0.0,0.0,0.0,0.0,0.0,-0.8567,-0.8886,-0.8581,-0.8798,-0.9184,-0.934,-0.991,-1.0521,-1.0677,-1.1158,-1.1476,0.0,0.0,0.0,-1.0804,-1.1057,-1.1186,-1.1018,0.0,0.0,0.0,0.0,0.0,0.0,0.0,0.0,0.0,-0.1436,-0.1795,-0.2694,-0.2874,-0.2874,-0.2874,-0.2901,-0.2932,-0.2962,-0.2991,-0.302,-0.3051,-0.3052,-0.3066,-0.3096,-0.2149,-0.1571,-0.1571,-0.2553,-0.3127,-0.3291,-0.3067,-0.3052,-0.3052,-0.3052,-0.1908,0.0,0.0,0.0,0.0,0.0,0.0,0.0,0.0,0.0,0.0,0.0,0.0,0.0,0.0,0.0,0.0,0.0,0.0,0.0,0.0,0.0,0.0,0.0,0.0,0.0,0.0,0.0,0.0,0.0,0.0,0.0,-0.6426,-0.6437,-0.6537,-0.6736,-0.6736,-0.7196,-0.8248,-0.8605,-0.9594,-1.1469,-1.1263,-1.095,-1.0609,0.0,0.0,0.0,0.0,0.0,0.0,0.0,0.0,-0.778,-0.7743,-0.7839,-0.7932,0.0,0.0,0.0,0.0,0.0,0.0,0.0,0.0,0.0,-0.8288,-0.8439,-0.8684,-0.9023,-0.9331,-0.9767,-1.0372,-1.0676,0.0,0.0,0.0,0.0,0.0,-1.0457,0.0,0.0,0.0,0.0,0.0,0.0,0.0,0.0,0.0,0.0,0.0,-0.1257,-0.0539,-0.0898,-0.1436,-0.1801,-0.1814,-0.1821,-0.1837,-0.1869,-0.1876,-0.1887,-0.1906,-0.1907,-0.2292,-0.3066,-0.2726,-0.1957,-0.0583,-0.2153,-0.3127,-0.3097,-0.3069,-0.229,-0.0954,-0.0954,-0.0573,0.0,0.0,0.0,0.0,0.0,0.0,0.0,0.0,0.0,0.0,0.0,0.0,0.0,0.0,0.0,0.0,0.0,0.0,0.0,0.0,0.0,-0.5735,-0.5735,-0.5735,-0.5735,0.0,0.0,0.0,-0.6072,-0.6198,0.0,-0.6431,-0.6437,-0.6437,-0.6437,-0.6437,-0.6693,-0.7334,-0.7461,-0.8197,-0.955,-0.9444,-0.9414,0.0,0.0,0.0,0.0,0.0,0.0,0.0,0.0,-0.7569,-0.7699,-0.7533,-0.7421,-0.7321,0.0,0.0,0.0,0.0,0.0,0.0,0.0,0.0,0.0,-0.8194,-0.8341,-0.8531,-0.9001,-0.9343,-0.9769,-1.0203,-1.0488,0.0,0.0,0.0,0.0,0.0,0.0,0.0,0.0,0.0,0.0,0.0,0.0,0.0,0.0,0.0,0.0,-0.1616,-0.0718,0.0,0.0,-0.0539,-0.0902,-0.0911,-0.0915,-0.0924,-0.0751,-0.0754,-0.0948,-0.0954,-0.0954,-0.1145,-0.1908,-0.1944,-0.1172,-0.0,-0.1172,-0.2345,-0.3097,-0.2301,-0.1145,0.0,0.0,0.0,0.0,0.0,0.0,0.0,0.0,0.0,0.0,0.0,0.0,0.0,0.0,0.0,0.0,0.0,0.0,0.0,0.0,0.0,0.0,0.0,-0.5741,-0.5741,-0.5657,-0.5746,-0.5752,0.0,0.0,0.0,-0.6094,-0.6214,-0.6328,-0.6431,-0.6437,-0.6437,-0.6437,-0.6437,-0.6491,-0.6616,-0.673,-0.6796,-0.6817,-0.7029,-0.7463,0.0,0.0,0.0,0.0,0.0,0.0,0.0,0.0,-0.741,-0.7708,-0.7449,-0.734,-0.734,-0.7328,0.0,0.0,0.0,0.0,0.0,0.0,0.0,0.0,-0.8039,-0.8214,-0.8425,-0.8949,-0.9474,-1.0052,-1.0064,0.0,0.0,-1.0295,0.0,0.0,0.0,0.0,0.0,0.0,0.0,0.0,0.0,0.0,0.0,0.0,0.0,0.0,0.0,0.0,0.0,0.0,0.0,0.0,0.0,0.0,0.0,0.0,0.0,0.0,0.0,0.0,0.0,0.0,0.0,0.0,0.0,0.0,-0.0977,-0.2714,-0.0959,0.0,0.0,0.0,0.0,0.0,0.0,0.0,0.0,0.0,0.0,0.0,0.0,0.0,0.0,0.0,0.0,0.0,0.0,0.0,0.0,0.0,0.0,0.0,-0.522,-0.5668,-0.5684,-0.5678,-0.5871,-0.5904,-0.5903,-0.6116,0.0,-0.6225,-0.6333,-0.641,-0.6437,-0.6437,-0.6437,-0.6437,-0.6437,-0.6491,-0.6616,-0.6643,-0.6752,-0.6948,-0.7056,-0.7186,0.0,0.0,0.0,0.0,0.0,0.0,0.0,0.0,-0.7067,-0.718,-0.7136,-0.693,-0.6816,-0.6923,-0.6765,0.0,0.0,0.0,0.0,0.0,0.0,0.0,-0.7371,-0.7573,-0.7825,-0.8223,-0.8621,-0.8979,-0.9481,-0.9775,0.0,0.0,-1.0162,0.0,0.0,0.0,0.0,0.0,0.0,0.0,0.0,0.0,0.0,-0.2513,-0.1077,0.0,0.0,0.0,0.0,0.0,0.0,0.0,0.0,0.0,0.0,0.0,0.0,0.0,0.0,0.0,0.0,0.0,0.0,0.0,0.0,0.0,-0.0196,-0.0587,-0.0192,0.0,0.0,0.0,0.0,0.0,0.0,0.0,0.0,0.0,0.0,0.0,0.0,0.0,0.0,0.0,0.0,0.0,0.0,0.0,0.0,0.0,0.0,0.0,0.0,0.0,-0.3608,-0.5437,-0.5914,-0.6029,-0.6083,-0.6203,0.0,0.0,-0.6372,-0.6437,-0.6437,-0.6437,-0.6437,-0.6437,-0.6437,-0.6464,-0.6529,-0.6589,-0.6681,-0.6812,-0.6926,0.0,0.0,0.0,0.0,0.0,0.0,0.0,0.0,0.0,0.0,-0.697,-0.689,-0.678,-0.6627,-0.6785,-0.673,-0.6529,-0.6589,0.0,0.0,0.0,0.0,0.0,0.0,0.0,-0.76,-0.8019,-0.835,-0.8666,-0.9305,0.0,0.0,-0.9966,0.0,0.0,0.0,0.0,0.0,0.0,0.0,0.0,0.0,0.0,0.0,0.0,0.0,0.0,0.0,0.0,0.0,0.0,0.0,0.0,0.0,0.0,0.0,0.0,0.0,0.0,0.0,0.0,0.0,0.0,0.0,0.0,0.0,0.0,0.0,0.0,0.0,0.0,0.0,0.0,0.0,0.0,0.0,0.0,0.0,0.0,0.0,0.0,0.0,0.0,0.0,0.0,0.0,0.0,0.0,0.0,0.0,0.0,0.0,0.0,0.0,0.0,0.0,-0.4307,-0.4888,-0.5179,-0.5676,-0.6052,-0.6208,0.0,0.0,0.0,-0.6437,-0.6437,-0.6437,-0.6437,-0.6437,-0.6437,-0.6437,-0.6535,-0.66,-0.6622,-0.6823,0.0,0.0,0.0,0.0,0.0,0.0,0.0,0.0,0.0,0.0,0.0,0.0,0.0,0.0,0.0,-0.6888,-0.6725,-0.6828,-0.6861,-0.6877,-0.698,0.0,0.0,0.0,0.0,-0.7611,-0.8068,-0.8388,-0.8682,-0.9122,-0.9454,-0.9677,-0.9699,-1.0063,0.0,0.0,0.0,0.0,0.0,0.0,0.0,0.0,0.0,0.0,0.0,0.0,0.0,0.0,0.0,0.0,0.0,0.0,0.0,0.0,0.0,0.0,0.0,0.0,0.0,0.0,0.0,0.0,0.0,0.0,0.0,0.0,0.0,0.0,0.0,0.0,0.0,0.0,0.0,0.0,0.0,0.0,0.0,0.0,0.0,0.0,0.0,0.0,0.0,0.0,0.0,0.0,0.0,0.0,0.0,0.0,0.0,0.0,0.0,0.0,0.0,0.0,0.0,-0.0779,-0.1568,-0.3387,-0.5214,-0.6331,-0.6415,-0.6426,-0.6437,-0.6437,0.0,0.0,-0.6437,-0.6437,-0.6437,-0.6437,-0.6453,-0.6513,-0.6622,-0.6649,0.0,0.0,0.0,0.0,0.0,0.0,0.0,0.0,0.0,0.0,0.0,0.0,0.0,0.0,0.0,0.0,-0.7084,-0.71,-0.7105,-0.7111,-0.7127,-0.7133,0.0,0.0,0.0,-0.7589,-0.797,-0.8318,-0.8649,-0.8921,0.0,-0.9699,0.0,-1.0128,-1.0217,0.0,0.0,0.0,0.0,0.0,0.0,0.0,0.0,0.0,0.0,0.0,0.0,0.0,0.0,0.0,0.0,0.0,0.0,0.0,0.0,0.0,0.0,0.0,0.0,0.0,0.0,0.0,0.0,0.0,0.0,0.0,0.0,0.0,0.0,0.0,0.0,0.0,0.0,0.0,0.0,0.0,0.0,0.0,0.0,0.0,0.0,0.0,0.0,0.0,0.0,0.0,0.0,0.0,0.0,0.0,0.0,0.0,0.0,0.0,0.0,0.0,0.0,0.0,-0.0399,-0.1307,-0.444,-0.6369,-0.6353,-0.6353,-0.6448,-0.6437,-0.6437,-0.6437,-0.6437,-0.6437,-0.6437,-0.6437,-0.6437,-0.6464,-0.6518,0.0,0.0,0.0,-0.7002,-0.7095,0.0,0.0,0.0,0.0,0.0,0.0,0.0,0.0,0.0,0.0,0.0,0.0,0.0,0.0,0.0,0.0,-0.7464,-0.7415,-0.7366,-0.7421,0.0,0.0,0.0,-0.816,-0.8519,-0.9095,-0.9454,-0.9715,0.0,-0.859,-0.7613,-0.8997,0.0,0.0,0.0,0.0,0.0,0.0,0.0,0.0,0.0,0.0,0.0,0.0,0.0,0.0,0.0,0.0,0.0,0.0,0.0,0.0,0.0,0.0,0.0,0.0,0.0,0.0,0.0,0.0,0.0,0.0,0.0,0.0,0.0,0.0,0.0,0.0,0.0,0.0,0.0,0.0,0.0,0.0,0.0,0.0,0.0,0.0,0.0,0.0,0.0,0.0,0.0,0.0,0.0,0.0,0.0,0.0,0.0,0.0,0.0,0.0,0.0,0.0,0.0,0.0,0.0,0.0,0.0,-0.6057,-0.6353,-0.6437,-0.6437,-0.6437,-0.6437,-0.6437,-0.6437,-0.6437,-0.6437,-0.6437,0.0,0.0,0.0,-0.6801,-0.6899,-0.7018,0.0,-0.6942,0.0,0.0,0.0,0.0,0.0,0.0,0.0,0.0,0.0,0.0,0.0,0.0,0.0,0.0,0.0,0.0,0.0,0.0,0.0,0.0,0.0,0.0,0.0,0.0,0.0,-0.965,-0.9938,-0.7449,-0.5299,0.0,0.0,0.0,0.0,0.0,0.0,0.0,0.0,0.0,0.0,0.0,0.0,0.0,0.0,0.0,0.0,0.0,0.0,0.0,0.0,0.0,0.0,0.0,0.0,0.0,0.0,0.0,0.0,0.0,0.0,0.0,0.0,0.0,0.0,0.0,0.0,0.0,0.0,0.0,0.0,0.0,0.0,0.0,0.0,0.0,0.0,0.0,0.0,0.0,0.0,0.0,0.0,0.0,0.0,0.0,0.0,0.0,0.0,0.0,0.0,0.0,0.0,0.0,0.0,0.0,-0.2017,-0.333,-0.3324,-0.5244,-0.6353,-0.6437,-0.6437,-0.6437,-0.6437,-0.6437,0.0,-0.6437,-0.6437,-0.6437,0.0,0.0,0.0,-0.6801,-0.6812,-0.6937,-0.7149,-0.7029,-0.6926,-0.6956,0.0,0.0,0.0,0.0,0.0,0.0,0.0,0.0,0.0,0.0,0.0,0.0,0.0,0.0,0.0,0.0,0.0,0.0,0.0,0.0,0.0,0.0,-0.9237,0.0,-0.996,-0.7476,0.0,0.0,0.0,0.0,0.0,0.0,0.0,0.0,0.0,0.0,0.0,0.0,0.0,0.0,0.0,0.0,0.0,0.0,0.0,0.0,0.0,0.0,0.0,0.0,0.0,0.0,0.0,0.0,0.0,0.0,0.0,0.0,0.0,0.0,0.0,0.0,0.0,0.0,0.0,0.0,0.0,0.0,0.0,0.0,0.0,0.0,0.0,0.0,0.0,0.0,0.0,0.0,0.0,0.0,0.0,0.0,0.0,0.0,0.0,0.0,0.0,0.0,0.0,0.0,0.0,0.0,-0.0706,-0.111,-0.1108,-0.4332,-0.6364,-0.6364,-0.6448,0.0,-0.6364,-0.6448,-0.6442,-0.6353,-0.6442,0.0,0.0,0.0,-0.6524,-0.6687,-0.6663,-0.6749,-0.6829,-0.6867,-0.697,-0.6948,-0.5274,0.0,0.0,0.0,0.0,0.0,0.0,0.0,0.0,0.0,0.0,0.0,0.0,0.0,0.0,0.0,0.0,0.0,0.0,0.0,0.0,0.0,0.0,0.0,-1.0252,-0.9361,-0.6777,0.0,0.0,0.0,0.0,0.0,0.0,0.0,0.0,0.0,0.0,0.0,0.0,0.0,0.0,0.0,0.0,0.0,0.0,0.0,0.0,0.0,0.0,0.0,0.0,0.0,0.0,0.0,0.0,0.0,0.0,0.0,0.0,0.0,0.0,0.0,0.0,0.0,0.0,0.0,0.0,0.0,0.0,0.0,0.0,0.0,0.0,0.0,0.0,0.0,0.0,0.0,0.0,0.0,0.0,0.0,0.0,0.0,0.0,0.0,0.0,0.0,0.0,0.0,0.0,0.0,0.0,0.0,0.0,-0.262,-0.4843,-0.6274,-0.5746,-0.5641,-0.6374,-0.5746,-0.5641,-0.6369,0.0,0.0,0.0,0.0,0.0,0.0,0.0,-0.6248,-0.5748,-0.6624,0.0,0.0,0.0,0.0,-0.2404,0.0,0.0,-0.2642,0.0,0.0,0.0,0.0,0.0,0.0,0.0,0.0,0.0,0.0,0.0,0.0,0.0,0.0,0.0,-0.7025,0.0,0.0,0.0,0.0,-0.8114,0.0,0.0,0.0,0.0,0.0,0.0,0.0,0.0,0.0,0.0,0.0,0.0,0.0,0.0,0.0,0.0,0.0,0.0,0.0,0.0,0.0,0.0,0.0,0.0,0.0,0.0,0.0,0.0,0.0,0.0,0.0,0.0,0.0,0.0,0.0,0.0,0.0,0.0,0.0,0.0,0.0,0.0,0.0,0.0,0.0,0.0,0.0,0.0,0.0,0.0,0.0,0.0,0.0,0.0,0.0,0.0,0.0,0.0,0.0,0.0,0.0,0.0,0.0,0.0,0.0,0.0,0.0,0.0,0.0,-0.1814,-0.5967,-0.4336,-0.4135,-0.6173,0.0,0.0,0.0,0.0,0.0,0.0,0.0,0.0,0.0,0.0,-0.5443,0.0,-0.6202,-0.6926,-0.6404,0.0,0.0,0.0,0.0,0.0,0.0,0.0,0.0,0.0,0.0,-0.3614,0.0,0.0,0.0,0.0,0.0,0.0,0.0,0.0,0.0,0.0,0.0,0.0,0.0,0.0,0.0,0.0,0.0,0.0,0.0,0.0,0.0,0.0,0.0,0.0,0.0,0.0,0.0,0.0,0.0,0.0,0.0,0.0,0.0,0.0,0.0,0.0,0.0,0.0,0.0,0.0,0.0,0.0,0.0,0.0,0.0,0.0,0.0,0.0,0.0,0.0,0.0,0.0,0.0,0.0,0.0,0.0,0.0,0.0,0.0,0.0,0.0,0.0,0.0,0.0,0.0,0.0,0.0,0.0,0.0,0.0,0.0,0.0,0.0,0.0,0.0,0.0,0.0,0.0,0.0,0.0,0.0,0.0,0.0,0.0,0.0,-0.0504,-0.1716,-0.262,-0.2821,-0.1817,-0.272,-0.272,0.0,0.0,0.0,0.0,0.0,0.0,0.0,0.0,0.0,0.0,-0.6738,-0.7085,-0.674,-0.3382,0.0,0.0,0.0,0.0,0.0,0.0,0.0,0.0,0.0,-0.1062,0.0,0.0,-0.1319,-0.014,0.0,0.0,0.0,0.0,0.0,0.0,-0.1226,0.0,0.0,0.0,0.0,0.0,0.0,0.0,0.0,0.0,0.0,0.0,0.0,0.0,0.0,0.0,0.0,0.0,0.0,0.0,0.0,0.0,0.0,0.0,0.0,0.0,0.0,0.0,0.0,0.0,0.0,0.0,0.0,0.0,0.0,0.0,0.0,0.0,0.0,0.0,0.0,0.0,0.0,0.0,0.0,0.0,0.0,0.0,0.0,0.0,0.0,0.0,0.0,0.0,0.0,0.0,0.0,0.0,0.0,0.0,0.0,0.0,0.0,0.0,0.0,0.0,0.0,0.0,0.0,0.0,0.0,0.0,0.0,0.0,0.0,0.0,0.0,-0.1144,-0.1348,-0.0102,-0.1225,-0.1322,-0.0,0.0,0.0,0.0,0.0,0.0,0.0,0.0,0.0,0.0,0.0,0.0,0.0,0.0,0.0,0.0,0.0,0.0,0.0,0.0,0.0,0.0,0.0,0.0,0.0,0.0,0.0,0.0,0.0,0.0,0.0,0.0,0.0,0.0,0.0,0.0,0.0,0.0,0.0,0.0,0.0,0.0,0.0,0.0,0.0,0.0,0.0,0.0,0.0,0.0,0.0,0.0,0.0,0.0,0.0,0.0,0.0,0.0,0.0,0.0,0.0,0.0,0.0,0.0,0.0,0.0,0.0,0.0,0.0,0.0,0.0,0.0,0.0,0.0,0.0,0.0,0.0,0.0,0.0,0.0,0.0,0.0,0.0,0.0,0.0,0.0,0.0,0.0,0.0,0.0,0.0,0.0,0.0,0.0,0.0,0.0,0.0,0.0,0.0,0.0,0.0,0.0,0.0,0.0,0.0,0.0,0.0,0.0,0.0,0.0,0.0,0.0,0.0,0.0,0.0,0.0,0.0,0.0,0.0,0.0,0.0,0.0,0.0,0.0,0.0,0.0,0.0,0.0,0.0,0.0,0.0,0.0,0.0,0.0,0.0,0.0,0.0,0.0,0.0,0.0,0.0,0.0,0.0,0.0,0.0,0.0,0.0,0.0,0.0,0.0,0.0,0.0,0.0,0.0,0.0,0.0,0.0,0.0,0.0,0.0,0.0,0.0,0.0,0.0,0.0,0.0,0.0,0.0,0.0,0.0,0.0,0.0,0.0,0.0,0.0,0.0,0.0,0.0,0.0,0.0,0.0,0.0,0.0,0.0,0.0,0.0,0.0,0.0,0.0,0.0,0.0,0.0,0.0,0.0,0.0,0.0,0.0,0.0,0.0,0.0,0.0,0.0,0.0,0.0,0.0,0.0,0.0,0.0,0.0,0.0,0.0,0.0,0.0,0.0,0.0,0.0,0.0,0.0,0.0,0.0,0.0,0.0,0.0,0.0,0.0,0.0,0.0,0.0,0.0,0.0,0.0,0.0,0.0,0.0,0.0,0.0,0.0,0.0,0.0,0.0,0.0,0.0,0.0,0.0,0.0,0.0,0.0,0.0,0.0,0.0,0.0,0.0,0.0,0.0,0.0,0.0,0.0,0.0,0.0,0.0,0.0,0.0,0.0,0.0,0.0,0.0,0.0,0.0,0.0,0.0,0.0,0.0,0.0,0.0,0.0,0.0,0.0,0.0,0.0,0.0,0.0,0.0,0.0,0.0,0.0,0.0,0.0,0.0,0.0,0.0,0.0,0.0,0.0,0.0,0.0,0.0,0.0,0.0,0.0,0.0,0.0,0.0,0.0,0.0,0.0,0.0,0.0,0.0,0.0,0.0,0.0,0.0,0.0,0.0,0.0,0.0,0.0,0.0,0.0,0.0,0.0,0.0,0.0,0.0,0.0,0.0,0.0,0.0,0.0,0.0,0.0,0.0,0.0,0.0,0.0,0.0,0.0,0.0,0.0,0.0,0.0,0.0,0.0,0.0,0.0,0.0,0.0,0.0,0.0,0.0,0.0,0.0,0.0,0.0,0.0,0.0,0.0,0.0,0.0,0.0,0.0,0.0,0.0,0.0,0.0,0.0,0.0,0.0,0.0,0.0,0.0,0.0,0.0,0.0,0.0,0.0,0.0,0.0,0.0,0.0,0.0,0.0,0.0,0.0,0.0,0.0,0.0,0.0,0.0,0.0,0.0,0.0,0.0,0.0,0.0,0.0,0.0,0.0,0.0,0.0,0.0,0.0,0.0,0.0,0.0,0.0,0.0,0.0,0.0,0.0,0.0,0.0,0.0,0.0,0.0,0.0,0.0,0.0,0.0,0.0,0.0,0.0,0.0,0.0,0.0,0.0,0.0,0.0,0.0,0.0,0.0,0.0,0.0,0.0,0.0,0.0,0.0,0.0,0.0,0.0,0.0,0.0,0.0,0.0,0.0,0.0,0.0,0.0,0.0,0.0,0.0,0.0,0.0,0.0,0.0,0.0,0.0,0.0,0.0,0.0,0.0,0.0,0.0,0.0,0.0,0.0,0.0,0.0,0.0,0.0,0.0,0.0,0.0,0.0,0.0,0.0,0.0,0.0,0.0,0.0,0.0,0.0,0.0,0.0,0.0,0.0,0.0,0.0,0.0,0.0,0.0,0.0,0.0,0.0,0.0,0.0,0.0,0.0,0.0,0.0,0.0,0.0,0.0,0.0,0.0,0.0,0.0,0.0,0.0,0.0,0.0,0.0,0.0,0.0,0.0,0.0,0.0,0.0,0.0,0.0,0.0,0.0,0.0,0.0,0.0,0.0,0.0,0.0,0.0,0.0,0.0,0.0,0.0,0.0,0.0,0.0,0.0,0.0,0.0,0.0,0.0,0.0,0.0,0.0,0.0,0.0,0.0,0.0,0.0,0.0,0.0,0.0,0.0,0.0,0.0,0.0,0.0,0.0,0.0,0.0,0.0,0.0,0.0,0.0,0.0,0.0,0.0,0.0,0.0,0.0,0.0,0.0,0.0,0.0,0.0,0.0,0.0,0.0,0.0,0.0,0.0,0.0,0.0,0.0,0.0,0.0,0.0,0.0,0.0,0.0,0.0,0.0,0.0,0.0,0.0,0.0,0.0,0.0,0.0,0.0,0.0,0.0,0.0,0.0,0.0,0.0,0.0,0.0,0.0,0.0,0.0,0.0,0.0,0.0,0.0,0.0,0.0,0.0,0.0,0.0,0.0,0.0,0.0,0.0,0.0,0.0,0.0,0.0,0.0,0.0,0.0,0.0,0.0,0.0,0.0,0.0,0.0,0.0,0.0,0.0,0.0,0.0,0.0,0.0,0.0,0.0,0.0,0.0,0.0,0.0,0.0,0.0,0.0,0.0,0.0,0.0,0.0,0.0,0.0,0.0,0.0,0.0,0.0,0.0,0.0,0.0,0.0,0.0,0.0,0.0,0.0,0.0,0.0,0.0,0.0,0.0,0.0,0.0,0.0,0.0,0.0,0.0,0.0,0.0,0.0,0.0,0.0,0.0,0.0,0.0,0.0,0.0,0.0,0.0,0.0,0.0,0.0,0.0,0.0,0.0,0.0,0.0,0.0,0.0,0.0,0.0,0.0,0.0,0.0,0.0,0.0,0.0,0.0,0.0,0.0,0.0,0.0,0.0,0.0,0.0,0.0,0.0,0.0,0.0,0.0,0.0,0.0,0.0,0.0,0.0,0.0,0.0,0.0,0.0,0.0,0.0,0.0,0.0,0.0,0.0,0.0,0.0,0.0,0.0,0.0,0.0,0.0,0.0,0.0,0.0,0.0,0.0,0.0,0.0,0.0,0.0,0.0,0.0,0.0,0.0,0.0,0.0,0.0,0.0,0.0,0.0,0.0,0.0,0.0,0.0,0.0,0.0,0.0,0.0,0.0,0.0,0.0,0.0,0.0,0.0,0.0,0.0,0.0,0.0,0.0,0.0,0.0,0.0,0.0239,0.0119,0.0,0.0,0.0,0.0,0.0,0.0,0.0,0.0,0.0,0.0,0.0,0.0,0.0,0.0,0.0,0.0,0.0,0.0,0.0,0.0,0.0,0.0,0.0,0.0,0.0,0.0,0.0,0.0,0.0,0.0,0.0,0.0,0.0,0.0,0.0,0.0,0.0,0.0,0.0,0.0,0.0,0.0,0.0,0.0,0.0,0.0,0.0,0.0,0.0,0.0,0.0,0.0,0.0,0.0,0.0,0.0,0.0,0.0,0.0,0.0,0.0,0.0,0.0,0.0,0.0,0.0,0.0,0.0,0.0,0.0,0.0,0.0,0.0,0.0,0.0,0.0,0.0,0.0,0.0,0.0,0.0,0.0,0.0,0.0,0.0,0.0,0.0,0.0,0.0,0.0,0.0,0.0,0.0,0.0,0.0,0.0,0.0,0.0,0.0,0.0,0.0,0.0,0.0,0.0,0.0,0.0,0.0,0.0,0.0,0.0,0.0,0.0,0.0,0.0,0.0866,0.0487,0.0,0.0,0.0,0.0,0.0,0.0,0.0,0.0,0.0,0.0,0.0,0.0,0.0,0.0,0.0,0.0,0.0,0.0,0.0,0.0,0.0,0.0,0.0,0.0,0.0,0.0,0.0,0.0,0.0,0.0,0.0,0.0,0.0,0.0,0.0,0.0,0.0,0.0,0.0,0.0,0.0,0.0,0.0,0.0,0.0,0.0,0.0,0.0,0.0,0.0,0.0,0.0,0.0,0.0,0.0,0.0,0.0,0.0,0.0,0.0,0.0,0.0,0.0,0.0,0.0,0.0,0.0,0.0,0.0,0.0,0.0,0.0,0.0,0.0,0.0,0.0,0.0,0.0,0.0,0.0,0.0,0.0,0.0,0.0,0.0,0.0,0.0,0.0,0.0,0.0,0.0,0.0,0.0,0.0,0.0,0.0,0.0,0.0,0.0,0.0,0.0,0.0,0.0,0.0,0.0,0.0,0.0,0.0,0.0,0.0,0.0,0.0,0.0,0.0,0.1145,0.1266,0.1259,0.0753,0.0774,0.0802,0.0,0.0284,0.0,0.0,0.0,0.0,0.0,0.0,0.0462,0.0,0.0,0.1258,0.0155,0.0,0.0,0.0,0.0,0.0,0.0,0.0,0.0,0.0,0.0,0.0,0.0,0.0,0.0,0.0,0.0,0.0,0.0,0.0,0.0,0.0,0.0,0.0,0.0,0.0,0.0,0.0,0.0,0.0,0.0,0.0,0.0,0.0,0.0,0.0,0.0,0.0,0.0,0.0,0.0,0.0,0.0,0.0,0.0,0.0,0.0,0.0,0.0,0.0,0.0,0.0,0.0,0.0,0.0,0.0,0.0,0.0,0.0,0.0,0.0,0.0,0.0,0.0,0.0,0.0,0.0,0.0,0.0,0.0,0.0,0.0,0.0,0.0,0.0,0.0,0.0,0.0,0.0,0.0,0.0,0.0,0.0,0.0,0.0,0.0,0.0,0.0,0.0,0.0,0.0,0.0,0.0,0.0,0.0,0.0,0.0,0.0,0.1551,0.182,0.1959,0.1554,0.1607,0.0,0.0,0.0,0.0,0.0,0.0609,0.0,0.0471,0.0,0.0945,0.0,0.2586,0.2261,0.0961,0.0641,0.0,0.0939,0.0612,0.0,0.0,0.0,0.0,0.0,0.0,0.0,0.0,0.0,0.0,0.0,0.0,0.0,0.0,0.0,0.0,0.0,0.0,0.0,0.0,0.0,0.0,0.0,0.0,0.0,0.0176,0.0879,0.053,0.0,0.0,0.0,0.0,0.0,0.0,0.0,0.0,0.0,0.0,0.0,0.0,0.0,0.0,0.0,0.0,0.0,0.0,0.0,0.0,0.0,0.0,0.0,0.0,0.0,0.0,0.0,0.0,0.0,0.0,0.0,0.0,0.0,0.0,0.0,0.0,0.0,0.0,0.0,0.0,0.0,0.0,0.0,0.0,0.0,0.0,0.0,0.0,0.0,0.0,0.0,0.0,0.0,0.0,0.0,0.0,0.0,0.0,0.0,0.0,0.0,0.0,0.0,0.0,0.0,0.0,0.0,0.0,0.0,0.2236,0.0,0.0,0.0,0.2416,0.0,0.1868,0.1411,0.1299,0.1291,0.1449,0.1303,0.2306,0.0,0.2653,0.1823,0.0,0.0,0.1783,0.1433,0.1417,0.0,0.0,0.0,0.0,0.0,0.0,0.0,0.0,0.0,0.0,0.0,0.0,0.0,0.0,0.0172,0.0173,0.0176,0.0,0.0178,0.0356,0.018,0.0,0.0,0.0359,0.2156,0.1616,0.0179,0.0,0.0,0.0,0.0,0.0,0.0,0.0,0.0,0.0,0.0,0.0,0.0,0.0,0.0,0.0,0.0,0.0,0.0,0.0,0.0,0.0,0.0,0.0,0.0,0.0,0.0,0.0,0.0,0.0,0.0,0.0,0.0,0.0,0.0,0.0,0.0,0.0,0.0,0.0,0.0,0.0,0.0,0.0,0.0,0.0,0.0,0.0,0.0,0.0,0.0,0.0,0.0,0.0,0.0,0.0,0.0,0.0,0.0,0.0,0.0,0.0,0.0,0.0,0.0,0.2475,0.2247,0.2288,0.0,0.2307,0.2333,0.0,0.0,0.0,0.0,0.2387,0.2264,0.2305,0.2302,0.2308,0.2335,0.251,0.0,0.0,0.0,0.0,0.2682,0.246,0.2265,0.2421,0.2007,0.0,0.0888,0.0,0.0,0.0838,0.0,0.0,0.0,0.0,0.0,0.0952,0.0322,0.084,0.2306,0.2117,0.1791,0.0,0.0,0.4316,0.3807,0.108,0.0,0.0,0.0539,0.1436,0.1974,0.0537,0.0,0.0,0.0,0.0,0.0,0.0,0.0,0.0,0.0,0.0,0.0,0.0,0.0,0.0,0.0,0.0,0.0,0.0,0.0,0.0,0.0,0.0,0.0,0.0,0.0,0.0,0.0,0.0,0.0,0.0,0.0,0.0,0.0,0.0,0.0,0.0,0.0,0.0,0.0,0.0,0.0,0.0,0.0,0.0,0.0,0.0,0.0,0.0,0.0,0.0,0.0,0.0,0.0,0.0,0.0,0.0,0.0,0.0,0.0,0.0,0.0,0.0,0.0,0.3709,0.0,0.0,0.2387,0.0,0.0,0.2131,0.0,0.0,0.2605,0.263,0.0,0.2722,0.2705,0.2701,0.2729,0.2744,0.0,0.0,0.0,0.0,0.2732,0.2688,0.2657,0.2643,0.2723,0.0,0.1843,0.0,0.0,0.1742,0.1742,0.0,0.0,0.0,0.1707,0.0,0.2684,0.5212,0.809,0.5733,0.0,0.0,0.5771,0.6677,0.6919,0.5612,0.4152,0.289,0.3628,0.4181,0.3999,0.2543,0.1449,0.0542,0.0542,0.054,0.0539,0.0542,0.0362,0.0,0.0,0.0,0.0,0.0,0.0,0.0,0.0,0.0,0.0,0.0,0.0,0.0,0.0,0.0,0.0,0.0,0.0,0.0,0.0,0.0,0.0,0.0,0.0,0.0,0.0,0.0,0.0,0.0,0.0,0.0,0.0,0.0,0.0,0.0,0.0,0.0,0.0,0.0,0.0,0.0,0.0,0.0,0.0,0.0,0.0,0.0,0.0,0.0,0.0,0.0,0.0,0.0,0.0,0.0,0.0,0.0,0.0,0.0,0.0,0.0,0.0,0.0,0.2722,0.0,0.3234,0.0,0.3246,0.3515,0.3294,0.327,0.3474,0.0,0.3527,0.3532,0.3534,0.352,0.3667,0.3454,0.342,0.3555,0.3505,0.0,0.0,0.0,0.0,0.2435,0.3043,0.0,0.0,0.0,0.0,0.0,0.5981,1.0097,1.415,0.9445,0.746,0.7275,0.7387,0.8125,0.9295,1.1164,0.9507,0.6753,0.9028,0.85,0.7019,0.627,0.4768,0.2916,0.2552,0.2356,0.2346,0.2364,0.1813,0.1086,0.1105,0.092,0.0917,0.0925,0.0921,0.0732,0.0731,0.072,0.0714,0.0,0.0,0.0,0.0,0.0,0.0,0.0,0.0,0.0,0.0,0.0,0.0,0.0,0.0,0.0,0.0,0.0,0.0,0.0,0.0,0.0,0.0,0.0,0.0,0.0,0.0,0.0,0.0,0.0,0.0,0.0,0.0,0.0,0.0,0.0,0.0,0.0,0.0,0.0,0.0,0.0,0.0,0.0,0.0,0.0,0.0,0.0,0.0,0.0,0.0,0.0,0.4941,0.4865,0.5521,0.5864,0.5966,0.5499,0.5704,0.7295,0.6067,0.5712,0.7281,0.7465,0.0,0.0,0.0,0.0,0.7821,0.7574,0.7527,0.7686,0.7469,0.648,0.0,0.0,0.0,0.2499,0.5602,0.0,0.0,0.0,0.0,0.7234,0.6611,0.0,1.0668,0.968,0.8596,0.7541,0.8738,0.9441,1.0207,1.1862,1.0761,0.9036,1.1846,1.2604,1.2414,1.2219,1.183,1.1064,0.8465,0.7717,0.7695,0.7464,0.7303,0.6974,0.6445,0.6299,0.6331,0.6343,0.5592,0.5016,0.4974,0.4956,0.5122,0.5098,0.0,0.0,0.0,0.0,0.0,0.0,0.0,0.0,0.0,0.0,0.0,0.0,0.0,0.0,0.0,0.0,0.0,0.0,0.0,0.0,0.0,0.0,0.0,0.0,0.0,0.0,0.0,0.0,0.0,0.0,0.0,0.0,0.0,0.0,0.0,0.0,0.0,0.0,0.0,0.0,0.0,0.0,0.0,0.0,0.0,0.0,0.0,0.0,0.0,0.0,0.0,0.0,0.8354,0.0,0.7694,0.7345,0.7545,0.8513,0.7739,0.753,0.8452,0.8632,0.8477,0.8517,0.8522,0.8558,0.8823,0.8744,0.0,0.8694,0.8561,0.8061,0.7045,0.0,0.0,0.579,0.7643,0.7877,0.712,0.0,0.7742,0.0,0.0,0.0,1.2662,1.2219,1.1667,1.0956,1.1399,1.1576,1.2013,1.2876,1.2365,1.1626,1.3144,1.3715,1.3715,1.3709,1.3097,1.2292,1.0596,0.9627,0.9028,0.8799,0.919,0.9605,0.9283,1.0231,1.1387,1.1507,1.1111,1.0679,1.0064,0.9684,0.9305,0.9262,0.4232,0.0,0.0,0.0,0.0,0.0,0.0,0.0,0.0,0.0,0.0,0.0,0.0,0.0,0.0,0.0,0.0,0.0,0.0,0.0,0.0,0.0,0.0,0.0,0.0,0.0,0.0,0.0,0.0,0.0,0.0,0.0,0.0,0.0,0.0,0.0,0.0,0.0,0.0,0.0,0.0,0.0,0.0,0.0,0.0,0.0,0.6948,0.0,0.0,0.6755,0.0,0.9121,1.0931,1.1471,0.9509,0.9242,0.9242,0.9752,0.945,0.9392,0.9829,0.9833,0.9833,0.9833,0.9833,0.988,0.9978,1.0083,1.0049,1.0068,1.0049,0.9731,0.0,0.0,0.0,0.8488,0.959,1.0117,0.0,0.0,0.0,0.0,0.0,1.3037,1.5011,1.4454,1.4268,1.4075,1.3616,1.3468,1.3753,1.3753,1.3821,1.4096,1.4071,1.387,1.387,1.4059,1.3228,1.2201,1.2201,1.1387,1.0383,1.0364,1.0921,1.1689,1.1785,1.3252,1.4758,1.5215,1.5187,1.4719,1.3952,1.3192,1.2438,1.2262,0.7002,0.0,0.0,0.0,0.0,0.0,0.0,0.0,0.0,0.0,0.0,0.0,0.0,0.0,0.0,0.0,0.0,0.0,0.0,0.0,0.0,0.0,0.0,0.0,0.0,0.0,0.0,0.0,0.0,0.0,0.0,0.0,0.0,0.0,0.0,0.0,0.0,0.0,0.0,0.0,0.0,0.0,0.0,0.0,0.0,0.0,0.0,0.0,0.0,0.0,0.0,1.1411,1.304,1.3585,1.1596,1.1314,1.1788,1.3597,1.2148,1.1782,1.3584,1.3761,1.3761,1.3761,1.3761,1.3827,1.3957,1.3957,1.4009,1.4147,1.4016,1.3139,0.0,0.0,1.1487,0.0,1.1698,1.3813,1.3951,0.0,0.0,0.0,1.2754,1.2999,1.4242,1.4358,1.4222,1.3676,1.378,1.4209,1.4603,1.4603,1.4806,1.518,1.504,1.4805,1.4429,1.4993,1.4986,1.4785,1.4785,1.4772,1.4545,1.4421,1.4573,1.458,1.4593,1.4778,1.4997,1.516,1.4805,1.4416,1.4409,1.3852,1.3293,1.2361,1.1605,0.8573,0.0,0.0,0.0,0.0,0.0,0.0,0.0,0.0,0.0,0.0,0.0,0.0,0.0,0.0,0.0,0.0,0.0,0.0,0.0,0.0,0.0,0.0,0.0,0.0,0.0,0.0,0.0,0.0,0.0,0.0,0.0,0.0,0.0,0.0,0.0,0.0,0.0,0.0,0.0,0.0,0.0,0.0,0.0,0.0,0.0,0.0,0.0,0.0,0.0,0.0,1.4101,1.4282,1.355,1.3362,1.3432,1.4414,1.3707,1.356,1.4557,1.4563,1.4563,1.4563,1.4475,1.4496,1.4638,1.4652,1.4679,1.474,1.4774,1.4342,0.0,0.0,0.0,0.0,1.3926,1.4903,1.4787,1.4106,1.4132,1.4889,1.4255,1.4313,1.4725,1.4973,1.4805,1.463,1.4682,1.4891,1.508,1.508,1.514,1.5404,1.5343,1.5066,1.4993,1.5181,1.5181,1.5201,1.5296,1.5316,1.5323,1.5364,1.5371,1.5371,1.5371,1.5303,1.5276,1.5425,1.512,1.4831,1.4917,1.4487,1.3889,1.3406,1.2858,1.1487,0.7778,0.0,0.0,0.0,0.0,0.0,0.0,0.0,0.0,0.0,0.0,0.0,0.0,0.0,0.0,0.0,0.0,0.0,0.0,0.0,0.0,0.0,0.0,0.0,0.0,0.0,0.0,0.0,0.0,0.0,0.0,0.0,0.0,0.0,0.0,0.0,0.0,0.0,0.0,0.0,0.0,0.0,0.0,1.2849,0.0,1.2642,0.0,1.2841,1.3492,1.4698,1.4869,1.4855,1.4814,1.4624,1.4516,1.457,1.4577,1.4624,1.4733,1.474,1.474,1.474,1.4638,1.4624,1.4733,1.474,0.0,1.4808,1.4916,1.4916,1.4808,1.5059,0.0,1.4516,1.4767,1.4936,1.5031,1.4991,1.497,1.497,1.4923,1.4984,1.5126,1.5167,1.5208,1.5255,1.5303,1.5316,1.5316,1.5316,1.5384,1.5479,1.5479,1.5404,1.5316,1.5316,1.5316,1.5337,1.5445,1.5479,1.5499,1.5608,1.5642,1.5642,1.5642,1.552,1.5438,1.5547,1.5371,1.5201,1.5269,1.4851,1.4442,1.4128,1.3578,1.3157,1.2455,0.0,0.0,0.0,0.0,0.0,0.0,0.0,0.0,0.0,0.0,0.0,0.0,0.0,0.0,0.0,0.0,0.0,0.0,0.0,0.0,0.0,0.0,0.0,0.0,0.0,0.0,0.0,0.0,0.0,0.0,0.0,0.0,0.0,0.0,0.0,0.0,0.0,0.0,0.0,0.0,0.0,0.0,1.493,1.4964,1.5011,1.5147,1.5181,1.5181,1.5174,1.5174,1.5126,1.4984,1.4964,1.4903,1.4753,1.4733,1.474,1.474,1.474,1.474,1.474,1.474,1.474,0.0,0.0,1.4808,1.4964,1.497,1.497,1.497,0.0,0.0,1.3424,1.358,1.4197,1.5174,1.5031,1.497,1.4964,1.4808,1.4835,1.4984,1.5126,1.5276,1.5425,1.5574,1.5635,1.5635,1.5635,1.5635,1.5635,1.5635,1.5635,1.5635,1.5635,1.5635,1.5635,1.5635,1.5635,1.5635,1.5642,1.5642,1.5642,1.5642,1.552,1.5411,1.5411,1.5296,1.5147,1.5004,1.5086,1.4953,1.4255,1.4229,1.4094,1.3688,0.0,0.0,0.0,0.0,0.0,0.0,0.4967,0.0,0.0,0.0,0.0,0.0,0.0,0.0,0.0,0.0,0.0,0.0,0.0,0.0,0.0,0.0,0.0,0.0,0.0,0.0,0.0,0.0,0.0,0.0,0.0,0.0,0.0,0.0,0.0,0.0,0.0,0.0,0.0,0.0,0.0,0.0,1.5106,1.5113,1.516,1.5309,1.5337,1.5337,1.5337,1.5337,1.5323,1.5276,1.5269,1.5289,1.5343,1.5079,1.4936,0.0,1.5038,1.5038,0.0,1.5038,1.5038,1.5038,1.514,1.5174,1.5113,1.5215,1.5221,1.5113,0.0,0.0,1.4767,1.4618,1.4719,1.5031,1.4882,1.4869,1.497,1.4916,1.4984,1.512,1.5167,1.5215,1.5262,1.5309,1.5391,1.5486,1.5486,1.5615,1.5784,1.5784,1.5852,1.594,1.594,1.573,1.5506,1.5608,1.5567,1.5506,1.5608,1.5642,1.5642,1.5642,1.5601,1.5567,1.5567,1.5364,1.514,1.5004,1.5004,1.5052,1.4919,1.4845,1.4613,1.4107,1.3505,0.0,1.2249,0.0,1.1705,1.1803,0.9702,0.6193,0.0,0.0,0.0,0.0,0.0,0.0,0.0,0.0,0.0,0.0,0.0,0.0,0.0,0.0,0.0,0.0,0.0,0.0,0.0,0.0,0.0,0.0,0.0,0.0,0.0,0.0,0.0,0.0,0.0,0.0,0.0,0.0,0.0,0.0,1.5357,1.5357,1.5384,1.5479,1.5499,1.5513,1.5567,1.5574,1.5574,1.5574,1.5574,1.5594,1.5635,1.5391,0.0,1.5343,1.5357,1.5357,1.5357,1.5357,1.5357,1.5357,1.5391,1.5391,1.5357,1.5337,0.0,1.5269,1.5255,1.5215,1.5153,1.497,1.4916,1.4964,1.4808,1.4828,1.497,1.4909,1.497,1.5106,1.5106,1.5167,1.5269,1.5269,1.5364,1.5506,1.556,1.5696,1.5859,1.592,1.6001,1.6083,1.6083,1.5845,1.5608,1.5757,1.5737,1.5683,1.5778,1.5805,1.5791,1.5737,1.5676,1.5608,1.5493,1.5316,1.514,1.5004,1.497,1.4977,1.5011,1.4943,1.4698,1.4514,1.3814,1.3338,1.2975,0.0,1.1383,0.0,0.0,0.0,0.0,0.0,0.0,0.0,0.0,0.0,0.0,0.0,0.0,0.0,0.0,0.0,0.0,0.0,0.0,0.0,0.0,0.0,0.0,0.0,0.0,0.0,0.0,0.0,0.0,0.0,0.0,0.0,0.0,0.0,0.0,0.0,0.0,0.0,1.5642,1.5642,1.5642,0.0,1.5655,1.5703,1.5845,1.5866,1.5866,1.5866,1.5859,1.5805,1.5683,1.5662,1.5655,1.5669,0.0,0.0,1.5642,1.5649,1.5655,1.5655,1.5527,1.5513,1.5635,1.5357,1.5276,1.5398,1.512,1.4909,1.4767,1.476,1.4835,1.4964,1.4808,1.4828,1.4964,1.4814,1.4841,1.4984,1.4997,1.5167,1.5411,1.5425,1.552,1.5669,1.5805,1.5859,1.5893,1.6035,1.6083,1.6083,1.6083,1.5981,1.5893,1.6029,1.6056,1.6049,1.6049,1.6049,1.6015,1.5872,1.5737,1.556,1.5262,1.5201,1.516,1.5018,1.4991,1.4957,1.4801,1.478,1.478,1.4774,1.4395,1.4023,1.4023,1.3279,1.1135,0.6807,0.0,0.0,0.0381,0.0,0.0,0.0,0.0,0.0,0.0,0.0,0.0,0.0,0.0,0.0,0.0,0.0,0.0,0.0,0.0,0.0,0.0,0.0,0.0,0.0,0.0,0.0,0.0,0.0,0.0,0.0,0.0,0.0,0.0,0.0,0.0,0.0,0.0,0.0,1.5669,1.5784,1.5798,1.5852,1.6001,1.6029,1.6029,1.6029,1.5927,1.5886,1.5967,1.5872,1.5852,1.5967,1.5771,1.5642,1.5642,1.5744,1.5805,1.5805,1.5879,1.5832,1.5642,1.5567,1.5432,1.5235,1.5167,1.5113,1.5072,1.497,1.4936,1.4964,1.4808,1.4828,1.497,1.493,1.4997,1.514,1.5262,1.535,1.5425,1.554,1.5676,1.5805,1.5839,1.5927,1.6035,1.6069,1.6083,1.6083,1.6083,1.6056,1.6008,1.5934,1.5832,1.5744,1.5744,1.5744,1.5737,1.5696,1.5662,1.5588,1.5398,1.5357,1.5316,1.516,1.5228,1.5262,1.5106,1.5174,1.5215,1.5099,1.4613,1.4171,1.4171,1.3916,1.2954,1.133,0.5384,0.0929,0.0,0.0,0.0,0.0,0.0,0.0,0.0,0.0,0.0,0.0,0.0,0.0,0.0,0.0,0.0,0.0,0.0,0.0,0.0,0.0,0.0,0.0,0.0,0.0,0.0,0.0,0.0,0.0,0.0,0.0,0.0,0.0,0.0,0.0,1.5839,1.5839,1.5866,1.594,1.5954,1.5981,1.6069,1.6083,1.6083,1.6083,1.6008,1.5988,1.587,1.6008,1.5988,1.6076,1.5934,1.5811,1.5744,1.5811,1.5825,1.5757,1.5832,1.5805,1.5642,1.5567,1.5391,1.5086,1.5086,1.5052,1.4977,1.4903,1.4903,1.497,1.4882,1.493,1.5065,1.5065,1.5153,1.5296,1.5377,1.5493,1.5622,1.5703,1.5832,1.5954,1.5954,1.6008,1.6083,1.6083,1.6083,1.6083,1.6083,1.6083,1.6069,1.5981,1.59,1.5839,1.5839,1.5839,1.5825,1.5757,1.5689,1.5615,1.5533,1.5513,1.5493,1.5411,1.5404,1.5384,1.5303,1.5357,1.5384,1.5303,1.5033,1.4792,1.4792,1.4493,1.4018,1.3967,0.9288,0.4449,0.0369,0.0,0.0,0.0,0.0,0.0,0.0,0.0,0.0,0.0,0.0,0.0,0.0,0.0,0.0,0.0,0.0,0.0,0.0,0.0,0.0,0.0,0.0,0.0,0.0,0.0,0.0,0.0,0.0,0.0,0.0,0.0,0.0,0.0,1.6083,1.6083,1.6083,1.6083,1.6083,1.6083,1.6083,1.6083,1.6083,1.6083,1.6062,1.6056,1.5877,1.5857,1.6056,1.6083,1.6083,1.6029,1.5893,1.5886,1.5832,1.571,1.571,1.5683,1.5642,1.5466,1.5255,1.5004,1.5004,1.4936,1.4808,1.4808,1.4875,1.5004,1.5025,1.5106,1.5215,1.5242,1.5323,1.5445,1.5466,1.5628,1.5852,1.5879,1.5967,1.6083,1.6083,1.6083,1.6083,1.6083,1.6083,1.6083,1.6083,1.6083,1.6083,1.6083,1.6083,1.6083,1.6083,1.6083,1.6049,1.592,1.5798,1.571,1.571,1.571,1.571,1.571,1.5601,1.5506,1.5479,1.5479,1.5493,1.554,1.5493,1.5466,1.554,1.499,1.4838,1.5133,1.4177,1.053,0.2979,0.0939,0.0,0.0,0.0,0.0,0.0,0.0,0.0,0.0,0.0,0.0,0.0,0.0,0.0,0.0,0.0,0.0,0.0,0.0,0.0,0.0,0.0,0.0,0.0,0.0,0.0,0.0,0.0,0.0,0.0,0.0,0.0,0.0,1.6083,1.6083,1.6083,1.6083,1.6083,1.6083,1.6083,1.6083,1.6083,1.6083,1.6172,1.6138,1.6069,1.5763,1.5736,1.6069,1.6083,1.6069,1.6049,1.6049,1.6035,1.6015,1.6015,1.5893,1.5642,1.5364,1.5194,1.5147,1.5147,1.5133,1.5113,1.5113,1.5126,1.5153,1.5282,1.5357,1.5384,1.5513,1.5581,1.5615,1.5737,1.5811,1.5866,1.5995,1.6062,1.6083,1.6083,1.6083,1.6083,1.6083,1.6083,1.6083,1.6083,1.6083,1.6083,1.6083,1.6083,1.6083,1.6083,1.6083,1.6076,1.6049,1.6029,1.6015,1.6015,1.6015,1.6015,1.6015,1.5995,1.594,1.5811,1.5784,1.5866,1.613,1.5852,1.5737,1.6117,1.5825,1.5368,1.5547,1.5375,1.4398,1.2417,0.4849,0.0,0.0,0.0,0.0,0.0,0.0,0.0,0.0,0.0,0.0,0.0,0.0,0.0,0.0,0.0,0.0,0.0,0.0,0.0,0.0,0.0,0.0,0.0,0.0,0.0,0.0,0.0,0.0,0.0,0.0,0.0,0.0,1.6083,1.6083,1.6083,1.6083,1.6083,1.6083,1.6083,1.6083,1.6083,1.6083,1.6022,1.6001,1.6076,1.6015,1.6001,1.6076,1.6083,1.6083,1.6083,1.6008,1.5927,1.5845,1.5845,1.5778,1.5642,1.5499,1.5432,1.5432,1.5432,1.5432,1.5432,1.5432,1.5432,1.5432,1.5499,1.5533,1.554,1.5608,1.5683,1.5757,1.5825,1.59,1.5981,1.6056,1.6083,1.6083,1.6083,1.6083,1.6083,1.6083,1.6083,1.6083,1.6083,1.6083,1.6083,1.6083,1.6083,1.6083,1.6083,1.6083,1.6083,1.6083,1.6083,1.6083,1.6083,1.6083,1.6083,1.6083,1.6083,1.6062,1.5988,1.5974,1.6022,1.6164,1.594,1.5825,1.6035,1.5818,1.5642,1.5642,1.5261,1.5274,1.5288,1.0759,0.6647,0.3715,0.1371,0.0,0.0,0.0,0.0,0.0,0.0,0.0,0.0,0.0,0.0,0.0,0.0,0.0,0.0,0.0,0.0,0.0,0.0,0.0,0.0,0.0,0.0,0.0,0.0,0.0,0.0,0.0,0.0,0.0,1.6083,1.6083,1.6083,1.6083,1.6083,1.6083,1.6083,1.6083,1.6083,1.6083,1.6083,1.6083,1.6083,1.6083,1.6083,1.6083,1.6083,1.6083,1.6083,1.6172,1.6055,1.575,1.571,1.5689,1.5689,1.5655,1.5642,1.5642,1.5642,1.5642,1.5642,1.5642,1.5642,1.5642,1.5676,1.5689,1.5689,1.573,1.5805,1.5906,1.5906,1.5974,1.6083,1.6083,1.6083,1.6083,1.6083,1.6083,1.6083,1.6083,1.6083,1.6083,1.6083,1.6083,1.6083,1.6083,1.6083,1.6083,1.6083,1.6083,1.6083,1.6083,1.6083,1.6083,1.6083,1.6083,1.6083,1.6083,1.6083,1.6083,1.6083,1.6083,1.6117,1.6218,1.6049,1.594,1.6049,1.5879,1.5744,1.5744,1.5354,1.536,1.5784,1.5394,1.3211,0.9056,0.5118,0.2167,0.0197,0.0,0.0,0.0,0.0,0.0,0.0,0.0,0.0,0.0,0.0,0.0,0.0,0.0,0.0,0.0,0.0,0.0,0.0,0.0,0.0,0.0,0.0,0.0,0.0,0.0,0.0,0.0,1.6083,1.6083,1.6083,1.6083,1.6083,1.6083,1.6083,1.6083,1.6083,1.6083,1.6083,1.6083,1.6083,1.6083,1.6083,1.6083,1.6083,1.6083,1.6083,1.6069,1.6062,1.6049,1.5913,1.5839,1.5839,1.571,1.5642,1.5642,1.5642,1.5642,1.5642,1.5642,1.5642,1.5642,1.5778,1.5839,1.5845,1.5988,1.6056,1.6062,1.6062,1.6069,1.6083,1.6083,1.6083,1.6083,1.6083,1.6083,1.6083,1.6083,1.6083,1.6083,1.6083,1.6083,1.6083,1.6083,1.6083,1.6083,1.6083,1.6083,1.6083,1.6083,1.6083,1.6083,1.6083,1.6083,1.6083,1.6083,1.6083,1.6083,1.6083,1.6083,1.6218,1.6632,1.6341,1.6212,1.6625,1.632,1.6049,1.6049,1.6049,1.6049,1.6056,1.6083,1.5897,1.5492,1.329,0.8442,0.0402,0.0,0.0,0.0,0.0,0.0,0.0,0.0,0.0,0.0,0.0,0.0,0.0,0.0,0.0,0.0,0.0,0.0,0.0,0.0,0.0,0.0,0.0,0.0,0.0,0.0,0.0,0.0,1.6083,1.6083,1.6083,1.6083,1.6083,1.6083,1.6083,1.6083,1.6083,1.6083,1.6083,1.6083,1.6083,1.6083,1.6083,1.6083,1.6083,1.6083,1.6083,1.6083,1.6083,1.6083,1.6029,1.5995,1.5995,1.594,1.5913,1.5913,1.5913,1.5913,1.5913,1.5913,1.5913,1.5913,1.5967,1.5995,1.6001,1.6056,1.6083,1.6083,1.6083,1.6083,1.6083,1.6083,1.6083,1.6083,1.6083,1.6083,1.6083,1.6083,1.6083,1.6083,1.6083,1.6083,1.6083,1.6083,1.6083,1.6083,1.6083,1.6083,1.6083,1.6083,1.6083,1.6083,1.6083,1.6083,1.6083,1.6083,1.6083,1.6083,1.6083,1.6083,1.6137,1.6307,1.6191,1.6144,1.6313,1.6191,1.6083,1.6083,1.6083,1.6083,1.6083,1.6096,1.5897,1.5698,1.4719,1.23,0.8245,0.2819,0.0,0.0,0.0,0.0,0.0,0.0,0.0,0.0,0.0,0.0,0.0,0.0,0.0,0.0,0.0,0.0,0.0,0.0,0.0,0.0,0.0,0.0,0.0,0.0,0.0,0.0,1.6083,1.6083,1.6083,1.6083,1.6083,1.6083,1.6083,1.6083,1.6083,1.6083,1.6083,1.6083,1.6083,1.6083,1.6083,1.6083,1.6083,1.6083,1.6083,1.6083,1.6083,1.6083,1.6083,1.6083,1.6083,1.6083,1.6083,1.6083,1.6083,1.6083,1.6083,1.6083,1.6083,1.6083,1.6083,1.6083,1.6083,1.6083,1.6083,1.6083,1.6083,1.6083,1.6083,1.6083,1.6083,1.6083,1.6083,1.6083,1.6083,1.6083,1.6083,1.6083,1.6083,1.6083,1.6083,1.6083,1.6083,1.6083,1.6083,1.6083,1.6083,1.6083,1.6083,1.6083,1.6083,1.6083,1.6083,1.6083,1.6083,1.6083,1.6083,1.6083,1.6083,1.6083,1.6083,1.6083,1.6083,1.6083,1.6083,1.6083,1.6083,1.6083,1.6083,1.6083,1.5884,1.5479,1.5306,1.4513,1.2901,0.463,0.0,0.0,0.0,0.0,0.0,0.0,0.0,0.0,0.0,0.0,0.0,0.0,0.0,0.0,0.0,0.0,0.0,0.0,0.0,0.0,0.0,0.0,0.0,0.0,0.0,0.0,1.6083,1.6083,1.6083,1.6083,1.6083,1.6083,1.6083,1.6083,1.6083,1.6083,1.6083,1.6083,1.6083,1.6083,1.6083,1.6083,1.6083,1.6083,1.6083,1.6083,1.6083,1.6083,1.6083,1.6083,1.6083,1.6083,1.6083,1.6083,1.6083,1.6083,1.6083,1.6083,1.6083,1.6083,1.6083,1.6083,1.6083,1.6083,1.6083,1.6083,1.6083,1.6083,1.6083,1.6083,1.6083,1.6083,1.6083,1.6083,1.6083,1.6083,1.6083,1.6083,1.6083,1.6083,1.6083,1.6083,1.6083,1.6083,1.6083,1.6083,1.6083,1.6083,1.6083,1.6083,1.6083,1.6083,1.6083,1.6083,1.6083,1.6083,1.6083,1.6083,1.6083,1.6083,1.6083,1.6083,1.6083,1.6083,1.6083,1.6083,1.6083,1.6083,1.6083,1.6083,1.6083,1.6083,1.5678,1.4688,1.2901,0.4831,0.0,0.0,0.0,0.0,0.0,0.0,0.0,0.0,0.0,0.0,0.0,0.0,0.0,0.0,0.0,0.0,0.0,0.0,0.0,0.0,0.0,0.0,0.0,0.0,0.0,0.0,1.6083,1.6083,1.6083,1.6083,1.6083,1.6083,1.6083,1.6083,1.6083,1.6083,1.6083,1.6083,1.6083,1.6083,1.6083,1.6083,1.6083,1.6083,1.6083,1.6083,1.6083,1.6083,1.6083,1.6083,1.6083,1.6083,1.6083,1.6083,1.6083,1.6083,1.6083,1.6083,1.6083,1.6083,1.6083,1.6083,1.6083,1.6083,1.6083,1.6083,1.6083,1.6083,1.6083,1.6083,1.6083,1.6083,1.6083,1.6083,1.6083,1.6083,1.6083,1.6083,1.6083,1.6083,1.6083,1.6083,1.6083,1.6083,1.6083,1.6083,1.6083,1.6083,1.6083,1.6083,1.6083,1.6083,1.6083,1.6083,1.6083,1.6083,1.6083,1.6083,1.6083,1.6083,1.6083,1.6083,1.6083,1.6083,1.6083,1.6083,1.6083,1.6083,1.6083,1.6083,1.5884,1.5479,1.4682,1.3936,1.3037,1.0595,0.6328,0.0205,0.0,0.0,0.0,0.0,0.0,0.0,0.0,0.0,0.0,0.0,0.0,0.0,0.0,0.0,0.0,0.0,0.0,0.0,0.0,0.0,0.0,0.0,0.0,0.0,1.6083,1.6083,1.6083,1.6083,1.6083,1.6083,1.6083,1.6083,1.6083,1.6083,1.6083,1.6083,1.6083,1.6083,1.6083,1.6083,1.6083,1.6083,1.6083,1.6083,1.6083,1.6083,1.6083,1.6083,1.6083,1.6083,1.6083,1.6083,1.6083,1.6083,1.6083,1.6083,1.6083,1.6083,1.6083,1.6083,1.6083,1.6083,1.6083,1.6083,1.6083,1.6083,1.6083,1.6083,1.6083,1.6083,1.6083,1.6083,1.6083,1.6083,1.6083,1.6083,1.6083,1.6083,1.6083,1.6083,1.6083,1.6083,1.6083,1.6083,1.6083,1.6083,1.6083,1.6083,1.6083,1.6083,1.6083,1.6083,1.6083,1.6083,1.6083,1.6083,1.6083,1.6083,1.6083,1.6083,1.6083,1.6083,1.6083,1.6083,1.6083,1.6083,1.6083,1.6083,1.5904,1.5357,1.4361,1.3621,1.3553,1.3172,0.9893,0.269,0.0832,0.0,0.0,0.0,0.0,0.0,0.0,0.0,0.0,0.0,0.0,0.0,0.0,0.0,0.0,0.0,0.0,0.0,0.0,0.0,0.0,0.0,0.0,0.0,1.6083,1.6083,1.6083,1.6083,1.6083,1.6083,1.6083,1.6083,1.6083,1.6083,1.6083,1.6083,1.6083,1.6083,1.6083,1.6083,1.6083,1.6083,1.6083,1.6083,1.6083,1.6083,1.6083,1.6083,1.6083,1.6083,1.6083,1.6083,1.6083,1.6083,1.6083,1.6083,1.6083,1.6083,1.6083,1.6083,1.6083,1.6083,1.6083,1.6083,1.6083,1.6083,1.6083,1.6083,1.6083,1.6083,1.6083,1.6083,1.6083,1.6083,1.609,1.6096,1.6083,1.6083,1.6083,1.6083,1.6083,1.6083,1.6083,1.6083,1.6083,1.6083,1.6083,1.6083,1.6083,1.6083,1.6083,1.6083,1.6083,1.6083,1.6083,1.6083,1.6083,1.6083,1.6083,1.6083,1.6083,1.6083,1.6083,1.6083,1.6083,1.609,1.6103,1.6117,1.5777,1.5505,1.45,1.3944,1.3865,1.3693,1.1419,0.7259,0.2509,0.0,0.0,0.0,0.0,0.0,0.0,0.0,0.0,0.0,0.0,0.0,0.0,0.0,0.0,0.0,0.0,0.0,0.0,0.0,0.0,0.0,0.0426,0.1279,1.6083,1.6083,1.6083,1.6083,1.6083,1.6083,1.6083,1.6083,1.6083,1.6083,1.6083,1.6083,1.6083,1.6083,1.6083,1.6083,1.6083,1.6083,1.6083,1.6083,1.6083,1.6083,1.6083,1.6083,1.6083,1.6083,1.6083,1.6083,1.6083,1.6083,1.6083,1.6083,1.6083,1.6083,1.6083,1.6083,1.6083,1.6083,1.6083,1.6083,1.6083,1.6083,1.6083,1.6083,1.6083,1.6083,1.6083,1.6083,1.6083,1.6083,1.6157,1.6239,1.6123,1.6083,1.6083,1.6083,1.6083,1.6083,1.6083,1.6083,1.6083,1.6083,1.6083,1.6083,1.6083,1.6083,1.6083,1.6083,1.6083,1.6083,1.6083,1.6083,1.6083,1.6083,1.6083,1.6083,1.6083,1.6083,1.6083,1.6083,1.6083,1.613,1.6246,1.5551,1.522,1.5047,1.4019,1.346,1.3581,1.3406,1.3037,1.2059,0.4234,0.0,0.0,0.0,0.0,0.0,0.0,0.0,0.0,0.0,0.0,0.0,0.0,0.0,0.0,0.0,0.0,0.0,0.0,0.0,0.0,0.0,0.448,1.0695,1.6083,1.6083,1.6083,1.6083,1.6083,1.6083,1.6083,1.6083,1.6083,1.6083,1.6083,1.6083,1.6083,1.6083,1.6083,1.6083,1.6083,1.6083,1.6083,1.6083,1.6083,1.6083,1.6083,1.6083,1.6083,1.6083,1.6083,1.6083,1.6083,1.6083,1.6083,1.6083,1.6083,1.6083,1.6083,1.6083,1.6083,1.6083,1.6083,1.6083,1.6083,1.6083,1.6083,1.6083,1.613,1.6191,1.6191,1.6232,1.6293,1.6293,1.6347,1.6388,1.6239,1.6191,1.6178,1.6103,1.6083,1.6083,1.6083,1.6083,1.6083,1.6083,1.6083,1.6083,1.6083,1.6083,1.6083,1.6083,1.6083,1.6083,1.6083,1.6083,1.6083,1.6083,1.6083,1.6083,1.6083,1.6083,1.611,1.6185,1.6191,1.6246,1.6395,1.5462,1.4916,1.4983,1.3945,1.3379,1.3504,1.352,1.3564,1.3629,0.8929,0.5525,0.3189,0.3191,0.3193,0.3193,0.5541,0.4263,0.0,0.0,0.0,0.0,0.0,0.0,0.0,0.0,0.0,0.0,0.0,0.2558,0.6402,0.64,0.8106,1.0678,1.6083,1.6083,1.6083,1.6083,1.6083,1.6083,1.6083,1.6083,1.6083,1.6083,1.6083,1.6083,1.6083,1.6083,1.6083,1.6083,1.6083,1.6083,1.6083,1.6083,1.6083,1.6083,1.6083,1.6083,1.6083,1.6083,1.6083,1.6083,1.6083,1.6083,1.6083,1.6083,1.6083,1.6083,1.6083,1.6083,1.6083,1.6083,1.6083,1.6083,1.6083,1.6096,1.6123,1.6123,1.6218,1.6347,1.6347,1.6435,1.6558,1.653,1.6537,1.6537,1.6388,1.6347,1.632,1.6191,1.6137,1.6123,1.6123,1.6103,1.6083,1.6083,1.6083,1.6083,1.6083,1.6083,1.6083,1.6083,1.6083,1.6083,1.6083,1.6083,1.6083,1.6083,1.6103,1.6123,1.6123,1.6144,1.6205,1.6334,1.6368,1.6429,1.6551,1.5558,1.5002,1.5118,1.4081,1.3499,1.3597,1.3602,1.3613,1.3624,1.3629,1.1708,0.808,0.7871,0.7871,0.8083,1.1741,0.9603,0.2343,0.149,0.1064,0.1065,0.0426,0.0426,0.1278,0.1918,0.1917,0.1065,0.1065,0.5758,1.2636,1.3269,1.1307,0.8508,1.6083,1.6083,1.6083,1.6083,1.6083,1.6083,1.6083,1.6083,1.6083,1.6083,1.6083,1.6083,1.6083,1.6083,1.6083,1.6083,1.6083,1.6083,1.6083,1.6083,1.6083,1.6083,1.6083,1.6083,1.6083,1.6083,1.6083,1.6083,1.6083,1.6083,1.6083,1.6083,1.6083,1.6083,1.6083,1.6083,1.6083,1.6083,1.6083,1.6083,1.6083,1.6157,1.6279,1.6279,1.6368,1.649,1.649,1.6592,1.67,1.6564,1.6612,1.6693,1.6537,1.649,1.649,1.6469,1.6374,1.6279,1.6279,1.6185,1.6083,1.6083,1.6083,1.6083,1.6083,1.6083,1.6083,1.6083,1.6083,1.6083,1.6083,1.6083,1.6083,1.6083,1.6191,1.6279,1.6279,1.6381,1.6469,1.649,1.6612,1.67,1.6714,1.5793,1.524,1.5258,1.4212,1.3586,1.3602,1.3602,1.3607,1.3607,1.3624,1.3206,1.2772,1.2586,1.2596,1.2596,1.3222,1.301,1.1737,0.7662,0.5952,0.5742,0.1702,0.234,0.6167,1.0032,0.9386,0.5955,0.5955,0.6594,0.8302,1.2166,1.3227,1.2777,1.6083,1.6083,1.6083,1.6083,1.6083,1.6083,1.6083,1.6083,1.6083,1.6083,1.6083,1.6083,1.6083,1.6083,1.6083,1.6083,1.6083,1.6083,1.6083,1.6083,1.6083,1.6083,1.6083,1.6083,1.6083,1.6083,1.6083,1.6083,1.6083,1.6083,1.6083,1.6083,1.6083,1.6083,1.6083,1.6083,1.609,1.6171,1.6212,1.6218,1.6293,1.6368,1.6429,1.6429,1.6517,1.6659,1.6748,1.6822,1.687,1.6802,1.6822,1.6849,1.67,1.6592,1.6503,1.6429,1.63,1.6185,1.6185,1.613,1.6083,1.6083,1.6083,1.6083,1.6083,1.6083,1.6083,1.6083,1.6083,1.6083,1.6083,1.6151,1.6212,1.6212,1.6334,1.6429,1.6429,1.6483,1.6551,1.6639,1.6788,1.6876,1.6876,1.5882,1.5283,1.5283,1.4235,1.3602,1.3602,1.3602,1.3602,1.3602,1.3613,1.3618,1.3618,1.3629,1.3635,1.3635,1.3624,1.3635,1.346,1.1501,1.0644,1.0441,0.8518,0.7234,0.7231,1.1737,1.2383,1.0657,1.0657,1.0649,1.0861,1.2808,1.3651,1.3618]}]]